[[{"header":{"parameterUnit":"m.s-1","parameterCategory":1,"la1":30.6,"la2":28.766,"lo1":-90.7593,"lo2":-88.6598,"dy":0.0162,"dx":0.0183,"nx":116,"ny":114,"refTime":"2023-03-23T12:00:00:Z","depth":0,"parameterNumber":2,"parameterNumberName":"U-component_of_WINDS"},"data":[0.0,0.0,0.0,0.0,0.0,0.0,0.0,0.0,0.0,0.0,0.0,0.0,0.0,0.0,0.0,0.0,0.0,0.0,0.0,0.0,0.0,0.0,0.0,0.0,0.0,0.0,0.0,0.0,0.0,0.0,0.0,0.0,0.0,0.0,0.0,0.0,0.0,0.0,0.0,0.0,0.0,0.0,0.0,0.0,0.0,0.0,0.0,0.0,0.0,0.0,0.0,0.0,0.0,0.0,0.0,0.0,0.0,0.0,0.0,0.0,0.0,0.0,0.0,0.0,0.0,0.0,0.0,0.0,0.0,0.0,0.0,0.0,0.0,0.0,0.0,0.0,0.0,0.0,0.0,0.0,0.0,0.0,0.0,0.0,0.0,0.0,0.0,0.0,0.0,0.0,0.0,0.0,0.0,0.0,0.0,0.0,0.0,0.0,0.0,0.0,0.0,0.0,0.0,0.0,0.0,0.0,0.0,0.0,0.0,0.0,0.0,0.0,0.0,0.0,0.0,0.0,0.0,0.0,0.0,0.0,0.0,0.0,0.0,0.0,0.0,0.0,0.0,0.0,0.0,0.0,0.0,0.0,0.0,0.0,0.0,0.0,0.0,0.0,0.0,0.0,0.0,0.0,0.0,0.0,0.0,0.0,0.0,0.0,0.0,0.0,0.0,0.0,0.0,0.0,0.0,0.0,0.0,0.0,0.0,0.0,0.0,0.0,0.0,0.0,0.0,0.0,0.0,0.0,0.0,0.0,0.0,0.0,0.0,0.0,0.0,0.0,0.0,0.0,0.0,0.0,0.0,0.0,0.0,0.0,0.0,0.0,0.0,0.0,0.0,0.0,0.0,0.0,0.0,0.0,0.0,0.0,0.0,0.0,0.0,0.0,0.0,0.0,0.0,0.0,0.0,0.0,0.0,0.0,0.0,0.0,0.0,0.0,0.0,0.0,0.0,0.0,0.0,0.0,0.0,0.0,0.0,0.0,0.0,0.0,0.0,0.0,0.0,0.0,0.0,0.0,0.0,0.0,0.0,0.0,0.0,0.0,0.0,0.0,0.0,0.0,0.0,0.0,0.0,0.0,0.0,0.0,0.0,0.0,0.0,0.0,0.0,0.0,0.0,0.0,0.0,0.0,0.0,0.0,0.0,0.0,0.0,0.0,0.0,0.0,0.0,0.0,0.0,0.0,0.0,0.0,0.0,0.0,0.0,0.0,0.0,0.0,0.0,0.0,0.0,0.0,0.0,0.0,0.0,0.0,0.0,0.0,0.0,0.0,0.0,0.0,0.0,0.0,0.0,0.0,0.0,0.0,0.0,0.0,0.0,0.0,0.0,0.0,0.0,0.0,0.0,0.0,0.0,0.0,0.0,0.0,0.0,0.0,0.0,0.0,0.0,0.0,0.0,0.0,0.0,0.0,0.0,0.0,0.0,0.0,0.0,0.0,0.0,0.0,0.0,0.0,0.0,0.0,0.0,0.0,0.0,0.0,0.0,0.0,0.0,0.0,0.0,0.0,0.0,0.0,0.0,0.0,0.0,0.0,0.0,0.0,0.0,0.0,0.0,0.0,0.0,0.0,0.0,0.0,0.0,0.0,0.0,0.0,0.0,0.0,0.0,0.0,0.0,0.0,0.0,0.0,0.0,0.0,0.0,0.0,0.0,0.0,0.0,0.0,0.0,0.0,0.0,0.0,0.0,0.0,0.0,0.0,0.0,0.0,0.0,0.0,0.0,0.0,0.0,0.0,0.0,0.0,0.0,0.0,0.0,0.0,0.0,0.0,0.0,0.0,0.0,0.0,0.0,0.0,0.0,0.0,0.0,0.0,0.0,0.0,0.0,0.0,0.0,0.0,0.0,0.0,0.0,0.0,0.0,0.0,0.0,0.0,0.0,0.0,0.0,0.0,0.0,0.0,0.0,0.0,0.0,0.0,0.0,0.0,0.0,0.0,0.0,0.0,0.0,0.0,0.0,0.0,0.0,0.0,0.0,0.0,0.0,0.0,0.0,0.0,0.0,0.0,0.0,0.0,0.0,0.0,0.0,0.0,0.0,0.0,0.0,0.0,0.0,0.0,0.0,0.0,0.0,0.0,0.0,0.0,0.0,0.0,0.0,0.0,0.0,0.0,0.0,0.0,0.0,0.0,0.0,0.0,0.0,0.0,0.0,0.0,0.0,0.0,0.0,0.0,0.0,0.0,0.0,0.0,0.0,0.0,0.0,0.0,0.0,0.0,0.0,0.0,0.0,0.0,0.0,0.0,0.0,0.0,0.0,0.0,0.0,0.0,0.0,0.0,0.0,0.0,0.0,0.0,0.0,0.0,0.0,0.0,0.0,0.0,0.0,0.0,0.0,0.0,0.0,0.0,0.0,0.0,0.0,0.0,0.0,0.0,0.0,0.0,0.0,0.0,0.0,0.0,0.0,0.0,0.0,0.0,0.0,0.0,0.0,0.0,0.0,0.0,0.0,0.0,0.0,0.0,0.0,0.0,0.0,0.0,0.0,0.0,0.0,0.0,0.0,0.0,0.0,0.0,0.0,0.0,0.0,0.0,0.0,0.0,0.0,0.0,0.0,0.0,0.0,0.0,0.0,0.0,0.0,0.0,0.0,0.0,0.0,0.0,0.0,0.0,0.0,0.0,0.0,0.0,0.0,0.0,0.0,0.0,0.0,0.0,0.0,0.0,0.0,0.0,0.0,0.0,0.0,0.0,0.0,0.0,0.0,0.0,0.0,0.0,0.0,0.0,0.0,0.0,0.0,0.0,0.0,0.0,0.0,0.0,0.0,0.0,0.0,0.0,0.0,0.0,0.0,0.0,0.0,0.0,0.0,0.0,0.0,0.0,0.0,0.0,0.0,0.0,0.0,0.0,0.0,0.0,0.0,0.0,0.0,0.0,0.0,0.0,0.0,0.0,0.0,0.0,0.0,0.0,0.0,0.0,0.0,0.0,0.0,0.0,0.0,0.0,0.0,0.0,0.0,0.0,0.0,0.0,0.0,0.0,0.0,0.0,0.0,0.0,0.0,0.0,0.0,0.0,0.0,0.0,0.0,0.0,0.0,0.0,0.0,0.0,0.0,0.0,0.0,0.0,0.0,0.0,0.0,0.0,0.0,0.0,0.0,0.0,0.0,0.0,0.0,0.0,0.0,0.0,0.0,0.0,0.0,0.0,0.0,0.0,0.0,0.0,0.0,0.0,0.0,0.0,0.0,0.0,0.0,0.0,0.0,0.0,0.0,0.0,0.0,0.0,0.0,0.0,0.0,0.0,0.0,0.0,0.0,0.0,0.0,0.0,0.0,0.0,0.0,0.0,0.0,0.0,0.0,0.0,0.0,0.0,0.0,0.0,0.0,0.0,0.0,0.0,0.0,0.0,0.0,0.0,0.0,0.0,0.0,0.0,0.0,0.0,0.0,0.0,0.0,0.0,0.0,0.0,0.0,0.0,0.0,0.0,0.0,0.0,0.0,0.0,0.0,0.0,0.0,0.0,0.0,0.0,0.0,0.0,0.0,0.0,0.0,0.0,0.0,0.0,0.0,0.0,0.0,0.0,0.0,0.0,0.0,0.0,0.0,0.0,0.0,0.0,0.0,0.0,0.0,0.0,0.0,0.0,0.0,0.0,0.0,0.0,0.0,0.0,0.0,0.0,0.0,0.0,0.0,0.0,0.0,0.0,0.0,0.0,0.0,0.0,0.0,0.0,0.0,0.0,0.0,0.0,0.0,0.0,0.0,0.0,0.0,0.0,0.0,0.0,0.0,0.0,0.0,0.0,0.0,0.0,0.0,0.0,0.0,0.0,0.0,0.0,0.0,0.0,0.0,0.0,0.0,0.0,0.0,0.0,0.0,0.0,0.0,0.0,0.0,0.0,0.0,0.0,0.0,0.0,0.0,0.0,0.0,0.0,0.0,0.0,0.0,0.0,0.0,0.0,0.0,0.0,0.0,0.0,0.0,0.0,0.0,0.0,0.0,0.0,0.0,0.0,0.0,0.0,0.0,0.0,0.0,0.0,0.0,0.0,0.0,0.0,0.0,0.0,0.0,0.0,0.0,0.0,0.0,0.0,0.0,0.0,0.0,0.0,0.0,0.0,0.0,0.0,0.0,0.0,0.0,0.0,0.0,0.0,0.0,0.0,0.0,0.0,0.0,0.0,0.0,0.0,0.0,0.0,0.0,0.0,0.0,0.0,0.0,0.0,0.0,0.0,0.0,0.0,0.0,0.0,0.0,0.0,0.0,0.0,0.0,0.0,0.0,0.0,0.0,0.0,0.0,0.0,0.0,0.0,0.0,0.0,0.0,0.0,0.0,0.0,0.0,0.0,0.0,0.0,0.0,0.0,0.0,0.0,0.0,0.0,0.0,0.0,0.0,0.0,0.0,0.0,0.0,0.0,0.0,0.0,0.0,0.0,0.0,0.0,0.0,0.0,0.0,0.0,0.0,0.0,0.0,0.0,0.0,0.0,0.0,0.0,0.0,0.0,0.0,0.0,0.0,0.0,0.0,0.0,0.0,0.0,0.0,0.0,0.0,0.0,0.0,0.0,0.0,0.0,0.0,0.0,0.0,0.0,0.0,0.0,0.0,0.0,0.0,0.0,0.0,0.0,0.0,0.0,0.0,0.0,0.0,0.0,0.0,0.0,0.0,0.0,0.0,0.0,0.0,0.0,0.0,0.0,0.0,0.0,0.0,0.0,0.0,0.0,0.0,0.0,0.0,0.0,0.0,0.0,0.0,0.0,0.0,0.0,0.0,0.0,0.0,0.0,0.0,0.0,0.0,0.0,0.0,0.0,0.0,0.0,0.0,0.0,0.0,0.0,0.0,0.0,0.0,0.0,0.0,0.0,0.0,0.0,0.0,0.0,0.0,0.0,0.0,0.0,0.0,0.0,0.0,0.0,0.0,0.0,0.0,0.0,0.0,0.0,0.0,0.0,0.0,0.0,0.0,0.0,0.0,0.0,0.0,0.0,0.0,0.0,0.0,0.0,0.0,0.0,0.0,0.0,0.0,0.0,0.0,0.0,0.0,0.0,0.0,0.0,0.0,0.0,0.0,0.0,0.0,0.0,0.0,0.0,0.0,0.0,0.0,0.0,0.0,0.0,0.0,0.0,0.0,0.0,0.0,0.0,0.0,0.0,0.0,0.0,0.0,0.0,0.0,0.0,0.0,0.0,0.0,0.0,0.0,0.0,0.0,0.0,0.0,0.0,0.0,0.0,0.0,0.0,0.0,0.0,0.0,0.0,0.0,0.0,0.0,0.0,0.0,0.0,0.0,0.0,0.0,0.0,0.0,0.0,0.0,0.0,0.0,0.0,0.0,0.0,0.0,0.0,0.0,0.0,0.0,0.0,0.0,0.0,0.0,0.0,0.0,0.0,0.0,0.0,0.0,0.0,0.0,0.0,0.0,0.0,0.0,0.0,0.0,0.0,0.0,0.0,0.0,0.0,0.0,0.0,0.0,0.0,0.0,0.0,0.0,0.0,0.0,0.0,0.0,0.0,0.0,0.0,0.0,0.0,0.0,0.0,0.0,0.0,0.0,0.0,0.0,0.0,0.0,0.0,0.0,0.0,0.0,0.0,0.0,0.0,0.0,0.0,0.0,0.0,0.0,0.0,0.0,0.0,0.0,0.0,0.0,0.0,0.0,0.0,0.0,0.0,0.0,0.0,0.0,0.0,0.0,0.0,0.0,0.0,0.0,0.0,0.0,0.0,0.0,0.0,0.0,0.0,0.0,0.0,0.0,0.0,0.0,0.0,0.0,0.0,0.0,0.0,0.0,0.0,0.0,0.0,0.0,0.0,0.0,0.0,0.0,0.0,0.0,0.0,0.0,0.0,0.0,0.0,0.0,0.0,0.0,0.0,0.0,0.0,0.0,0.0,0.0,0.0,0.0,0.0,0.0,0.0,0.0,0.0,0.0,0.0,0.0,0.0,0.0,0.0,0.0,0.0,0.0,0.0,0.0,0.0,0.0,0.0,0.0,0.0,0.0,0.0,0.0,0.0,0.0,0.0,0.0,0.0,0.0,0.0,0.0,0.0,0.0,0.0,0.0,0.0,0.0,0.0,0.0,0.0,0.0,0.0,0.0,0.0,0.0,0.0,0.0,0.0,-3.486,0.0,0.0,0.0,0.0,0.0,0.0,0.0,0.0,0.0,0.0,0.0,0.0,0.0,0.0,0.0,0.0,0.0,0.0,0.0,0.0,0.0,0.0,0.0,0.0,0.0,0.0,0.0,0.0,0.0,0.0,0.0,0.0,0.0,0.0,0.0,0.0,0.0,0.0,0.0,-2.45,-2.4704,-2.5076,-2.4685,-2.45,-2.45,0.0,0.0,0.0,0.0,0.0,0.0,0.0,0.0,0.0,0.0,0.0,0.0,0.0,0.0,0.0,0.0,0.0,0.0,0.0,0.0,0.0,0.0,0.0,0.0,0.0,0.0,0.0,0.0,0.0,0.0,0.0,0.0,0.0,0.0,0.0,0.0,0.0,0.0,0.0,0.0,0.0,0.0,0.0,0.0,0.0,0.0,0.0,0.0,0.0,0.0,0.0,0.0,0.0,0.0,0.0,0.0,0.0,0.0,0.0,0.0,0.0,0.0,0.0,0.0,0.0,0.0,0.0,0.0,0.0,0.0,0.0,-3.5956,0.0,0.0,0.0,0.0,0.0,0.0,0.0,0.0,0.0,0.0,0.0,0.0,0.0,0.0,0.0,0.0,0.0,0.0,0.0,0.0,0.0,0.0,0.0,0.0,0.0,0.0,0.0,0.0,0.0,0.0,0.0,0.0,0.0,0.0,0.0,-2.4376,-2.4393,-2.4482,-2.4918,-2.5615,-2.6544,-2.6024,-2.5764,-2.5745,-2.5039,0.0,0.0,0.0,0.0,0.0,0.0,0.0,0.0,0.0,0.0,0.0,0.0,0.0,0.0,0.0,0.0,0.0,0.0,0.0,0.0,0.0,0.0,0.0,0.0,0.0,0.0,0.0,0.0,0.0,0.0,0.0,0.0,0.0,0.0,0.0,0.0,0.0,0.0,0.0,0.0,0.0,0.0,0.0,0.0,0.0,0.0,0.0,0.0,0.0,0.0,0.0,0.0,0.0,0.0,0.0,0.0,0.0,0.0,0.0,0.0,0.0,0.0,0.0,-3.6872,-3.7262,-3.7541,-3.7424,-3.7782,-3.8469,-3.7145,-3.6773,-3.7071,0.0,0.0,0.0,0.0,0.0,0.0,0.0,0.0,0.0,0.0,0.0,0.0,0.0,0.0,0.0,0.0,0.0,0.0,0.0,0.0,0.0,0.0,0.0,0.0,0.0,0.0,0.0,0.0,0.0,0.0,0.0,0.0,0.0,0.0,-2.422,-2.4284,-2.4412,-2.6562,-2.8412,-2.9973,-3.0567,-3.0846,-3.0679,-2.713,-2.6312,-2.7538,0.0,0.0,0.0,0.0,0.0,0.0,0.0,0.0,0.0,0.0,0.0,0.0,0.0,0.0,0.0,0.0,0.0,0.0,0.0,0.0,0.0,0.0,0.0,0.0,0.0,0.0,0.0,0.0,0.0,0.0,0.0,0.0,0.0,0.0,0.0,0.0,0.0,0.0,0.0,0.0,0.0,-3.3113,-3.3788,0.0,0.0,0.0,0.0,0.0,0.0,0.0,0.0,0.0,0.0,0.0,0.0,0.0,-3.4179,-3.6352,-3.6495,-3.7628,-3.9765,-3.9082,-3.9547,-4.0921,-4.0215,-4.0346,-4.1089,-4.0884,0.0,-3.8785,-3.8674,0.0,0.0,0.0,0.0,0.0,0.0,0.0,0.0,0.0,0.0,0.0,0.0,0.0,0.0,0.0,0.0,0.0,0.0,0.0,0.0,0.0,0.0,0.0,0.0,0.0,0.0,0.0,0.0,0.0,0.0,0.0,-2.419,-2.4201,-2.4201,-2.4958,-2.6486,-2.8957,-3.1013,-3.263,-3.2983,-3.341,-3.38,-3.2017,-3.0326,-2.8783,-2.8077,0.0,0.0,0.0,0.0,0.0,0.0,0.0,0.0,0.0,0.0,0.0,0.0,0.0,0.0,0.0,0.0,0.0,0.0,0.0,0.0,0.0,0.0,0.0,0.0,0.0,0.0,0.0,0.0,0.0,0.0,0.0,0.0,0.0,0.0,0.0,0.0,0.0,0.0,0.0,-3.3057,-3.3287,-3.4104,-3.3788,-3.3696,0.0,0.0,0.0,0.0,0.0,0.0,0.0,0.0,0.0,-3.559,-3.6129,-3.7188,-3.8762,-3.9677,-4.0661,-4.1739,-4.1813,-4.224,-4.2946,-4.2575,-4.2612,-4.2946,-4.2946,-4.2277,-4.107,-3.9677,-3.9101,-3.9064,0.0,0.0,0.0,0.0,-3.9101,-3.9101,0.0,0.0,0.0,0.0,0.0,0.0,0.0,0.0,0.0,0.0,0.0,0.0,0.0,0.0,0.0,-2.5126,0.0,0.0,0.0,0.0,0.0,0.0,0.0,-2.4209,-2.4201,-2.4817,-2.6608,-2.9581,-3.1851,-3.3907,-3.5751,-3.5955,-3.6432,-3.7071,-3.7071,-3.4897,-3.1199,-3.014,-2.8876,-2.7445,0.0,0.0,0.0,0.0,0.0,0.0,0.0,0.0,0.0,0.0,0.0,0.0,0.0,0.0,0.0,0.0,0.0,0.0,0.0,0.0,0.0,0.0,0.0,0.0,0.0,0.0,0.0,0.0,0.0,0.0,0.0,0.0,0.0,0.0,0.0,0.0,0.0,-3.3881,-3.3782,-3.416,-3.3875,-3.3788,0.0,0.0,0.0,0.0,0.0,0.0,-3.5182,-3.6742,-3.7665,-3.7665,-3.9008,-4.0253,-4.1311,-4.25,-4.3429,-4.4061,-4.4451,-4.4859,-4.5249,-4.5045,-4.4952,-4.4952,-4.4952,-4.4376,-4.3262,-4.0977,-3.9937,-3.9677,-3.9082,-3.9212,-3.9733,-3.9733,-3.9733,-3.9733,0.0,0.0,0.0,0.0,0.0,0.0,0.0,0.0,0.0,0.0,0.0,0.0,0.0,0.0,-2.7633,-2.7633,-2.7669,-2.7328,0.0,0.0,0.0,-2.419,-2.419,-2.419,-2.4199,-2.6499,-2.9642,-3.3613,-3.5324,-3.7442,-3.9933,-4.0748,-4.1182,-4.1293,-4.1293,-3.9435,-3.6086,-3.2184,-3.1348,-3.2165,-2.6749,0.0,0.0,0.0,0.0,0.0,0.0,0.0,0.0,0.0,0.0,0.0,0.0,0.0,0.0,0.0,0.0,0.0,0.0,0.0,0.0,0.0,0.0,0.0,0.0,0.0,0.0,0.0,0.0,0.0,0.0,0.0,0.0,0.0,0.0,0.0,0.0,0.0,0.0,-3.429,-3.4897,0.0,0.0,0.0,0.0,-3.5436,-3.6904,-3.7764,-3.7708,-3.9287,-4.0211,-4.0211,-4.1033,-4.2222,-4.3801,-4.3893,-4.5119,-4.7441,-4.6717,-4.7163,-4.863,-4.7868,-4.7516,-4.7516,-4.7516,-4.6624,-4.5026,-4.3318,-4.2166,-4.146,-4.1423,-4.1441,-4.146,-4.146,-4.146,-4.146,0.0,0.0,0.0,0.0,0.0,0.0,0.0,0.0,0.0,0.0,0.0,0.0,0.0,-2.7915,-2.8998,-3.0038,-2.9163,-2.8227,-2.742,0.0,0.0,-2.4226,-2.4695,-2.5695,-2.7262,-2.9214,-3.1943,-3.5515,-3.8315,-4.0422,-4.1841,-4.2656,-4.3061,-4.3092,-4.3092,-4.2443,-4.1071,-3.7026,-3.3819,-3.1273,-2.9229,-2.7984,0.0,0.0,0.0,0.0,0.0,0.0,0.0,0.0,0.0,0.0,0.0,0.0,0.0,0.0,0.0,0.0,0.0,0.0,0.0,0.0,0.0,0.0,0.0,0.0,0.0,0.0,0.0,0.0,0.0,0.0,0.0,0.0,0.0,0.0,0.0,0.0,0.0,-3.7206,-3.7634,0.0,-3.8172,-3.8483,-3.865,-3.865,-3.9658,-4.0271,-4.0271,-4.1832,-4.2723,-4.2723,-4.4042,-4.5268,-4.6364,-4.6884,-4.7608,-4.8481,-4.8184,-4.8333,-4.889,-4.8612,-4.8481,-4.8481,-4.8481,-4.785,-4.6791,-4.6197,-4.4841,-4.3132,-4.3132,-4.3132,-4.3132,-4.3132,-4.2816,-4.237,0.0,0.0,0.0,0.0,0.0,0.0,0.0,0.0,0.0,0.0,0.0,-2.6219,-2.8374,-2.9567,-3.0968,-3.2902,-3.1311,-2.9757,-2.8686,0.0,0.0,-2.4245,-2.5485,-2.7339,-2.9769,-3.1985,-3.4862,-3.8397,-4.0917,-4.2749,-4.3855,-4.4391,-4.4648,-4.4681,-4.4696,-4.4564,-4.4119,-4.1505,-3.7875,-3.3707,-3.1496,-3.0437,-2.9991,0.0,0.0,0.0,0.0,0.0,0.0,0.0,0.0,0.0,0.0,0.0,0.0,0.0,0.0,0.0,0.0,0.0,0.0,0.0,0.0,0.0,0.0,0.0,0.0,0.0,0.0,0.0,0.0,0.0,0.0,0.0,0.0,0.0,0.0,0.0,-3.7758,-3.9342,-4.0011,-4.0476,-4.0773,-4.1051,-4.12,-4.12,-4.2222,-4.2835,-4.2835,-4.4376,-4.5249,-4.5249,-4.6587,-4.7571,-4.8091,-4.863,-4.8909,-4.8909,-4.8909,-4.8909,-4.8909,-4.8909,-4.8909,-4.8909,-4.8909,-4.8612,-4.8091,-4.8091,-4.7144,-4.5602,-4.5064,-4.4841,-4.4804,-4.4544,-4.4098,-4.3596,0.0,0.0,0.0,0.0,0.0,0.0,0.0,0.0,0.0,0.0,-2.4934,-2.6696,-2.9898,-3.1702,-3.366,-3.6119,-3.4027,-3.1885,-3.0301,-2.7155,0.0,-2.4337,-2.6594,-2.9028,-3.1507,-3.4743,-3.8358,-4.2341,-4.3184,-4.4448,-4.6101,-4.6101,-4.6118,-4.6206,-4.6272,-4.5879,-4.5175,-4.5291,-4.3503,-4.0062,-3.354,-3.3206,-3.603,0.0,0.0,0.0,0.0,0.0,0.0,0.0,0.0,0.0,0.0,0.0,0.0,0.0,0.0,0.0,0.0,0.0,0.0,0.0,0.0,0.0,0.0,0.0,0.0,0.0,0.0,0.0,0.0,0.0,0.0,0.0,0.0,0.0,-3.6829,-3.8929,-4.0508,-4.0583,-4.198,-4.2649,-4.1869,-4.25,-4.2946,-4.2946,-4.4451,-4.5379,-4.5398,-4.6903,-4.7757,-4.7738,-4.8519,-4.8927,-4.8909,-4.8909,-4.8909,-4.8909,-4.8909,-4.8909,-4.8909,-4.8909,-4.8909,-4.8909,-4.8909,-4.8909,-4.8909,-4.8909,-4.8909,-4.876,-4.7181,-4.6568,-4.6475,-4.5695,-4.5379,-4.5212,0.0,0.0,0.0,0.0,0.0,0.0,0.0,0.0,0.0,0.0,-2.5548,-2.8147,-3.0791,-3.3023,-3.5096,-3.7015,-3.3839,-3.1292,-3.0265,0.0,-2.5209,-2.6741,-2.8558,-3.1237,-3.4871,-3.7551,-4.0304,-4.3167,-4.4651,-4.5623,-4.6101,-4.6101,-4.61,-4.6118,-4.6205,-4.6424,-4.6737,-4.6335,-4.5992,-4.5231,-3.9863,-3.6569,-3.4773,0.0,0.0,0.0,0.0,0.0,0.0,0.0,0.0,0.0,0.0,0.0,0.0,0.0,0.0,0.0,0.0,0.0,0.0,0.0,0.0,0.0,0.0,0.0,0.0,0.0,0.0,0.0,0.0,0.0,0.0,0.0,0.0,-3.9394,-3.9394,-4.0958,-4.2816,-4.4599,-4.5732,-4.6271,-4.6048,-4.6215,-4.6345,-4.6345,-4.6773,-4.7293,-4.7887,-4.889,-4.9169,-4.8593,-4.9355,-4.9503,-4.8909,-4.8909,-4.8909,-4.8909,-4.8909,-4.8909,-4.8909,-4.8909,-4.8909,-4.8909,-4.8909,-4.8909,-4.8909,-4.8909,-4.8909,-4.8872,-4.8407,-4.824,-4.8203,-4.7999,-4.7163,-4.5955,0.0,0.0,0.0,0.0,0.0,0.0,0.0,0.0,0.0,0.0,-2.6007,-2.8716,-3.114,-3.2963,-3.4656,-3.6303,-3.3054,-3.0411,-2.9274,0.0,-2.6282,-2.8705,-3.0986,-3.3972,-3.7734,-4.0157,-4.258,-4.5021,-4.6011,-4.6691,-4.7022,-4.7077,-4.7114,-4.7095,-4.722,-4.755,-4.7957,-4.765,-4.7571,-4.746,-4.4599,-4.1813,-3.9138,-3.7225,-3.6272,-3.5733,-3.4358,-3.4246,-3.4562,-3.3243,0.0,0.0,0.0,0.0,0.0,0.0,0.0,0.0,0.0,0.0,0.0,0.0,0.0,0.0,0.0,0.0,0.0,0.0,0.0,0.0,0.0,0.0,0.0,0.0,-4.0327,-4.1757,-4.2797,-4.3763,-4.5008,-4.6791,-4.8017,-4.8723,-4.8742,-4.9057,-4.9243,-4.9243,-4.8909,-4.8909,-4.9392,-4.954,-4.9392,-4.8909,-4.9355,-4.9373,-4.8909,-4.8909,-4.8909,-4.8909,-4.8909,-4.8909,-4.8909,-4.8909,-4.8909,0.0,-4.8909,-4.8909,-4.8909,-4.8909,-4.8909,0.0,0.0,0.0,0.0,0.0,-4.6568,-4.5305,0.0,0.0,0.0,0.0,0.0,0.0,0.0,0.0,0.0,0.0,0.0,-2.8503,-3.0754,-3.1788,-3.2931,-3.4454,-3.1812,-2.9457,0.0,-2.7438,-2.8264,-3.0779,-3.3977,-3.7132,-4.0246,-4.2671,-4.4966,-4.7094,-4.7223,-4.7609,-4.8343,-4.8457,-4.8513,-4.8513,-4.8715,-4.8787,-4.8804,-4.8874,-4.85,-4.785,-4.785,-4.7237,-4.5807,-4.068,-3.9974,-4.133,-3.8334,-3.6848,-3.6179,-3.5219,0.0,0.0,0.0,0.0,0.0,0.0,0.0,0.0,0.0,0.0,0.0,0.0,0.0,0.0,0.0,0.0,0.0,0.0,0.0,0.0,0.0,0.0,0.0,0.0,-4.224,-4.4191,-4.6587,-4.6995,-4.7274,-4.7906,-4.9317,-5.0283,-5.032,-5.0971,-5.1398,-5.1398,-5.0692,-5.0209,-5.0116,0.0,0.0,0.0,0.0,-4.9002,-4.8909,-4.8909,-4.8909,-4.8909,-4.8909,-4.8909,-4.8909,-4.8909,-4.8909,-4.8909,-4.8909,-4.8909,-4.8909,-4.8909,-4.8834,-4.8667,-4.8054,-4.7848,-4.7644,-4.6027,-4.495,-4.4262,0.0,0.0,0.0,0.0,0.0,0.0,0.0,0.0,0.0,-2.3318,-2.5318,-2.7255,-2.8356,-2.9787,-3.1054,-3.2008,-3.0338,-2.9097,-2.8785,-2.9843,-3.1861,-3.4981,-3.8196,-4.0836,-4.2762,-4.5168,-4.6636,-4.7094,-4.7868,-4.831,-4.8457,-4.8532,-4.8587,-4.8587,-4.8732,-4.8787,-4.8804,-4.8874,-4.8816,-4.8667,-4.8667,-4.7404,-4.5398,-4.4283,-4.3318,-4.2389,-4.1107,-4.0958,-4.1163,-3.9695,-3.9542,-3.9547,-3.7392,-3.5237,0.0,0.0,0.0,0.0,0.0,0.0,0.0,0.0,0.0,0.0,0.0,0.0,0.0,0.0,0.0,0.0,0.0,0.0,0.0,-4.2909,-4.5231,-4.7386,-4.9224,-5.0042,-5.0246,-4.9707,-5.0525,-5.1156,-5.1175,-5.1305,-5.1398,-5.1398,-5.1249,-5.0841,-5.0153,-5.0618,0.0,-4.8946,-4.9577,-4.9615,-4.8909,-4.8909,-4.8909,-4.8909,0.0,0.0,-4.8909,-4.8909,-4.8909,-4.8909,-4.8909,-4.8909,-4.8909,-4.8909,-4.839,-4.7684,-4.8384,-4.866,-4.8474,-4.6871,-4.6164,-4.5813,0.0,0.0,0.0,0.0,0.0,0.0,0.0,0.0,0.0,0.0,-2.5346,-2.6759,-2.7163,-2.8282,-2.8998,-2.8998,-2.7897,-2.7548,-2.8356,-3.0668,-3.3825,-3.7918,-4.0414,-4.2837,-4.5259,-4.647,-4.7315,-4.7794,-4.8273,-4.8513,-4.855,-4.866,-4.8715,-4.8715,-4.8804,-4.8839,-4.8839,-4.8891,-4.8909,-4.8909,-4.8909,-4.8184,-4.7051,-4.6643,-4.5974,-4.5157,-4.4339,-4.3763,-4.328,-4.2463,-4.1924,-4.1367,-4.0141,-3.8042,-3.5739,0.0,0.0,0.0,0.0,0.0,0.0,0.0,0.0,0.0,0.0,0.0,0.0,0.0,0.0,-3.7684,0.0,0.0,-4.2872,-4.4915,-4.6977,-4.8723,-4.9986,-5.1231,-5.1695,-5.0859,-5.1491,-5.1992,-5.1992,-5.2364,-5.2438,-5.2029,-5.1992,-5.1454,-5.0228,-5.0525,-5.019,-4.8946,-4.9317,-4.9336,-4.8909,-4.8909,-4.8909,-4.8909,-4.8909,-4.9113,-4.9503,-4.9076,-4.9132,-4.9485,-4.9076,-4.8909,-4.8909,-4.8909,-4.8576,-4.8149,-4.8697,-4.7899,-4.6345,-4.5547,-4.5263,-4.513,0.0,0.0,0.0,0.0,0.0,0.0,0.0,0.0,0.0,0.0,-2.5328,-2.6135,-2.6135,-2.6704,-2.6888,0.0,0.0,-2.6678,-2.8613,-3.1623,-3.5495,-4.0377,-4.2139,-4.436,-4.7259,-4.7333,-4.7701,-4.8457,-4.8494,-4.8532,-4.8605,-4.8732,-4.8804,-4.8822,-4.8874,-4.8909,-4.8909,-4.8909,-4.8909,-4.8909,-4.8909,-4.8909,-4.8834,-4.8184,-4.7924,-4.7813,-4.6828,-4.5324,-4.3782,-4.3949,-4.2835,-4.1423,-4.172,-4.0253,-3.8005,-3.6067,-3.4321,0.0,0.0,0.0,0.0,0.0,0.0,0.0,0.0,0.0,-3.5572,-3.7108,-3.8692,-4.0271,-4.1794,-4.3522,-4.5212,-4.6717,-4.8463,-4.9856,-5.0506,-5.1881,-5.2531,-5.1732,-5.2345,-5.2828,-5.2828,-5.3292,-5.3367,-5.2865,-5.2549,-5.1806,-5.0506,-5.0228,-4.9745,-4.8927,-4.8909,-4.8909,-4.8909,-4.8909,-4.8909,-4.8909,-4.8909,-4.9243,-4.9837,-4.9206,-4.9262,-4.9837,-4.9187,-4.8909,-4.8909,-4.8909,-4.8909,-4.889,-4.8902,-4.727,-4.4872,-4.4246,-4.3998,-4.4005,0.0,0.0,0.0,0.0,0.0,0.0,0.0,0.0,0.0,0.0,0.0,0.0,0.0,0.0,0.0,0.0,-2.677,-2.8815,-3.1849,-3.4468,-3.8028,-4.289,-4.4635,-4.6324,-4.8141,-4.8177,-4.8214,-4.8306,-4.8438,-4.8532,-4.8605,-4.8732,-4.884,-4.8891,-4.8909,-4.8909,-4.8909,-4.8909,-4.8909,-4.8909,-4.8909,-4.8909,-4.889,-4.8797,-4.8779,-4.8574,-4.7051,-4.4952,-4.3039,-4.3763,-4.2463,-4.0773,-4.2222,-4.1479,-3.9524,-3.642,-3.4321,-3.2481,-3.0065,-2.9991,-3.1143,-3.3373,-3.3993,-3.4847,0.0,0.0,-3.8822,-3.9802,-4.1256,-4.2667,-4.3578,-4.5677,-4.7571,-4.8481,-5.0636,-5.2215,-5.2308,-5.3107,-5.3367,-5.2568,-5.3181,-5.3683,-5.3683,-5.3107,-5.2995,-5.3627,-5.2345,-5.1454,-5.1286,-5.0525,-4.9745,-4.8927,-4.8909,-4.8909,-4.8909,-4.8909,-4.8909,-4.8909,-4.8909,-4.8946,-4.9039,-4.8946,-4.8946,-4.9039,-4.8946,-4.8909,-4.8909,-4.8909,-4.8909,-4.889,-4.8902,-4.8677,-4.7992,-4.5092,-4.3998,-4.4005,0.0,0.0,0.0,0.0,0.0,0.0,0.0,0.0,0.0,0.0,0.0,0.0,0.0,0.0,0.0,-2.4006,-2.5466,-2.778,-3.0986,-3.3935,-3.7918,-4.3276,-4.5039,-4.6673,-4.8382,-4.8419,-4.8457,-4.8587,-4.8642,-4.8697,-4.8785,-4.8839,-4.8874,-4.8909,-4.8909,-4.8909,-4.8909,-4.8909,-4.8909,-4.8909,-4.8909,-4.8909,-4.8797,-4.7868,-4.6605,-4.5268,-4.4581,-4.2742,0.0,-4.0494,-3.977,-3.9231,-4.0884,-4.0271,-3.8488,-3.6179,-3.4637,-3.328,-3.1329,-3.1738,-3.2946,0.0,-3.5646,-3.7541,-3.9417,-4.0215,-4.0921,-4.2222,-4.3801,-4.5194,-4.5992,-4.7386,-4.8667,0.0,-5.0896,-5.1899,-5.1899,-5.2197,-5.2085,-5.1249,-5.1026,-5.1342,-5.2308,-5.2104,-5.2048,-5.2382,-5.2215,-5.1676,-5.0711,-5.1231,-5.0748,-4.8964,-4.9355,-4.9373,-4.8909,-4.8909,-4.8909,-4.8909,-4.8909,-4.915,-4.9577,-4.9113,-4.8909,-4.8909,-4.8909,-4.8909,-4.8909,-4.8909,-4.8909,-4.8909,-4.8906,-4.7722,-4.5875,-4.4506,-4.4003,-4.3998,0.0,0.0,0.0,0.0,0.0,0.0,0.0,0.0,0.0,0.0,0.0,0.0,0.0,0.0,0.0,-2.3373,-2.4603,-2.6678,-2.9666,-3.2674,-3.6784,-4.2268,-4.425,-4.6158,-4.8126,-4.8402,-4.8569,-4.8732,-4.8732,-4.8786,-4.8874,-4.8874,-4.8891,-4.8909,-4.8909,-4.8909,-4.8909,-4.8909,-4.8909,-4.8909,-4.8909,-4.863,-4.8036,-4.6178,-4.3801,-4.1441,-4.1441,-3.9565,-3.7002,-3.6408,-3.6073,-3.6216,-3.8098,-3.8018,-3.6946,-3.5535,-3.4228,-3.3001,-3.2072,-3.315,-3.4729,-3.5386,-3.7856,-4.0401,-4.1497,-4.237,-4.3355,-4.4729,-4.5992,-4.707,-4.7887,-4.8333,-4.8983,-5.0246,-5.0785,-5.1286,-5.1974,-5.1472,-5.0822,-5.0209,-4.9206,-4.8964,-4.9949,-5.045,-5.0896,-5.1361,-5.1714,-5.1491,-5.0506,-5.1621,-5.1454,-4.9652,-4.993,-4.9819,-4.9243,-4.902,-4.902,-4.9243,-4.9021,-4.9374,-5.0209,-4.9317,-4.8909,-4.8909,-4.8909,-4.8909,-4.8909,-4.8909,-4.8909,-4.8909,-4.8889,-4.7463,-4.5232,-4.4323,-4.3987,-4.4,0.0,0.0,0.0,0.0,0.0,0.0,0.0,0.0,0.0,0.0,0.0,0.0,0.0,0.0,-2.419,-2.4171,-2.4915,-2.6439,-2.8877,-3.1317,-3.4871,-3.979,-4.2286,-4.4743,-4.7279,-4.8108,-4.8532,-4.8605,-4.8605,-4.8678,-4.8804,-4.8804,-4.884,-4.8909,-4.8909,-4.8909,-4.8909,-4.8909,-4.8909,-4.8909,-4.8909,-4.798,-4.629,-4.3856,-4.0884,-3.8042,-3.8042,-3.5442,-3.2017,-3.1998,-3.1478,-3.1236,-3.3621,-3.4922,0.0,-3.4494,-3.2555,-3.0864,0.0,0.0,-3.603,-3.8377,-4.0828,-4.3113,-4.4766,-4.5769,-4.6587,-4.7423,-4.7627,-4.7906,-4.8723,-4.8259,-4.8537,-5.0971,-5.0673,-5.0989,-5.3404,-5.1658,-5.0153,-5.019,-4.8742,-4.746,0.0,-4.8054,-4.9652,-5.1286,-5.0636,-5.0525,-5.1323,-5.1416,-5.1398,-5.1323,-5.0525,-5.0098,-5.006,-4.9299,-4.9299,-5.006,-4.9266,-4.9488,-5.0542,-4.9428,-4.8909,-4.8909,-4.8909,-4.8909,-4.8909,-4.8909,-4.8909,-4.889,-4.8902,-4.8844,-4.8362,-4.5166,-4.4,-4.4005,0.0,0.0,0.0,0.0,0.0,0.0,0.0,0.0,0.0,0.0,0.0,0.0,0.0,0.0,0.0,0.0,-2.4456,-2.5621,-2.8044,-3.0018,-3.2752,-3.6544,-3.9108,-4.1378,-4.3338,-4.4742,-4.5773,-4.6411,-4.6949,-4.7244,-4.7278,-4.7278,-4.7278,-4.733,-4.7868,-4.8091,-4.8147,-4.8667,-4.8277,-4.7256,-4.6735,-4.5509,-4.3726,-4.0698,-3.7503,-3.4439,0.0,-3.0995,-2.9174,-2.8114,-2.7929,-2.8374,-2.9731,0.0,0.0,-3.1571,0.0,0.0,0.0,0.0,-3.9208,-4.1089,-4.341,-4.5547,-4.6643,-4.7107,-4.7367,-4.7646,-4.6401,-4.5324,-4.5602,-4.5435,-4.6067,-4.8537,-4.915,-4.9986,-5.1936,-5.0525,-4.8927,-4.7868,-4.6773,0.0,0.0,0.0,0.0,-4.9615,-4.9466,-4.993,-5.1323,-5.1918,-5.1955,-5.1416,-5.1639,-5.1509,-5.0971,-5.0692,-5.0525,-5.0434,-5.0506,-5.0172,-4.9451,-4.9077,-4.8909,-4.8909,-4.8909,-4.8909,-4.8909,-4.8909,-4.8909,-4.913,-5.1296,-5.2148,-5.1736,-4.8458,-4.681,-4.5985,0.0,0.0,0.0,0.0,0.0,0.0,0.0,0.0,0.0,0.0,0.0,0.0,0.0,0.0,0.0,0.0,0.0,-2.5049,-2.6882,-2.825,-3.0299,-3.3261,-3.5492,-3.7474,-3.9178,-4.0567,-4.1575,-4.2222,-4.302,-4.3429,-4.3429,-4.3726,-4.4023,-4.4339,-4.4859,-4.5417,-4.5955,-4.6197,-4.5695,-4.4655,-4.3522,-4.1924,-3.9825,-3.6551,-3.3615,0.0,-2.8523,-2.7288,-2.6665,-2.5615,-2.5615,-2.6219,-2.7334,0.0,0.0,0.0,0.0,0.0,0.0,-3.9807,-4.2073,-4.3708,-4.5751,-4.7423,-4.7646,-4.7701,-4.746,-4.6568,-4.4878,-4.3485,-4.3206,-4.2649,-4.315,-4.5937,-4.6327,-4.7274,-5.0116,-4.8834,-4.7553,-4.7386,-4.6382,-4.5732,0.0,0.0,0.0,-4.837,-4.9299,-5.0265,-5.1342,-5.2438,-5.2791,-5.2271,-5.2475,-5.2308,-5.1677,-5.1324,-5.0749,-5.0027,-5.1527,-5.108,-4.8897,-4.8911,-4.8909,-4.8909,-4.8909,-4.8909,-4.8909,-4.8909,-4.9593,-5.0871,-5.2971,-5.3453,-5.2668,-5.0371,-4.8571,-4.7024,0.0,0.0,0.0,0.0,0.0,0.0,0.0,0.0,0.0,0.0,0.0,0.0,0.0,0.0,0.0,0.0,0.0,0.0,-2.5495,-2.6194,-2.7621,-2.9973,-3.1599,-3.3264,-3.4962,-3.5827,-3.6348,-3.6513,-3.7318,-3.7721,-3.774,-3.8488,-3.9301,-4.01,-4.0137,-4.0996,-4.237,-4.1664,-4.1293,-4.107,-3.9435,-3.7355,-3.4897,-3.1738,-2.9508,-2.7743,-2.5448,-2.4574,-2.4518,0.0,0.0,0.0,0.0,0.0,0.0,0.0,0.0,-3.7442,-3.997,-4.237,-4.4581,-4.6215,-4.7776,-4.8686,-4.7831,-4.7571,-4.6828,-4.4376,-4.3132,-4.224,0.0,0.0,-4.0104,-4.3355,-4.2705,-4.3448,-4.824,-4.6921,-4.6308,0.0,0.0,0.0,0.0,0.0,0.0,-4.7701,0.0,-5.1305,-5.1398,-5.2902,-5.3775,-5.3813,-5.307,-5.2531,-5.2289,-5.1269,-5.0213,-4.9196,-5.214,-5.1916,-4.8897,-4.8911,-4.8909,-4.8909,-4.8909,-4.8909,-4.8909,-4.8909,-5.0742,-5.3548,-5.3641,-5.2727,-5.1314,-5.0781,-4.9221,-4.7192,0.0,0.0,0.0,0.0,0.0,0.0,0.0,0.0,0.0,0.0,0.0,0.0,0.0,0.0,0.0,0.0,0.0,0.0,-2.4912,-2.5691,-2.6381,-2.6916,-2.8536,-2.9893,-3.0869,-3.2279,-3.3312,-3.3937,-3.4748,-3.5218,-3.5376,-3.5411,-3.5647,-3.6017,-3.6527,-3.6978,-3.7387,-3.7777,-3.7225,-3.5999,-3.4959,-3.3466,-3.1682,-3.0251,-2.8672,-2.713,-2.6498,-2.5522,0.0,0.0,0.0,0.0,0.0,-3.105,-3.3224,0.0,0.0,-4.0137,-4.3206,-4.5379,-4.6995,-4.8036,-4.8612,-4.8537,-4.7125,-4.5844,-4.4413,-4.2593,-4.0085,-3.8191,0.0,0.0,0.0,-4.1776,-4.341,0.0,-4.8481,-4.837,0.0,-4.7999,0.0,-4.7813,-4.6624,-4.7571,0.0,0.0,-4.9187,-5.0079,-5.1323,-5.2364,-5.3181,-5.3775,-5.3608,-5.346,-5.3385,-5.3125,-5.2847,-5.2531,-5.0916,-4.9712,-4.8897,-4.8911,-4.8909,-4.8909,-4.8909,-4.8909,-4.8909,-4.8909,-4.9389,-5.026,-5.1504,-5.1523,-5.0762,-5.043,-4.9539,-4.8276,0.0,0.0,0.0,0.0,0.0,0.0,0.0,0.0,0.0,0.0,0.0,0.0,0.0,0.0,0.0,0.0,0.0,0.0,0.0,-2.5227,-2.5439,-2.5354,-2.6263,-2.6945,-2.7326,-2.8231,-2.8882,-2.9266,-3.0084,-3.0528,-3.063,-3.0889,-3.1243,-3.1702,-3.2069,-3.2667,-3.3354,-3.3529,-3.303,0.0,0.0,-2.9679,-2.8568,-2.7997,-2.7233,-2.645,-2.6395,-2.6238,0.0,0.0,0.0,-3.118,-3.2388,-3.4358,-3.6742,-3.9305,0.0,-4.3169,-4.6085,-4.7534,-4.8426,-4.9243,-4.8909,-4.785,-4.5862,-4.4135,-4.2184,-3.9472,-3.7461,0.0,-3.52,-3.6328,0.0,0.0,0.0,0.0,-4.6977,-4.7924,-4.8481,0.0,-4.9485,0.0,-4.8742,-4.9466,-5.0005,0.0,-5.0005,-5.0562,-5.1862,-5.2698,-5.333,-5.3794,-5.3813,-5.3813,-5.3813,-5.3813,-5.3814,-5.3758,-5.0472,-4.8899,-4.8895,-4.891,-4.8909,-4.8909,0.0,-4.8909,-4.8909,-4.8909,-4.9483,-5.0393,-5.0875,-5.1006,-5.0933,-5.0766,-4.9949,-4.889,0.0,0.0,0.0,0.0,0.0,0.0,0.0,0.0,0.0,0.0,0.0,0.0,0.0,0.0,0.0,0.0,0.0,0.0,0.0,0.0,0.0,-2.4836,-2.4843,-2.4806,-2.4738,-2.4738,-2.4668,-2.4549,-2.5257,-2.5593,-2.5611,-2.6284,-2.6981,-2.7642,-2.7622,-2.843,-2.9741,-2.9166,-2.8933,-2.883,-2.747,-2.661,-2.6109,0.0,0.0,-2.6045,-2.591,0.0,0.0,0.0,-3.2072,-3.38,-3.5584,-3.826,-4.107,-4.2909,-4.4469,-4.6122,-4.8426,-4.9076,-4.9243,-4.993,-4.8816,-4.6865,-4.4265,-4.2352,-3.9974,-3.5993,0.0,-3.4729,-3.328,-3.4952,-3.6872,-3.7894,0.0,-4.25,-4.5101,-4.6754,-4.8296,-4.9912,-5.0878,-5.1398,-5.1398,-5.1491,-5.1565,-5.1565,-5.1565,-5.1862,-5.2568,-5.3367,-5.3813,-5.3813,-5.3813,-5.3813,-5.3813,-5.3813,-5.3795,-5.3757,-5.0472,-4.8898,-4.8909,-4.8909,-4.8909,-4.8909,0.0,0.0,-4.8909,-4.8909,-5.0022,-5.1675,-5.0728,-5.0654,-5.1063,-5.1063,-5.0153,-4.9094,0.0,0.0,0.0,0.0,0.0,0.0,0.0,0.0,0.0,0.0,-2.259,-2.2983,0.0,0.0,0.0,0.0,0.0,0.0,0.0,0.0,0.0,0.0,-2.5057,-2.4987,-2.4867,0.0,0.0,0.0,0.0,-2.5033,-2.5052,-2.5061,-2.5166,-2.5289,-2.5174,-2.5299,-2.554,-2.5418,-2.5458,-2.5582,-2.5963,-2.6148,-2.6337,-2.7661,0.0,0.0,0.0,0.0,0.0,0.0,-3.4135,-3.6476,-3.8817,-4.0847,-4.2965,-4.5974,-4.7051,-4.7664,-4.9429,-4.993,-4.9986,-5.0079,-4.8389,-4.5881,-4.2723,-4.0197,0.0,0.0,-3.3429,-3.3336,-3.3045,-3.4488,-3.642,-3.8544,-4.042,-4.2705,-4.5844,-4.7107,-4.8296,0.0,-5.0878,-5.1398,0.0,0.0,0.0,0.0,0.0,-5.2457,-5.2587,-5.3367,-5.3813,-5.3813,-5.3813,-5.3813,-5.3813,-5.3813,-5.3795,-5.3757,-5.0472,-4.8898,-4.8909,-4.8909,-4.8909,-4.8909,-4.8909,0.0,-4.8909,-4.8909,-4.9132,-4.9465,-4.9262,-4.9243,-4.9336,-4.9336,-4.915,-4.8853,0.0,0.0,0.0,0.0,0.0,0.0,0.0,-2.1417,-2.1876,-2.3203,-2.3351,-2.3454,-2.382,-2.4626,-2.5164,0.0,0.0,0.0,0.0,0.0,0.0,0.0,0.0,0.0,0.0,0.0,0.0,0.0,0.0,0.0,0.0,0.0,0.0,0.0,0.0,0.0,-2.4626,-2.5055,-2.533,-2.5548,-2.6359,0.0,0.0,0.0,0.0,0.0,0.0,0.0,0.0,0.0,-3.4157,-3.6746,-3.9998,-4.2426,-4.4488,-4.6494,-4.7664,-4.8686,-5.0339,-5.0469,-5.0246,-5.0673,-4.798,-4.4451,-4.1609,0.0,0.0,0.0,-3.1756,-3.1886,-3.2295,-3.4098,0.0,-3.8154,-3.9881,-4.1962,-4.4804,-4.6271,0.0,-4.9875,-5.1249,-5.2197,0.0,0.0,0.0,0.0,0.0,-5.3218,-5.3218,-5.359,-5.3813,-5.3813,-5.3813,-5.3813,-5.3813,-5.3813,-5.3795,-5.3758,-5.0472,-4.8899,-4.8895,-4.891,-4.8909,-4.8909,-4.8909,0.0,-4.8909,-4.8909,-4.915,-4.9485,-4.9057,-4.9169,-4.9466,-4.9057,-4.8909,-4.8909,0.0,0.0,0.0,0.0,0.0,0.0,0.0,-2.2024,-2.2729,-2.4096,-2.4446,-2.4484,-2.4298,-2.4884,-2.5311,0.0,0.0,0.0,0.0,0.0,0.0,0.0,0.0,0.0,0.0,0.0,0.0,0.0,0.0,0.0,0.0,0.0,0.0,0.0,0.0,0.0,0.0,0.0,-2.6235,0.0,0.0,0.0,0.0,0.0,0.0,0.0,0.0,0.0,0.0,0.0,-3.3402,-3.5563,-3.8995,-4.2118,-4.4618,-4.5249,-4.6977,-4.902,-5.0673,-5.0618,-5.0265,-5.0952,-4.7404,-4.3058,-4.0457,-3.6779,0.0,-3.0846,-3.0623,-3.105,-3.1682,-3.367,-3.5807,0.0,-3.9022,-4.0828,-4.3615,-4.5287,-4.72,0.0,-5.1435,0.0,0.0,0.0,0.0,0.0,0.0,0.0,-5.3813,-5.3813,-5.3813,-5.3813,-5.3813,-5.3813,-5.3813,-5.3813,-5.3813,-5.3777,-5.1176,-4.9565,-4.8897,-4.8911,-4.8909,-4.8909,-4.8909,0.0,0.0,-4.8909,-4.928,-4.9782,-4.915,-4.9299,-4.9782,-4.9132,-4.8909,-4.9002,0.0,0.0,0.0,0.0,0.0,0.0,0.0,-2.3927,-2.4992,-2.5172,-2.5868,-2.6071,-2.5279,-2.5244,-2.5311,0.0,0.0,0.0,0.0,0.0,0.0,0.0,0.0,0.0,0.0,0.0,0.0,0.0,0.0,0.0,0.0,0.0,0.0,0.0,0.0,0.0,0.0,0.0,0.0,0.0,0.0,0.0,0.0,0.0,0.0,0.0,0.0,0.0,0.0,0.0,0.0,-3.2902,-3.4617,-3.8275,-4.1943,-4.2017,0.0,0.0,-4.9782,-5.0172,-5.0135,-5.0209,-4.655,-4.2073,-3.8859,0.0,-3.2425,-3.001,-3.066,-3.1719,-3.1794,-3.3187,-3.5107,-3.7503,0.0,-3.9491,-4.3448,-4.4804,-4.6605,-4.98,0.0,0.0,0.0,0.0,0.0,0.0,0.0,0.0,0.0,-5.3813,-5.3813,-5.3813,-5.3813,-5.3813,-5.3813,-5.3813,-5.3813,-5.3796,-5.3497,-5.1786,-4.8897,-4.8911,-4.8909,-4.8909,-4.8909,0.0,0.0,-4.8909,-4.8946,-4.9002,-4.8927,-4.8946,-4.9002,-4.8927,-4.8909,-4.8909,0.0,0.0,0.0,0.0,0.0,0.0,-2.2632,-2.3756,-2.4711,-2.523,-2.56,-2.5682,-2.5341,-2.5298,-2.5293,-2.5293,0.0,0.0,0.0,0.0,0.0,0.0,0.0,0.0,0.0,0.0,0.0,0.0,0.0,0.0,0.0,0.0,0.0,0.0,0.0,0.0,0.0,0.0,0.0,0.0,0.0,0.0,0.0,0.0,0.0,0.0,0.0,0.0,0.0,0.0,0.0,0.0,-3.0415,-3.3022,0.0,0.0,-4.2649,-4.5937,-4.8091,-4.9392,-5.0023,-4.9522,-4.5695,-4.133,-3.8544,0.0,-3.1868,-3.0418,-3.0623,-3.1366,-3.2351,-3.3045,-3.4302,-3.676,-3.6773,0.0,-4.133,0.0,-4.4283,0.0,0.0,0.0,0.0,0.0,0.0,0.0,0.0,0.0,0.0,-5.3813,-5.3813,-5.3813,-5.3813,-5.3813,-5.3813,-5.3795,-5.3795,-5.3796,-5.3795,-5.3124,-5.1786,-4.9801,-4.9616,-5.0802,-4.9483,0.0,0.0,-4.9113,-4.8909,-4.8909,-4.8909,-4.8909,-4.8909,-4.8909,-4.8909,-4.8909,0.0,0.0,0.0,0.0,0.0,-2.2083,-2.2716,-2.3918,-2.4889,-2.5245,-2.5519,-2.5596,-2.5327,-2.5308,-2.5308,-2.5308,-2.5308,0.0,0.0,0.0,0.0,0.0,0.0,0.0,0.0,0.0,-2.5308,-2.5308,-2.5308,0.0,0.0,0.0,0.0,0.0,0.0,0.0,0.0,0.0,0.0,0.0,0.0,0.0,0.0,0.0,0.0,0.0,0.0,0.0,0.0,0.0,0.0,0.0,0.0,-2.9889,-3.2686,0.0,-3.9417,-4.3095,-4.5584,-4.746,-4.8593,-4.798,-4.4506,-4.0531,0.0,0.0,-3.1571,-3.0772,-3.079,-3.1366,-3.276,-3.3187,-3.4086,-3.6346,0.0,-3.6996,-4.029,-4.1441,0.0,0.0,0.0,0.0,0.0,0.0,0.0,0.0,0.0,0.0,0.0,-5.3813,-5.3813,-5.3813,-5.3813,-5.3794,-5.3813,-5.3795,-5.3312,-5.2364,-5.3349,-5.3293,-5.2288,-5.0469,-5.021,-5.1136,0.0,0.0,0.0,-4.9132,-4.8909,-4.8909,-4.8909,-4.8909,-4.8909,-4.8909,-4.8909,-4.8909,0.0,0.0,0.0,0.0,0.0,0.0,-2.2797,-2.4947,-2.6269,-2.5404,-2.6058,-2.625,-2.5385,-2.5308,-2.5308,-2.5308,-2.5308,0.0,0.0,0.0,0.0,0.0,0.0,0.0,0.0,0.0,-2.5308,-2.5308,-2.5308,-2.5308,-2.5308,0.0,0.0,0.0,0.0,0.0,0.0,0.0,0.0,0.0,0.0,0.0,0.0,0.0,0.0,0.0,0.0,0.0,0.0,0.0,0.0,0.0,0.0,-2.9894,-3.0028,-3.0545,-3.4711,-3.9695,-4.2184,-4.4061,-4.5342,-4.5342,-4.2835,-3.9561,0.0,0.0,-3.1571,-3.0772,-3.1236,-3.2035,-3.2853,-3.364,-3.4736,-3.6439,-3.6686,0.0,-4.1126,-4.2277,0.0,0.0,0.0,0.0,0.0,0.0,0.0,0.0,0.0,0.0,0.0,-5.3813,-5.3813,-5.3813,-5.3813,-5.3813,-5.3814,-5.3795,-5.2177,-4.8993,-5.2252,-5.2085,-4.9011,-5.0636,-5.0484,0.0,0.0,0.0,0.0,-4.8909,-4.8909,-4.8909,-4.8909,-4.8909,-4.8909,-4.8909,-4.8909,-4.8909,0.0,0.0,0.0,0.0,0.0,0.0,0.0,-2.4832,-2.5615,-2.5346,-2.5538,-2.5615,-2.5327,-2.5308,-2.5308,-2.5308,-2.5308,0.0,0.0,0.0,0.0,0.0,0.0,0.0,0.0,-2.5308,-2.5308,-2.5308,-2.5904,-2.6192,-2.6192,-2.6192,-2.6192,0.0,0.0,0.0,0.0,0.0,0.0,0.0,0.0,0.0,0.0,0.0,0.0,0.0,0.0,0.0,0.0,0.0,0.0,0.0,0.0,0.0,0.0,-2.9242,-3.2355,0.0,-3.8138,-3.9807,-4.0921,-4.0383,-3.8618,-3.6476,-3.4284,-3.2332,-3.0902,-3.0641,-3.1236,-3.2054,-3.2853,-3.3658,-3.4754,-3.6439,-3.7164,0.0,0.0,0.0,0.0,0.0,0.0,0.0,0.0,0.0,0.0,0.0,0.0,0.0,0.0,-5.3813,-5.3813,-5.3813,-5.3813,-5.3794,-5.3813,-5.3795,-5.3274,-5.2252,-5.3293,-5.2865,-5.1157,-5.0952,0.0,0.0,0.0,0.0,0.0,-4.9132,-4.8909,-4.8909,-4.8909,-4.8909,-4.8909,-4.8909,-4.8909,-4.8909,0.0,0.0,0.0,0.0,0.0,0.0,0.0,-2.4774,-2.5308,-2.5308,-2.5308,-2.5308,-2.5308,-2.5308,-2.5308,-2.5308,-2.5308,0.0,0.0,0.0,0.0,0.0,0.0,0.0,-2.5308,-2.5308,-2.5462,-2.5788,-2.6327,-2.6774,-2.7082,-2.7082,-2.6928,-2.6601,-2.6601,-2.6428,0.0,0.0,0.0,0.0,0.0,0.0,-2.9948,0.0,0.0,0.0,0.0,0.0,0.0,0.0,0.0,0.0,0.0,0.0,0.0,0.0,-3.0697,0.0,0.0,-3.6546,-3.7615,-3.7113,-3.5993,0.0,0.0,-3.1533,-3.0697,-3.0995,-3.144,-3.2147,-3.3262,-3.3863,-3.4754,-3.6439,-3.7113,0.0,0.0,0.0,0.0,0.0,0.0,0.0,0.0,0.0,0.0,0.0,0.0,0.0,0.0,0.0,-5.3813,-5.3813,-5.3813,-5.3794,-5.3795,-5.2568,-5.2568,-5.3796,-5.2977,-5.2252,-5.1565,-5.0767,0.0,0.0,0.0,0.0,0.0,-4.9113,-4.8909,-4.8909,-4.8909,-4.8909,-4.8909,-4.8909,-4.8909,-4.8909,0.0,0.0,0.0,0.0,0.0,0.0,0.0,-2.4812,-2.5308,-2.5308,-2.5308,-2.5308,-2.5308,-2.5308,-2.5308,-2.5308,0.0,0.0,0.0,0.0,0.0,0.0,0.0,0.0,-2.5308,-2.5308,-2.5692,-2.6505,-2.664,-2.7101,-2.7895,-2.7953,-2.7525,-2.6697,-2.664,-2.6115,-2.5365,-2.6231,-2.7101,-2.7972,-2.878,-2.9146,0.0,0.0,0.0,0.0,0.0,0.0,0.0,0.0,0.0,0.0,0.0,0.0,0.0,0.0,0.0,0.0,0.0,-3.4038,-3.5064,-3.5064,-3.4469,0.0,-3.1979,-3.105,0.0,-3.1478,-3.1719,-3.2277,-3.3826,-3.4197,-3.4829,-3.6513,0.0,0.0,0.0,0.0,0.0,0.0,0.0,0.0,0.0,0.0,0.0,0.0,0.0,0.0,0.0,0.0,-5.3794,-5.3813,-5.3701,-5.3571,-5.3442,-5.0676,-5.0731,-5.3665,-5.1695,-5.0731,-5.0731,-5.0377,0.0,0.0,0.0,0.0,0.0,-4.8909,-4.8909,-4.8909,-4.8909,-4.8909,-4.8909,-4.8909,-4.8909,-4.8909,0.0,0.0,0.0,0.0,0.0,0.0,0.0,0.0,0.0,0.0,-2.5308,-2.5308,-2.5308,-2.5308,-2.5308,0.0,0.0,0.0,0.0,0.0,0.0,0.0,0.0,0.0,-2.5308,-2.5308,-2.5404,-2.5615,-2.6948,-2.7698,-2.7915,-2.853,-2.8376,-2.7563,-2.6909,-2.6115,-2.5365,-2.6231,-2.7101,-2.7972,-2.878,-2.9506,0.0,0.0,0.0,0.0,-3.0404,-3.0404,0.0,0.0,0.0,0.0,0.0,0.0,0.0,0.0,-3.003,0.0,-3.0589,0.0,-3.0827,-3.0827,-3.0679,-3.0418,0.0,-2.9824,-2.9731,-2.9917,-3.0939,-3.2109,0.0,0.0,0.0,0.0,0.0,0.0,0.0,0.0,0.0,0.0,0.0,0.0,0.0,0.0,0.0,0.0,0.0,0.0,0.0,0.0,-5.3814,-5.3795,-5.2605,-5.1343,-5.0046,-5.1788,-5.2624,-5.2568,-5.2271,-5.2141,-5.2104,-5.1416,0.0,0.0,0.0,0.0,-4.8909,-4.8909,-4.8909,-4.8909,-4.8909,-4.8909,-4.8909,-4.8909,-4.8909,-4.8909,0.0,0.0,0.0,0.0,0.0,0.0,0.0,0.0,0.0,0.0,0.0,0.0,0.0,0.0,0.0,0.0,0.0,0.0,0.0,0.0,0.0,0.0,0.0,-2.5308,-2.5308,-2.5308,-2.5692,-2.6486,-2.7448,-2.8294,-2.9063,-2.9486,-2.9256,-2.8396,-2.7159,-2.6115,-2.5327,-2.5808,-2.6505,-2.7371,-2.8203,0.0,0.0,0.0,0.0,0.0,-3.0404,-3.0404,0.0,-3.0404,-3.0404,-3.0361,0.0,0.0,0.0,0.0,-3.0109,-3.008,-2.9942,-2.9972,-3.0041,-2.9967,-2.9954,-3.0047,-3.0418,-3.0214,-3.0158,-3.0902,-3.1738,-3.2723,0.0,0.0,0.0,0.0,0.0,0.0,0.0,0.0,0.0,0.0,0.0,0.0,0.0,0.0,0.0,0.0,0.0,0.0,0.0,0.0,-5.19,-5.266,-5.1101,-4.9824,-4.8919,-5.0676,-5.1658,-5.1825,-5.1194,-5.1305,-5.2011,-5.0803,-5.0209,0.0,0.0,0.0,-4.8909,-4.8909,-4.8909,-4.8909,-4.8909,-4.8909,-4.8909,-4.8909,-4.8909,-4.8909,0.0,0.0,0.0,0.0,0.0,0.0,0.0,0.0,0.0,0.0,0.0,0.0,0.0,0.0,0.0,0.0,0.0,0.0,0.0,0.0,0.0,0.0,-2.5308,-2.5308,-2.5308,-2.5423,-2.6212,-2.7698,-2.8082,-2.8948,-3.0212,-3.0462,-3.0006,-2.8857,-2.7294,-2.6115,-2.5308,-2.5308,-2.5808,-2.6678,-2.7544,0.0,0.0,0.0,0.0,0.0,0.0,0.0,0.0,-3.0404,-3.0404,-3.0367,-3.0196,0.0,0.0,0.0,0.0,0.0,-3.0102,-3.0542,-3.0949,-3.0668,-3.0697,-3.0957,-3.1645,-3.1273,-3.1162,-3.2537,-3.2908,-3.3466,0.0,-3.5008,0.0,0.0,0.0,0.0,0.0,0.0,0.0,0.0,0.0,0.0,0.0,0.0,0.0,0.0,0.0,0.0,0.0,0.0,0.0,-5.0971,-4.9766,-4.9009,-4.89,-4.9065,-4.9841,-5.1193,-4.9893,-5.0023,-5.1342,-4.993,-4.9577,0.0,0.0,0.0,-4.8909,-4.8909,-4.8909,-4.8909,-4.8909,-4.8909,-4.8909,-4.8909,-4.8909,-4.8909,0.0,0.0,0.0,0.0,0.0,0.0,0.0,0.0,0.0,0.0,0.0,0.0,0.0,0.0,0.0,0.0,0.0,0.0,0.0,0.0,0.0,-2.5308,-2.5308,-2.5308,-2.5308,-2.6019,-2.6524,-2.6794,-2.8962,-2.9775,-2.9338,-3.0814,-3.0275,-2.8049,-2.7044,-2.6115,-2.5308,-2.5308,-2.5808,-2.6678,-2.7544,0.0,0.0,0.0,0.0,0.0,0.0,0.0,0.0,-3.0404,-3.0404,-3.0398,-3.0361,0.0,0.0,0.0,0.0,0.0,-3.082,-3.1472,-3.1836,-3.086,-3.1106,-3.1645,-3.1775,-3.1701,-3.1682,-3.1924,-3.2537,0.0,0.0,-3.5999,-3.7708,0.0,0.0,0.0,0.0,0.0,0.0,0.0,0.0,0.0,0.0,0.0,0.0,0.0,0.0,0.0,0.0,0.0,0.0,-4.928,-4.969,-4.9579,-4.8911,-4.9856,-5.0338,-5.032,-5.0785,-5.1156,-5.1398,-5.1138,-5.0692,0.0,0.0,-4.954,-4.8909,-4.8909,-4.8909,-4.8909,-4.8909,-4.8909,-4.8909,-4.8909,-4.8909,-4.8909,0.0,0.0,0.0,0.0,0.0,0.0,0.0,0.0,0.0,0.0,0.0,0.0,0.0,0.0,0.0,0.0,0.0,0.0,0.0,0.0,-2.5345,-2.5308,-2.575,-2.6,-2.6,-2.639,-2.7269,-2.8654,-2.9827,-3.0442,-3.0506,-3.0352,-2.9429,-2.7857,-2.6986,-2.6115,-2.5327,-2.5808,-2.6231,-2.6717,0.0,0.0,0.0,0.0,0.0,0.0,0.0,0.0,0.0,0.0,-3.0404,-3.0404,-3.0404,0.0,0.0,0.0,0.0,0.0,-3.0429,-3.1119,-3.1714,-3.1339,-3.1849,-3.2555,-3.3001,-3.276,-3.2704,-3.3615,0.0,0.0,0.0,0.0,0.0,0.0,0.0,0.0,0.0,0.0,0.0,0.0,0.0,0.0,0.0,0.0,0.0,0.0,0.0,0.0,0.0,0.0,0.0,0.0,-4.9262,-4.928,-4.8909,-4.9428,-4.9614,-4.9466,-4.9856,-5.0283,-5.0692,-5.0246,-5.0079,-5.0079,0.0,-4.9243,-4.8872,-4.8426,-4.8259,-4.8259,-4.8259,-4.8259,-4.8296,-4.8742,-4.8909,-4.8909,0.0,0.0,0.0,0.0,0.0,0.0,0.0,0.0,0.0,0.0,0.0,0.0,0.0,0.0,0.0,0.0,0.0,0.0,0.0,-2.539,-2.5357,-2.5327,-2.615,-2.6601,-2.6601,-2.6986,-2.8236,-3.0404,-3.0788,-3.1327,-3.1948,-3.0012,-2.8665,-2.7857,-2.6986,-2.6231,-2.5654,-2.6327,-2.6717,-2.7024,0.0,0.0,0.0,0.0,0.0,0.0,0.0,0.0,0.0,0.0,0.0,0.0,0.0,0.0,0.0,-3.0462,-3.0538,-3.0637,-3.0285,-3.0784,-3.1518,-3.2021,-3.2616,-3.3376,-3.4506,-3.4309,-3.4339,-3.6012,0.0,0.0,0.0,0.0,0.0,0.0,0.0,0.0,0.0,0.0,0.0,0.0,0.0,0.0,0.0,0.0,0.0,0.0,0.0,0.0,0.0,0.0,0.0,0.0,-4.8909,-4.8816,-4.863,-4.863,-4.8723,-4.8909,-4.9094,-4.941,-4.98,-4.9392,-4.941,-4.9782,-4.9169,-4.8909,-4.8853,-4.824,-4.798,-4.798,-4.798,-4.798,-4.8054,-4.8667,-4.8909,-4.8909,0.0,0.0,0.0,0.0,0.0,0.0,0.0,0.0,0.0,0.0,0.0,0.0,0.0,0.0,0.0,0.0,0.0,0.0,0.0,-2.533,-2.5336,-2.5398,-2.6169,-2.6601,-2.6601,-2.8121,-2.941,-3.0404,-3.1968,-3.2756,-3.2756,-3.0281,-2.8665,-2.7857,-2.6986,-2.6563,-2.6505,-2.6563,-2.7063,-2.7876,-2.8742,0.0,0.0,0.0,0.0,0.0,0.0,0.0,0.0,0.0,0.0,0.0,0.0,0.0,-3.1448,-3.0635,-3.0962,-3.152,-3.1113,-3.1205,-3.1683,-3.289,-3.3237,-3.3844,-3.6012,-3.6495,-3.6891,-3.8507,-3.8841,0.0,0.0,0.0,0.0,0.0,0.0,0.0,0.0,0.0,0.0,0.0,0.0,0.0,0.0,0.0,0.0,0.0,0.0,0.0,0.0,0.0,0.0,0.0,-4.8909,-4.8537,-4.7794,-4.7794,-4.8166,-4.8909,-4.967,-4.9652,-4.902,-4.9707,-4.9652,-4.8983,-4.8927,-4.8909,-4.8909,-4.8834,-4.8816,-4.8816,-4.8816,-4.8816,-4.8816,-4.889,-4.8909,-4.8909,0.0,0.0,0.0,0.0,0.0,0.0,0.0,0.0,0.0,0.0,0.0,0.0,0.0,0.0,0.0,0.0,0.0,0.0,0.0,-2.5504,-2.5483,-2.5463,-2.6238,-2.6924,-2.7465,-2.8543,-2.9794,-3.1212,-3.1833,-3.216,-3.2102,-2.9544,-2.8453,-2.8588,-2.7217,-2.6909,-2.7448,-2.7928,-2.8338,-2.8723,-2.9563,-2.991,0.0,0.0,0.0,0.0,0.0,0.0,0.0,0.0,-3.075,-3.1212,-3.1212,-3.1429,-3.1641,-3.1308,-3.1058,-3.0829,-3.055,-3.0929,-3.1588,-3.2363,-3.2929,-3.3918,-3.6339,-3.6783,-3.7164,-3.8767,-3.9528,0.0,0.0,0.0,0.0,0.0,0.0,0.0,0.0,0.0,0.0,0.0,0.0,0.0,0.0,0.0,0.0,0.0,0.0,0.0,0.0,0.0,0.0,0.0,-4.7404,-4.7256,-4.6958,-4.694,-4.7107,-4.7404,-4.772,-4.824,-4.889,-4.8704,-4.8723,-4.8909,-4.8909,-4.8909,-4.8872,-4.837,-4.8147,-4.8147,-4.8147,-4.8463,-4.8909,-4.8909,-4.8909,-4.8909,0.0,0.0,0.0,0.0,0.0,0.0,0.0,0.0,0.0,0.0,0.0,0.0,0.0,0.0,0.0,0.0,0.0,0.0,-2.5603,-2.5587,-2.5552,-2.5532,-2.6276,-2.6985,-2.7609,-2.8598,-2.9954,-3.1698,-3.1698,-3.1698,-3.166,-2.9352,-2.8569,-2.905,-2.764,-2.7486,-2.8319,-2.8876,-2.9261,-2.9563,-3.0154,-3.0404,0.0,0.0,0.0,0.0,0.0,0.0,0.0,0.0,-3.1212,-3.1737,-3.2006,-3.2275,-3.2449,-3.216,-3.1852,-3.1482,-3.0966,-3.1299,-3.19,-3.2363,-3.3087,-3.4389,-3.7139,-3.7592,-3.8061,-4.0215,-4.0717,-4.1089,-4.2166,0.0,0.0,0.0,0.0,0.0,0.0,0.0,0.0,0.0,0.0,0.0,0.0,0.0,0.0,0.0,0.0,0.0,0.0,0.0,0.0,0.0,-4.6494,-4.6382,-4.6122,-4.6122,-4.6122,-4.6122,-4.5844,-4.6568,-4.8129,-4.7571,-4.7757,-4.8519,-4.8519,-4.8667,-4.8872,-4.8314,-4.8091,-4.8091,-4.8091,-4.8426,-4.8909,-4.8909,-4.8909,-4.8909,0.0,0.0,0.0,0.0,0.0,0.0,0.0,0.0,0.0,0.0,0.0,0.0,0.0,0.0,0.0,0.0,0.0,0.0,-2.5601,-2.5537,-2.5532,-2.56,-2.6304,-2.6722,-2.6796,-2.83,-2.9935,-3.1698,-3.1679,-3.1679,-3.166,-2.9896,-2.9107,-2.9088,-2.828,-2.8357,-2.9107,-2.9107,-2.9602,-3.0404,-3.0404,-3.0404,-3.0404,0.0,0.0,0.0,0.0,0.0,0.0,0.0,-3.1718,-3.1852,-3.266,-3.3506,-3.4032,-3.316,-3.3526,-3.3934,-3.2737,-3.2515,-3.2727,-3.3192,-3.3923,-3.539,-3.8652,-3.924,-4.003,-4.3318,-4.2723,-4.2092,-4.3689,0.0,0.0,0.0,0.0,0.0,0.0,0.0,0.0,0.0,0.0,0.0,0.0,0.0,0.0,0.0,0.0,0.0,0.0,0.0,0.0,0.0,-4.6475,-4.6085,-4.5287,-4.5287,-4.5287,-4.5268,-4.4413,-4.4878,-4.6494,-4.6494,-4.6921,-4.7683,-4.7701,-4.8147,-4.889,-4.889,-4.889,-4.8909,-4.8909,-4.8909,-4.8909,-4.8909,-4.8909,-4.8909,0.0,0.0,0.0,0.0,0.0,0.0,0.0,0.0,0.0,0.0,0.0,0.0,0.0,0.0,0.0,0.0,0.0,0.0,-2.5663,-2.5655,-2.5653,-2.5676,-2.579,-2.6159,-2.6796,-2.7764,-2.9083,-3.0788,-3.0179,-3.0179,-3.075,-2.9044,-2.8871,-2.9987,-2.9121,-2.9217,-3.0006,-3.0009,-3.015,-3.04,-3.04,-3.04,-3.04,0.0,0.0,0.0,0.0,0.0,0.0,0.0,0.0,0.0,-3.3744,-3.3994,-3.4148,-3.3898,-3.3564,-3.3199,-3.2842,-3.3023,0.0,-3.3488,0.0,0.0,0.0,-3.9137,-3.9863,0.0,-4.2634,-4.2303,-4.2786,0.0,0.0,0.0,0.0,0.0,0.0,0.0,0.0,0.0,0.0,0.0,0.0,0.0,0.0,0.0,0.0,0.0,0.0,0.0,0.0,0.0,-4.4748,-4.4636,-4.4395,-4.4395,-4.4395,-4.4376,-4.4116,-4.4878,-4.6475,-4.59,-4.6085,-4.6884,-4.746,-4.7516,-4.7256,-4.7813,-4.8389,-4.8909,-4.8909,-4.8909,-4.8909,-4.8909,-4.8909,-4.8909,0.0,0.0,0.0,0.0,0.0,0.0,0.0,0.0,0.0,0.0,-2.5696,-2.5696,0.0,0.0,0.0,0.0,0.0,0.0,0.0,-2.5696,-2.5696,-2.5694,-2.5926,-2.6582,-2.772,-2.8186,-2.9065,-3.0404,-2.9525,-2.9544,-3.0385,-2.9371,-2.9423,-3.0385,-2.9844,-2.9907,-3.0408,-3.0422,-3.0433,-3.0433,-3.0433,-3.064,-3.0873,0.0,0.0,0.0,0.0,0.0,0.0,0.0,0.0,0.0,-3.4603,-3.4718,-3.4718,-3.4718,-3.4334,-3.3903,-3.3738,-3.3891,0.0,-3.4413,-3.56,-3.7206,-3.9157,0.0,0.0,0.0,0.0,-4.2526,-4.2953,0.0,0.0,0.0,0.0,0.0,0.0,0.0,0.0,0.0,0.0,0.0,0.0,0.0,0.0,0.0,0.0,0.0,0.0,0.0,0.0,0.0,-4.4005,-4.4005,-4.4005,-4.4005,-4.4005,-4.4005,-4.4005,-4.4525,-4.5491,-4.4989,-4.5231,-4.6067,-4.6865,-4.694,-4.6531,-4.7014,-4.7516,-4.798,-4.8296,-4.8426,-4.8463,-4.8779,-4.8909,-4.8909,0.0,0.0,0.0,0.0,0.0,0.0,0.0,0.0,0.0,0.0,-2.57,-2.57,0.0,0.0,0.0,0.0,0.0,0.0,0.0,-2.5778,-2.5817,-2.5817,-2.6583,-2.7714,-2.9175,-2.9132,-2.9516,-3.041,-2.9531,-2.9544,-3.0404,-3.0327,-3.0365,-3.05,-3.0439,-3.0436,-3.0513,-3.0513,-3.0504,-3.0504,-3.0504,-3.0989,-3.1598,-3.0725,0.0,0.0,0.0,0.0,0.0,0.0,0.0,0.0,-3.525,-3.55,-3.55,-3.55,-3.55,-3.5417,-3.5037,-3.4936,0.0,-3.5679,-3.6407,0.0,-3.997,-4.224,-4.3856,-4.3856,0.0,0.0,0.0,0.0,0.0,0.0,0.0,0.0,0.0,0.0,0.0,0.0,0.0,0.0,0.0,0.0,0.0,0.0,0.0,0.0,0.0,0.0,0.0,0.0,-4.4005,-4.4005,-4.4005,-4.4005,-4.4005,0.0,-4.4005,-4.4005,-4.4005,-4.4005,-4.4488,-4.5342,-4.5992,-4.6364,-4.6494,-4.642,-4.642,-4.6568,-4.7311,-4.7646,-4.7794,-4.8519,-4.8834,-4.8909,0.0,0.0,0.0,0.0,0.0,0.0,0.0,0.0,0.0,0.0,0.0,0.0,0.0,0.0,0.0,0.0,0.0,0.0,0.0,-2.6347,-2.6717,-2.6716,-2.7482,-2.8346,-2.9261,-2.8621,-2.8967,-3.0406,-2.9542,-2.9544,-3.0385,-2.9698,-3.0102,-3.1391,-3.0708,-3.0783,-3.1386,-3.076,-3.051,-3.051,-3.051,-3.0972,-3.1595,-3.0731,-3.1338,0.0,0.0,0.0,0.0,0.0,0.0,0.0,-3.5442,-3.55,-3.55,-3.55,-3.55,-3.5439,-3.5209,-3.5132,0.0,0.0,-3.7476,-3.9326,-4.096,-4.2058,-4.2748,-4.2748,0.0,0.0,0.0,0.0,0.0,0.0,0.0,0.0,0.0,0.0,0.0,0.0,0.0,0.0,0.0,0.0,0.0,0.0,0.0,0.0,0.0,0.0,0.0,-4.4005,-4.4005,-4.4005,-4.4005,-4.4005,-4.4005,0.0,-4.4005,-4.4005,-4.4005,-4.4005,-4.4488,-4.5268,-4.4766,-4.5287,-4.6438,-4.5807,-4.5918,-4.6513,-4.668,-4.7144,-4.772,-4.7887,-4.837,-4.8909,0.0,0.0,0.0,0.0,0.0,0.0,0.0,0.0,0.0,0.0,0.0,0.0,0.0,0.0,0.0,0.0,0.0,0.0,0.0,0.0,-2.7363,-2.8202,-2.8648,-2.9224,-2.9953,-2.9525,-2.9672,-3.0458,-2.9968,-2.994,-3.0385,-2.9948,-3.0204,-3.1068,-3.0634,-3.0695,-3.1097,-3.0714,-3.0554,-3.0554,-3.0554,-3.1037,-3.1706,-3.1237,-3.1852,-3.294,-3.2903,0.0,0.0,0.0,0.0,0.0,0.0,0.0,-3.55,-3.55,-3.55,-3.5465,-3.525,0.0,0.0,-3.5824,0.0,-3.977,-4.0295,-4.132,-4.236,0.0,0.0,0.0,0.0,0.0,0.0,0.0,0.0,0.0,0.0,0.0,0.0,0.0,0.0,0.0,0.0,0.0,0.0,0.0,0.0,0.0,0.0,-4.4005,-4.4005,-4.4005,-4.4005,-4.4005,-4.4005,-4.4005,-4.4005,-4.4005,-4.4005,-4.4005,-4.4005,-4.4005,-4.4246,-4.4655,-4.4191,-4.4506,-4.5268,-4.4841,-4.4915,-4.5342,-4.5751,-4.642,-4.7163,-4.7553,-4.8203,-4.8909,0.0,0.0,0.0,0.0,0.0,0.0,0.0,0.0,0.0,0.0,0.0,0.0,0.0,0.0,0.0,0.0,0.0,0.0,0.0,0.0,0.0,-2.9746,-2.9824,-3.0108,-3.0694,-3.0691,-3.062,-3.0509,-3.0444,-3.0411,-3.0421,-3.0416,-3.0485,-3.0629,-3.0532,-3.0577,-3.0728,-3.0641,-3.0598,-3.0598,-3.0598,-3.1081,-3.1809,-3.18,-3.2383,-3.3315,-3.3986,-3.4301,-3.4545,-3.5258,0.0,0.0,0.0,0.0,-3.55,-3.55,-3.55,-3.5465,-3.525,0.0,-3.5496,-3.5819,-3.7756,0.0,-3.9035,-4.024,0.0,0.0,0.0,0.0,0.0,0.0,0.0,0.0,0.0,0.0,0.0,0.0,0.0,0.0,0.0,0.0,0.0,0.0,0.0,0.0,0.0,0.0,0.0,-4.3652,-4.3708,-4.3986,-4.3726,-4.3726,-4.4005,-4.3856,-4.3856,-4.4005,-4.4005,-4.4005,-4.4005,-4.4005,-4.4005,-4.4005,-4.4005,-4.4005,-4.4005,-4.4005,-4.4005,-4.4079,-4.4785,-4.5565,-4.6364,-4.7033,-4.7794,-4.8519,0.0,0.0,0.0,0.0,0.0,0.0,0.0,0.0,0.0,0.0,-2.5703,-2.5703,0.0,0.0,0.0,0.0,0.0,0.0,0.0,0.0,0.0,-3.0684,-3.0723,-3.0715,-3.0709,-3.0706,-3.0639,-3.0491,-3.0486,-3.0495,-3.0488,-3.0422,-3.0796,-3.1496,-3.0818,-3.0916,-3.1578,-3.0893,-3.0598,-3.0598,-3.0598,-3.1081,-3.1809,-3.18,-3.2764,-3.4139,-3.4254,-3.4762,-3.5412,-3.5477,-3.5502,0.0,0.0,0.0,0.0,-3.55,-3.55,-3.5465,-3.525,0.0,-3.6252,0.0,-3.7556,-3.8677,0.0,0.0,0.0,0.0,0.0,0.0,0.0,0.0,0.0,0.0,0.0,0.0,0.0,0.0,0.0,0.0,0.0,0.0,0.0,0.0,0.0,0.0,0.0,0.0,-4.2927,-4.2296,-4.2556,-4.3968,-4.2649,-4.2593,-4.3986,-4.3318,-4.3318,-4.4005,-4.4005,-4.4005,-4.4005,-4.4005,-4.4005,-4.4005,-4.4005,-4.4005,-4.4005,-4.4005,-4.4005,-4.4005,-4.4135,-4.4692,-4.5472,-4.5565,-4.6122,-4.6921,0.0,0.0,0.0,0.0,0.0,0.0,0.0,0.0,0.0,0.0,0.0,-2.5898,0.0,0.0,0.0,0.0,0.0,0.0,0.0,0.0,0.0,-3.0879,-3.0898,-3.0856,-3.0764,-3.0722,-3.0647,-3.0563,-3.0511,-3.0742,-3.1225,-3.119,-3.1397,-3.1744,-3.1379,-3.1433,-3.1758,-3.0941,-3.0598,-3.0598,-3.0598,-3.1072,-3.1849,-3.2338,-3.3299,-3.4422,-3.4874,-3.5274,-3.5596,-3.5566,-3.5522,-3.5502,-3.5509,0.0,0.0,0.0,-3.55,-3.5486,-3.5383,-3.563,-3.5875,0.0,-3.6879,-3.7916,-3.7464,0.0,0.0,0.0,0.0,0.0,0.0,0.0,0.0,0.0,0.0,0.0,0.0,0.0,0.0,0.0,0.0,0.0,0.0,0.0,0.0,0.0,0.0,0.0,-4.211,-4.1776,-4.1924,-4.263,-4.1962,-4.1943,-4.2649,-4.2296,-4.2519,-4.3336,-4.3782,-4.4005,-4.4005,-4.4005,-4.4005,-4.4005,-4.4005,-4.4005,-4.4005,-4.4005,-4.4005,-4.4005,-4.4005,-4.4525,-4.5287,-4.5287,-4.6085,-4.7163,0.0,0.0,0.0,0.0,0.0,0.0,0.0,0.0,0.0,0.0,0.0,0.0,0.0,0.0,0.0,0.0,0.0,0.0,0.0,0.0,0.0,-3.0898,-3.0898,-3.0877,-3.0801,-3.0732,-3.0664,-3.0593,-3.0548,-3.0955,-3.1791,-3.2023,-3.2255,-3.2448,-3.2236,-3.2125,-3.2082,-3.1483,-3.1236,-3.1236,-3.1236,-3.1579,-3.2237,-3.3107,-3.3828,-3.4505,-3.5334,-3.5637,-3.5612,-3.5622,-3.5572,-3.5534,-3.5522,-3.5515,0.0,0.0,0.0,0.0,0.0,0.0,-3.5453,-3.5316,-3.6296,-3.7194,0.0,0.0,0.0,0.0,0.0,0.0,0.0,0.0,0.0,0.0,0.0,0.0,0.0,0.0,0.0,0.0,0.0,0.0,0.0,0.0,0.0,0.0,0.0,-4.1051,-4.1274,-4.107,-4.1163,-4.159,-4.1181,-4.1163,-4.159,-4.159,-4.1887,-4.25,-4.3318,-4.3708,-4.3708,-4.3912,-4.4005,-4.4005,-4.4005,-4.4005,-4.4005,-4.4005,-4.4005,-4.4005,-4.4005,-4.4395,-4.4971,-4.4971,-4.5732,-4.6717,0.0,0.0,0.0,0.0,0.0,0.0,0.0,0.0,0.0,0.0,0.0,0.0,-2.6992,-2.8476,-2.9141,-2.8379,-2.9805,-3.0781,-3.082,-3.0879,-3.0898,-3.0898,-3.0898,0.0,-3.0801,-3.0732,-3.0664,-3.0593,-3.0604,-3.0999,-3.1811,-3.2643,-3.3474,-3.4234,-3.3397,-3.303,-3.303,-3.2991,-3.2972,-3.2972,-3.2972,-3.301,-3.3126,-3.4002,-3.4355,-3.451,-3.5375,-3.5684,-3.5698,-3.5612,-3.5601,-3.5595,-3.5584,-3.5554,0.0,0.0,0.0,0.0,0.0,-3.55,0.0,-3.5493,-3.5975,0.0,0.0,0.0,0.0,0.0,0.0,0.0,0.0,0.0,0.0,0.0,0.0,0.0,0.0,0.0,0.0,0.0,0.0,0.0,0.0,0.0,0.0,0.0,0.0,-3.9584,-4.042,-3.9677,-3.9955,-4.1553,-4.0067,-3.9993,-4.1571,-4.159,-4.1609,-4.1664,-4.2482,-4.2853,-4.289,-4.3652,-4.4005,-4.4005,-4.4005,-4.4005,-4.4005,-4.4005,-4.4005,-4.4005,-4.4005,-4.4023,-4.4079,-4.4079,-4.4116,-4.4302,0.0,0.0,0.0,0.0,0.0,0.0,0.0,0.0,0.0,0.0,0.0,0.0,0.0,-2.8887,-2.9707,-2.9941,-3.0547,-3.0898,-3.0898,-3.0898,-3.0898,-3.0898,-3.0898,-3.0877,-3.0801,-3.0732,-3.0664,-3.0593,-3.0608,-3.1004,-3.1811,-3.2681,-3.3576,-3.4394,-3.406,-3.3924,-3.3905,-3.3339,-3.3107,-3.3107,-3.3107,-3.3436,-3.3963,-3.4278,-3.4742,-3.5284,0.0,0.0,0.0,0.0,0.0,0.0,0.0,0.0,-3.5554,-3.5515,0.0,0.0,0.0,0.0,0.0,-3.55,-3.6053,0.0,0.0,0.0,0.0,0.0,0.0,0.0,0.0,0.0,0.0,0.0,0.0,0.0,0.0,0.0,0.0,0.0,0.0,0.0,0.0,0.0,0.0,0.0,0.0,0.0,-3.9547,-3.9268,-3.938,-3.9974,-3.9417,-3.938,-3.9993,-4.055,-4.0843,-4.0847,-4.2166,-4.2797,-4.2835,-4.3633,-4.4005,-4.4005,-4.4005,-4.4005,-4.4005,-4.4005,-4.4005,-4.4005,-4.4005,-4.4005,-4.4005,-4.4005,-4.4358,-4.4804,0.0,0.0,0.0,0.0,0.0,0.0,0.0,0.0,0.0,-2.6094,0.0,0.0,0.0,0.0,-3.0273,-3.0859,-3.0898,-3.0898,-3.0898,-3.0898,-3.0898,-3.0898,-3.0898,-3.0878,-3.0832,-3.103,-3.0964,-3.0633,-3.0902,-3.1461,-3.2274,-3.287,-3.3606,-3.4444,-3.4719,-3.4839,-3.48,-3.4214,-3.3977,-3.3977,-3.3977,-3.4311,-3.4839,-3.4839,-3.5206,0.0,0.0,0.0,0.0,0.0,0.0,0.0,0.0,0.0,-3.5584,-3.5554,-3.5528,-3.554,-3.5508,0.0,0.0,0.0,0.0,0.0,0.0,0.0,0.0,0.0,0.0,0.0,0.0,0.0,0.0,0.0,0.0,0.0,0.0,0.0,0.0,0.0,0.0,0.0,0.0,0.0,0.0,0.0,0.0,0.0,-3.9115,-3.9101,-3.9101,-3.9101,-3.9101,-3.9101,-3.9101,-3.9769,-4.0108,-4.0127,-4.1716,-4.2499,-4.2537,-4.3531,-4.4005,-4.4005,-4.4005,-4.4048,-4.4136,-4.4136,-4.4136,-4.4136,-4.4136,-4.4079,-4.4005,-4.4005,-4.4376,-4.4822,0.0,0.0,0.0,0.0,0.0,0.0,0.0,0.0,-2.6055,-2.6914,0.0,0.0,0.0,0.0,0.0,-3.0898,-3.0898,-3.0898,-3.0898,-3.0898,-3.0898,-3.0898,-3.0898,-3.0898,-3.0898,-3.1606,-3.1544,-3.0709,-3.1482,-3.2306,-3.3165,-3.3192,-3.3654,-3.4532,-3.5311,-3.5665,-3.5665,-3.5684,-3.5684,-3.5665,-3.5684,-3.5704,-3.5704,-3.5723,0.0,0.0,-3.6651,-3.6942,0.0,-3.7903,0.0,0.0,0.0,-3.63,-3.5601,-3.561,-3.5598,-3.5591,0.0,0.0,0.0,0.0,0.0,0.0,0.0,0.0,0.0,0.0,0.0,0.0,0.0,0.0,0.0,0.0,0.0,0.0,0.0,0.0,0.0,0.0,0.0,0.0,0.0,0.0,0.0,0.0,0.0,-3.9401,-3.9124,-3.9129,-3.9129,-3.9129,-3.9096,-3.9115,-3.9115,-3.9376,-3.9514,-3.957,-4.1154,-4.1929,-4.2004,-4.3375,-4.4002,-4.4002,-4.4002,-4.4166,-4.4397,-4.4397,-4.4397,-4.4397,-4.4397,-4.4265,-4.4017,-4.4017,-4.4017,-4.4147,0.0,0.0,0.0,0.0,0.0,0.0,-2.6543,-2.6641,-2.6953,0.0,0.0,0.0,-2.957,-3.0371,-3.0898,-3.0898,-3.0898,-3.0898,-3.0898,-3.0898,-3.0898,-3.0898,-3.0898,-3.0878,-3.083,-3.1031,-3.0991,-3.0709,-3.0928,-3.1459,-3.2264,-3.2897,-3.3641,-3.4434,-3.4656,-3.4761,-3.48,-3.5438,-3.5342,-3.4819,-3.5458,-3.5704,0.0,0.0,0.0,0.0,0.0,-3.7845,-3.7883,0.0,-3.8038,-3.7729,0.0,-3.63,-3.5601,-3.5595,-3.5596,-3.5598,-3.5585,0.0,0.0,0.0,0.0,0.0,0.0,0.0,0.0,0.0,0.0,0.0,0.0,0.0,0.0,0.0,0.0,0.0,0.0,0.0,0.0,0.0,0.0,0.0,0.0,0.0,0.0,0.0,-3.9728,-3.9675,-3.9606,-3.9606,-3.9606,-3.9606,-3.9464,-3.9401,-3.9401,-3.9458,-3.9815,-4.0441,-4.1637,-4.2533,-4.3157,-4.3927,-4.4289,-4.4289,-4.4289,-4.4425,-4.4676,-4.4479,-4.4506,-4.4688,-4.4688,-4.4637,-4.4591,-4.4591,-4.4591,-4.4704,0.0,0.0,0.0,0.0,0.0,-2.6406,-2.6914,-2.7305,-2.7851,0.0,0.0,0.0,-3.0098,-3.1211,-3.1816,-3.1465,-3.1445,-3.1445,-3.1445,-3.1094,-3.1055,-3.1426,-3.1445,-3.1581,-3.1888,-3.1879,-3.1866,-3.1831,-3.1828,-3.2231,-3.3035,-3.355,-3.4016,-3.4458,-3.4782,-3.4543,-3.3944,-3.5182,-3.5206,-3.4471,-3.5361,0.0,0.0,-3.6729,-3.7135,0.0,0.0,0.0,-3.8798,-3.9166,-3.905,0.0,0.0,0.0,-3.6681,-3.6681,-3.6669,-3.6676,-3.6684,-3.6677,-3.66,0.0,0.0,0.0,-3.5509,-3.5496,0.0,0.0,0.0,0.0,0.0,0.0,0.0,0.0,0.0,0.0,0.0,0.0,0.0,0.0,0.0,0.0,0.0,0.0,0.0,-3.9983,-3.9963,-3.9922,-3.9808,-3.9808,-3.9808,-3.9808,-3.9683,-3.9585,-3.9514,-3.9679,-4.0182,-4.0939,-4.1973,-4.2908,-4.3737,-4.431,-4.4572,-4.4572,-4.4572,-4.4714,-4.4943,-4.48,-4.4825,-4.4973,-4.4973,-4.4903,-4.4788,-4.4788,-4.4788,-4.4959,0.0,0.0,0.0,-2.582,-2.6484,-2.707,-2.7266,-2.7949,-2.8769,0.0,-2.9824,-3.0176,-3.0957,-3.2441,-3.3105,-3.2402,-3.2324,-3.2324,-3.2324,-3.1601,-3.1523,-3.2305,-3.2324,-3.2676,-3.3379,-3.3409,-3.34,-3.3403,-3.34,-3.3814,-3.4599,-3.4583,-3.4604,-3.4653,-3.5272,-3.4698,-3.3358,-3.4891,0.0,-3.4471,-3.5458,-3.6265,0.0,0.0,-3.7677,-3.847,-3.9327,-3.9636,-3.9752,-4.0545,-4.0216,0.0,0.0,0.0,0.0,0.0,-3.8193,-3.8206,-3.8201,-3.8195,-3.7996,-3.7154,0.0,0.0,-3.5554,-3.5502,-3.5526,0.0,0.0,0.0,0.0,0.0,0.0,0.0,0.0,0.0,0.0,0.0,0.0,0.0,0.0,0.0,0.0,-4.0035,-4.0433,-4.0251,-4.0233,-4.012,-3.9893,-3.9882,-3.9882,-3.9882,-3.9851,-3.9761,-3.958,-4.0001,-4.0548,-4.1293,-4.2274,-4.3215,-4.4113,-4.46,-4.4837,-4.4837,-4.4837,-4.4985,-4.5201,-4.5232,-4.5243,-4.5243,-4.5243,-4.5096,-4.4884,-4.4884,-4.4884,-4.5131,0.0,0.0,0.0,0.0,0.0,-2.7461,-2.8887,-2.9238,-2.9668,-3.0527,-3.1269,-3.1758,-3.1934,-3.2812,-3.334,-3.3184,-3.3164,-3.3164,-3.3164,-3.3008,-3.2988,-3.3164,-3.3164,-3.3242,-3.3398,-3.3398,-3.3397,-3.3398,-3.3397,-3.3802,-3.4596,-3.454,-3.4857,-3.5441,-3.4904,-3.4471,-3.4181,0.0,0.0,-3.4529,-3.6052,0.0,-3.7058,-3.8456,-3.9094,-3.9365,-4.0236,-4.0545,-4.0565,-4.0739,-4.0216,-3.9462,0.0,0.0,0.0,-3.8193,0.0,0.0,0.0,0.0,0.0,0.0,0.0,0.0,-3.5893,-3.5534,-3.5509,0.0,0.0,0.0,0.0,0.0,0.0,0.0,0.0,0.0,0.0,0.0,0.0,0.0,0.0,0.0,0.0,-4.0035,-4.0481,-4.0449,-4.0449,-4.0414,-4.0381,-4.0353,-4.0353,-4.0353,-4.0213,-4.011,-4.0061,-4.0148,-4.0931,-4.2391,-4.2831,-4.3822,-4.5263,-4.5166,-4.5118,-4.5118,-4.5118,-4.514,-4.5222,-4.5429,-4.5513,-4.5513,-4.5513,-4.5495,-4.5438,-4.5438,-4.5438,-4.5688,0.0,-2.599,-2.6442,0.0,0.0,0.0,-2.9473,-2.9961,-3.0566,-3.1426,-3.2656,-3.3281,-3.2851,-3.3926,-3.4512,-3.4082,-3.4043,-3.4043,-3.4043,-3.3633,-3.3594,-3.4023,-3.4043,-3.4258,-3.4687,-3.4277,-3.4258,-3.4707,-3.4258,-3.445,-3.5249,-3.5171,-3.5344,-3.5674,-3.5233,-3.5051,-3.5051,0.0,-3.5051,-3.5168,-3.64,0.0,-3.7696,-3.8998,-3.9771,-4.0216,-4.0642,-4.0797,-4.0797,-4.0797,-4.0507,0.0,0.0,-3.9849,-3.9495,0.0,-3.9495,-3.9495,0.0,0.0,0.0,-3.8953,0.0,0.0,0.0,-3.6196,-3.5541,0.0,0.0,0.0,0.0,0.0,0.0,0.0,0.0,0.0,0.0,0.0,0.0,0.0,0.0,0.0,0.0,-3.8757,-3.9438,-3.9881,-4.0265,-4.0496,-4.0496,-4.0496,-4.0496,-4.0496,-4.0397,-4.0304,-4.0205,-4.0736,-4.1559,-4.2718,-4.3384,-4.4374,-4.5605,-4.5448,-4.54,-4.54,-4.54,-4.54,-4.541,-4.5531,-4.5594,-4.5594,-4.5594,-4.5594,-4.5594,-4.5594,-4.5883,-4.6432,-2.563,-2.6303,-2.6976,0.0,0.0,0.0,-2.9824,-3.0449,-3.1211,-3.207,-3.3652,-3.4434,-3.373,-3.5059,-3.5723,-3.5019,-3.4941,-3.4941,-3.4941,-3.4297,-3.4219,-3.4922,-3.4941,-3.5273,-3.5976,-3.5312,-3.5293,-3.5996,-3.5293,-3.5272,-3.5922,-3.5849,-3.5774,-3.5718,-3.5708,-3.5706,-3.5704,0.0,0.0,-3.5994,0.0,-3.7574,-3.8309,-3.9346,-4.0197,-4.0797,-4.0797,-4.0797,-4.0797,-4.0797,-4.0797,-4.0797,-4.0797,-4.0797,0.0,0.0,0.0,0.0,0.0,0.0,0.0,0.0,0.0,-3.9239,0.0,0.0,0.0,0.0,0.0,0.0,0.0,0.0,0.0,0.0,0.0,0.0,0.0,0.0,0.0,0.0,0.0,0.0,0.0,-3.7738,-3.8604,-3.9477,-3.9996,-4.0342,-4.0496,-4.0496,-4.0496,-4.0496,-4.0669,-4.0674,-4.0508,-4.153,-4.2375,-4.3025,-4.3881,-4.4759,-4.5594,-4.5594,-4.5594,-4.5594,-4.5594,-4.5594,-4.5594,-4.5594,-4.5594,-4.5594,-4.5594,-4.5594,-4.5614,-4.5787,-4.6297,-4.7038,-2.5728,-2.6295,-2.7162,-2.8002,0.0,0.0,0.0,-3.0838,-3.119,-3.201,-3.3613,-3.4668,-3.4551,-3.543,-3.5957,-3.5859,-3.5859,-3.5859,-3.5859,-3.5762,-3.5742,-3.5859,-3.5859,-3.5898,-3.5996,-3.5898,-3.5898,-3.5996,-3.5898,-3.5898,-3.5996,-3.5923,-3.5849,-3.5797,-3.5722,-3.5694,-3.5704,0.0,-3.611,0.0,-3.769,-3.8115,0.0,-4.0036,-4.0719,-4.0797,-4.0797,-4.0797,-4.0797,0.0,-4.0797,-4.0797,0.0,-4.0797,-4.0797,-4.0797,0.0,0.0,0.0,0.0,0.0,0.0,-4.1377,0.0,0.0,0.0,0.0,0.0,0.0,0.0,0.0,0.0,0.0,0.0,0.0,0.0,0.0,0.0,0.0,0.0,0.0,0.0,0.0,0.0,-3.9496,-4.0304,-3.9785,-3.9746,-4.0458,-4.0496,-4.0496,-4.0496,-4.1258,-4.1646,-4.161,-4.2519,-4.3346,-4.4117,-4.4231,-4.4759,-4.5594,-4.5594,-4.5594,-4.5594,-4.5594,-4.5594,-4.5594,-4.5594,-4.5594,-4.5594,-4.5594,-4.5594,-4.5691,-4.6471,-4.6817,-4.7144,-2.6285,-2.7378,-2.8489,-2.8918,0.0,0.0,0.0,-3.1735,-3.2653,-3.3493,-3.4686,-3.5449,-3.5449,-3.5781,-3.5996,-3.5996,0.0,-3.5996,0.0,0.0,-3.5996,-3.5996,-3.5996,-3.5996,-3.5996,-3.5996,-3.5996,-3.5996,-3.5996,-3.5996,-3.5996,-3.5926,-3.5857,-3.5808,-3.5737,0.0,-3.5704,0.0,-3.5897,0.0,0.0,0.0,0.0,-3.9939,-4.0797,-4.0797,-4.0797,-4.0797,-4.0797,0.0,-4.0797,0.0,0.0,0.0,0.0,0.0,0.0,0.0,0.0,0.0,0.0,0.0,0.0,0.0,-4.0803,0.0,-3.965,0.0,0.0,0.0,0.0,0.0,0.0,0.0,0.0,0.0,0.0,0.0,0.0,0.0,0.0,0.0,0.0,0.0,0.0,0.0,0.0,-3.9457,-3.9785,-4.0246,-4.0496,-4.0496,-4.1354,-4.1788,-4.1788,-4.3124,-4.397,-4.4316,-4.4797,-4.5248,-4.5594,-4.5594,-4.5594,-4.5594,-4.5594,-4.5594,-4.5594,-4.5594,-4.5594,-4.5594,-4.5594,-4.5594,-4.571,-4.6586,-4.7201,-4.7778,-2.7387,-2.8472,-2.9419,-2.9492,0.0,0.0,0.0,-3.267,-3.3979,-3.4624,-3.5467,-3.5995,-3.5995,-3.5996,0.0,0.0,-3.5996,-3.5996,0.0,0.0,-3.5996,0.0,0.0,0.0,0.0,-3.5996,-3.5996,-3.5996,-3.5996,-3.5996,-3.5996,-3.5951,-3.5892,-3.5812,0.0,-3.584,-3.6061,0.0,-3.6325,-3.6875,-3.8075,-3.8315,-3.8141,-3.981,-4.0584,-4.0797,-4.0797,-4.0797,-4.0797,-4.0797,-4.0797,0.0,-4.0797,0.0,0.0,0.0,0.0,0.0,-4.2589,0.0,0.0,0.0,0.0,0.0,0.0,0.0,0.0,0.0,0.0,0.0,0.0,0.0,0.0,0.0,0.0,0.0,0.0,0.0,0.0,0.0,0.0,0.0,0.0,0.0,0.0,0.0,-3.8238,-3.9053,-3.9284,-4.0054,-4.0612,-4.0854,-4.17,-4.2258,-4.2489,-4.3932,-4.4662,-4.4662,-4.5306,-4.5594,-4.5594,-4.5594,-4.5594,-4.5594,-4.5594,-4.5594,-4.5594,-4.5594,-4.5594,-4.5594,-4.5594,-4.5594,-4.5729,-4.6836,-4.7471,-4.7971,-2.9128,-2.9265,-2.9418,-2.9489,0.0,0.0,0.0,0.0,0.0,0.0,0.0,0.0,0.0,0.0,0.0,0.0,0.0,-3.5996,-3.5996,0.0,-3.5996,0.0,0.0,-3.5996,0.0,0.0,0.0,-3.5996,-3.5996,-3.5996,-3.5996,-3.5996,-3.5953,-3.5892,-3.5831,-3.6239,-3.6951,-3.6894,-3.7864,-3.9465,-3.9456,-3.9946,-4.0584,0.0,-4.0062,-4.0797,-4.0797,0.0,0.0,-4.0797,-4.0797,0.0,0.0,0.0,0.0,0.0,0.0,0.0,0.0,0.0,0.0,-4.5291,0.0,0.0,0.0,0.0,-4.3879,0.0,0.0,0.0,0.0,0.0,-4.0069,-3.8376,-3.8781,0.0,0.0,0.0,0.0,0.0,0.0,0.0,0.0,0.0,0.0,-3.7892,-3.8007,-3.8411,-3.9246,-4.0054,-4.0893,-4.1731,-4.2604,-4.3431,-4.4201,-4.5114,-4.5556,-4.5556,-4.5594,-4.5594,-4.5594,-4.5594,-4.5594,-4.5594,-4.5594,-4.5594,-4.5594,-4.5594,-4.5594,-4.5594,-4.5594,-4.5594,-4.5806,-4.7451,-4.7586,-4.7298,-2.9959,-3.0178,-3.0261,0.0,0.0,0.0,0.0,-3.4323,0.0,0.0,0.0,0.0,0.0,-3.6855,-3.6621,0.0,0.0,-3.5996,-3.5996,-3.5996,0.0,0.0,0.0,-3.5996,0.0,0.0,0.0,0.0,0.0,-3.6309,-3.6855,-3.6269,-3.5954,-3.5893,0.0,-3.6242,0.0,0.0,0.0,0.0,0.0,-3.9558,-4.0828,0.0,0.0,-4.0797,-4.0797,-4.0797,0.0,-4.0797,-4.0797,-4.0797,-4.0797,-4.1164,-4.1641,-4.1912,-4.2821,0.0,0.0,0.0,-4.5091,-4.5659,0.0,0.0,0.0,0.0,0.0,0.0,0.0,0.0,0.0,0.0,-4.0494,-3.9862,-3.9525,-3.9035,0.0,0.0,0.0,0.0,0.0,0.0,0.0,0.0,0.0,-3.6327,-3.7373,-3.8123,0.0,-3.9746,-4.0893,-4.1769,-4.2643,-4.3489,-4.4297,-4.5171,-4.5594,-4.5594,-4.5594,-4.5594,-4.5594,-4.5594,-4.5594,-4.5594,-4.5594,-4.5594,-4.5594,-4.5594,-4.5594,-4.5594,-4.5594,-4.5594,-4.5748,-4.6874,-4.7135,-4.7182,-3.0817,0.0,0.0,0.0,0.0,0.0,0.0,0.0,0.0,0.0,-3.7297,0.0,-3.7298,0.0,-3.6601,0.0,-3.5995,-3.5995,-3.5996,-3.5996,0.0,-3.5996,-3.5996,0.0,0.0,0.0,0.0,0.0,0.0,-3.6758,-3.7285,-3.6738,-3.6268,-3.5946,0.0,-3.6719,-3.7502,0.0,-3.8389,0.0,0.0,-3.996,0.0,0.0,-4.0834,-4.0797,0.0,-4.0797,-4.0797,-4.0797,-4.0797,-4.0855,-4.1145,-4.139,-4.1751,-4.2667,-4.3646,-4.4536,-4.4929,-4.5413,0.0,-4.5794,-4.5794,0.0,-4.5808,0.0,0.0,0.0,0.0,0.0,0.0,0.0,-4.1035,-4.066,-4.0123,-3.9644,0.0,-3.8546,0.0,0.0,0.0,0.0,0.0,0.0,-3.5615,-3.5904,-3.7219,-3.8142,0.0,0.0,-4.1354,-4.2239,-4.3085,-4.3912,-4.4739,-4.5325,-4.5594,-4.5594,-4.5594,-4.5594,-4.5594,-4.5594,-4.5594,-4.5594,-4.5594,-4.5594,-4.5594,-4.5594,-4.5594,-4.5594,-4.5594,-4.5594,-4.571,-4.6586,-4.7077,-4.749,0.0,0.0,0.0,0.0,-3.2324,0.0,0.0,0.0,-3.7252,0.0,-3.7296,-3.7298,-3.7297,-3.6557,-3.605,-3.5991,-3.5991,-3.5992,-3.5995,-3.5995,0.0,0.0,-3.5996,-3.5996,-3.5996,0.0,0.0,0.0,0.0,0.0,-3.7363,-3.7363,-3.6914,-3.6152,-3.6868,0.0,-3.8526,-3.928,-4.0155,-4.1003,-4.1074,-4.1066,-4.0997,-4.0994,-4.0915,-4.0815,-4.0815,-4.0815,-4.0815,-4.0815,-4.0809,-4.0958,-4.1751,-4.148,-4.1371,-4.3878,-4.4458,-4.4497,-4.551,-4.5807,-4.5807,-4.5807,0.0,0.0,0.0,0.0,-4.5807,0.0,0.0,0.0,0.0,0.0,0.0,-4.0814,-4.0626,-4.0309,0.0,0.0,0.0,0.0,0.0,0.0,0.0,-3.6058,-3.5923,-3.6654,-3.7546,-3.843,0.0,0.0,-4.22,-4.3066,-4.3874,-4.472,-4.5594,-4.5594,-4.5594,-4.5594,-4.5594,-4.5594,-4.5594,-4.5594,-4.5594,-4.5594,-4.5594,-4.5594,-4.5594,-4.5594,-4.5594,-4.5594,-4.5594,-4.5594,-4.571,-4.6586,-4.7451,-4.8163,-3.1845,-3.2516,-3.3171,0.0,-3.4057,-3.4666,0.0,0.0,0.0,0.0,-3.7295,-3.7298,-3.7294,-3.7102,-3.6714,-3.6069,-3.5991,0.0,0.0,0.0,0.0,-3.5995,-3.5995,-3.5996,-3.5996,-3.6621,0.0,-3.7305,0.0,0.0,-3.8262,0.0,0.0,0.0,0.0,0.0,-3.9449,-3.9616,-4.0212,-4.1076,-4.1085,-4.1083,0.0,0.0,-4.099,-4.0953,-4.0953,-4.0953,-4.0953,-4.0953,-4.093,-4.1004,-4.1814,-4.2077,-4.2395,-4.4091,-4.4968,-4.5452,-4.5729,-4.5807,-4.5807,-4.5807,-4.5807,-4.5807,0.0,0.0,0.0,0.0,0.0,0.0,0.0,0.0,0.0,-4.1702,-4.0988,-4.0442,0.0,0.0,0.0,0.0,0.0,0.0,0.0,-3.7103,-3.718,-3.6731,-3.8104,0.0,0.0,0.0,0.0,-4.3066,-4.3874,-4.472,-4.5594,-4.5594,-4.5594,-4.5594,-4.5594,-4.5594,-4.5594,-4.5594,-4.5594,-4.5594,-4.5594,-4.5594,-4.5594,-4.5594,-4.5594,-4.5594,-4.5594,-4.5594,-4.571,-4.6586,-4.7817,-4.9067,-3.235,0.0,0.0,-3.5171,0.0,0.0,-3.5934,0.0,0.0,-3.7244,-3.7309,0.0,-3.7308,-3.6959,-3.6531,-3.6043,-3.6004,0.0,-3.6008,0.0,0.0,-3.5993,-3.5993,-3.6189,-3.6561,-3.705,0.0,-3.8437,0.0,0.0,-3.916,0.0,0.0,0.0,0.0,-3.9331,-3.9818,-4.0168,-4.0621,-4.1091,-4.1122,0.0,0.0,-4.1108,-4.1081,-4.1081,-4.1081,-4.1054,-4.099,-4.099,-4.0963,-4.1104,-4.2034,-4.2563,-4.3155,-4.4752,-4.5548,-4.5931,-4.5892,-4.5841,-4.5803,-4.5801,-4.5807,-4.5807,-4.5807,-4.5807,-4.5807,0.0,0.0,0.0,0.0,0.0,0.0,0.0,0.0,0.0,0.0,0.0,0.0,0.0,0.0,0.0,0.0,0.0,0.0,0.0,0.0,0.0,0.0,0.0,0.0,-4.3085,-4.4239,-4.5094,-4.5594,-4.5594,-4.5594,-4.5594,-4.5594,-4.5594,-4.5594,-4.5594,-4.5594,-4.5594,-4.5594,-4.5594,-4.5594,-4.5594,-4.5594,-4.5594,-4.5594,-4.5825,-4.6278,-4.7105,-4.7798,-4.8413,0.0,0.0,0.0,0.0,0.0,0.0,0.0,-3.6636,0.0,-3.7126,0.0,-3.7126,-3.7126,-3.6441,-3.5992,-3.5992,0.0,-3.5995,-3.6002,-3.6003,-3.6005,-3.599,-3.5991,-3.64,-3.7279,-3.7419,0.0,0.0,0.0,0.0,0.0,0.0,0.0,0.0,0.0,0.0,0.0,-4.0783,-4.1115,-4.1116,-4.1171,-4.1191,-4.1191,-4.1191,-4.1191,-4.1191,-4.1191,-4.1138,-4.1037,-4.1037,-4.1089,-4.1356,-4.2409,-4.3065,-4.3783,-4.5514,-4.604,-4.6084,-4.6027,-4.5925,-4.5841,-4.5835,-4.5841,-4.5835,-4.5841,-4.5834,-4.5827,-4.5807,-4.5807,-4.5587,0.0,0.0,0.0,0.0,0.0,0.0,0.0,0.0,0.0,0.0,0.0,0.0,0.0,0.0,0.0,0.0,0.0,0.0,0.0,0.0,0.0,-4.3258,-4.4786,0.0,-4.5594,0.0,-4.5594,-4.5594,-4.5594,-4.5594,-4.5594,-4.5594,-4.5594,-4.5594,-4.5594,-4.5594,-4.5594,-4.5594,-4.5594,-4.5594,-4.5594,-4.6067,-4.6836,-4.7644,-4.7567,-4.7298,0.0,0.0,0.0,0.0,0.0,-3.5992,-3.5992,-3.6129,-3.6226,-3.6226,-3.6226,-3.6226,-3.6226,-3.609,-3.5992,-3.5992,-3.5992,0.0,0.0,0.0,0.0,-3.6005,-3.6005,-3.6417,-3.7279,-3.8002,-3.8512,0.0,0.0,0.0,0.0,0.0,0.0,0.0,0.0,0.0,-4.0956,-4.1113,0.0,-4.1171,-4.1191,-4.1191,-4.1191,-4.1191,-4.1191,-4.1191,-4.1191,-4.1171,-4.1169,-4.1169,-4.1569,-4.2231,-4.3146,-4.3821,-4.4527,-4.5732,-4.6079,-4.6098,-4.6084,-4.608,-4.6057,-4.6041,-4.6056,-4.6039,-4.5972,-4.595,-4.5922,-4.5808,-4.5807,-4.5768,-4.5633,0.0,0.0,0.0,0.0,0.0,0.0,0.0,0.0,0.0,0.0,0.0,0.0,0.0,0.0,0.0,0.0,0.0,0.0,0.0,0.0,0.0,0.0,0.0,0.0,0.0,-4.5594,-4.5594,-4.5594,-4.5594,-4.5594,-4.5594,-4.5594,-4.5594,-4.5594,-4.5594,-4.5594,-4.5594,-4.5594,-4.5594,-4.5594,-4.5691,-4.5932,-4.6797,-4.7451,-4.8144,0.0,0.0,0.0,0.0,0.0,0.0,0.0,-3.6677,0.0,-3.6051,-3.5992,-3.5992,-3.5992,-3.5992,-3.5992,-3.5992,-3.5992,-3.5992,-3.5992,-3.5992,-3.5994,-3.5999,-3.6428,0.0,-3.7956,-3.8837,-3.9484,-3.9898,0.0,0.0,0.0,0.0,0.0,0.0,0.0,-4.1171,0.0,0.0,0.0,-4.1147,-4.1191,-4.1191,-4.1191,-4.1191,-4.1191,-4.1191,-4.1191,-4.1191,-4.1269,-4.168,-4.2069,-4.2494,-4.3372,-4.4069,-4.4761,-4.5874,-4.6204,-4.62,-4.6158,-4.615,-4.6142,-4.6109,-4.6098,-4.6091,-4.6072,-4.6059,-4.6026,-4.5978,-4.5968,-4.5947,-4.5904,-4.555,0.0,0.0,0.0,0.0,0.0,0.0,0.0,0.0,0.0,0.0,0.0,0.0,0.0,0.0,0.0,0.0,0.0,0.0,0.0,0.0,0.0,0.0,0.0,0.0,0.0,-4.5594,-4.5594,-4.5594,-4.5594,-4.5594,-4.5594,-4.5594,-4.5594,-4.5594,-4.5594,-4.5594,-4.5594,-4.5594,-4.5594,-4.5594,-4.571,-4.6586,-4.7413,-4.8279,0.0,-3.7618,0.0,0.0,-3.7594,0.0,-3.7028,-3.7028,-3.6774,-3.609,-3.5992,-3.5992,-3.5992,-3.5992,-3.5992,-3.5992,-3.6168,-3.6285,-3.6285,-3.6441,-3.6558,-3.6558,-3.7204,-3.7985,-3.8845,-3.9534,-4.0281,0.0,0.0,0.0,0.0,0.0,0.0,0.0,0.0,0.0,0.0,0.0,-4.1326,-4.1139,-4.1366,-4.1348,-4.1191,-4.1191,-4.1191,-4.1191,-4.1191,-4.1191,-4.1348,-4.2344,-4.2558,-4.2539,-4.3281,-4.4062,-4.4902,-4.5976,-4.6308,-4.6289,-4.6239,-4.6213,-4.6207,-4.6153,-4.6142,-4.6139,-4.6125,-4.6122,-4.6118,-4.6102,-4.6098,-4.608,-4.6032,-4.6013,0.0,0.0,0.0,0.0,0.0,0.0,0.0,0.0,0.0,0.0,0.0,0.0,0.0,0.0,0.0,0.0,0.0,0.0,0.0,0.0,0.0,-4.5594,-4.5594,0.0,-4.5594,0.0,-4.5594,-4.5594,-4.5594,-4.5594,-4.5594,-4.5594,-4.5594,-4.5594,-4.5594,-4.5594,-4.5594,-4.5594,-4.5594,-4.5594,-4.5691,-4.6374,-4.7144,-4.7971,0.0,0.0,0.0,0.0,0.0,0.0,0.0,-3.6129,-3.609,-3.6012,-3.5992,-3.5992,-3.5992,-3.5992,-3.5992,-3.5992,-3.6716,-3.7184,-3.7184,-3.7927,-3.8357,-3.8357,-3.8435,-3.8864,-3.9663,-3.9761,-4.0234,0.0,0.0,0.0,0.0,0.0,0.0,0.0,0.0,0.0,0.0,-4.1973,-4.1855,-4.125,-4.1992,-4.1855,-4.1191,-4.1191,-4.1191,-4.1191,-4.1191,-4.1191,-4.1445,-4.3047,-4.3047,-4.2461,-4.2851,-4.3887,-4.5137,-4.6035,-4.6308,-4.6308,-4.6289,-4.6289,-4.6289,-4.6288,-4.6288,-4.6266,-4.6206,-4.6197,-4.6167,-4.6112,-4.6098,-4.6098,-4.6091,-4.6087,-4.6064,0.0,0.0,0.0,0.0,0.0,0.0,0.0,0.0,0.0,0.0,0.0,0.0,0.0,0.0,0.0,0.0,0.0,0.0,-4.5325,0.0,-4.5594,-4.5594,-4.5594,0.0,-4.5594,-4.5594,-4.5594,-4.5594,-4.5594,-4.5594,-4.5594,-4.5594,-4.5594,-4.5594,-4.5594,-4.5594,-4.5594,-4.5594,-4.5594,-4.5614,-4.5691,-4.6278,-4.7135,0.0,0.0,0.0,0.0,0.0,0.0,0.0,-3.7126,-3.6774,-3.6774,-3.6324,-3.5992,-3.5992,-3.6461,-3.6774,-3.6774,-3.7575,-3.8084,-3.8084,-3.8415,-3.8591,-3.8591,-3.906,-3.9468,-3.98,-4.0307,-4.0741,0.0,0.0,0.0,0.0,0.0,0.0,0.0,0.0,-4.2207,-4.2695,-4.248,-4.2207,-4.1953,-4.2266,-4.1914,-4.125,-4.1738,-4.1621,-4.1191,-4.1191,-4.1504,-4.2012,-4.2695,-4.3047,-4.3203,-4.334,-4.4473,-4.5859,-4.6191,-4.6308,-4.6308,-4.6308,-4.6308,-4.6308,-4.6308,-4.6308,-4.6289,-4.6266,-4.6265,-4.6244,-4.6234,-4.6213,-4.6207,-4.6162,-4.6158,-4.6139,0.0,0.0,0.0,0.0,0.0,0.0,0.0,0.0,0.0,0.0,0.0,0.0,0.0,0.0,0.0,0.0,0.0,0.0,-4.4797,0.0,-4.5594,-4.5594,-4.5594,-4.5594,-4.5594,-4.5594,-4.5594,-4.5594,-4.5594,-4.5594,-4.5594,-4.5594,-4.5594,-4.5594,-4.5594,-4.5594,-4.5594,-4.5594,-4.5594,-4.5594,-4.5594,-4.6144,-4.7019,-4.0918,0.0,-3.8943,0.0,-3.8473,-3.7809,-3.8162,-3.7908,-3.7672,-3.7672,-3.7145,-3.6677,-3.6402,-3.7165,-3.7672,-3.7672,-3.8454,-3.8942,-3.8942,-3.9196,-3.9333,-3.9333,-3.9878,0.0,-4.0561,-4.1166,-4.1618,-4.1857,-4.1859,0.0,0.0,0.0,0.0,0.0,-4.2773,-4.3125,-4.3672,-4.332,-4.3027,-4.2793,-4.3066,-4.2519,-4.1641,-4.2461,-4.2266,-4.1543,-4.1543,-4.1914,-4.2402,-4.2402,-4.2988,-4.3691,-4.3691,-4.4668,-4.5879,-4.6191,-4.6308,-4.6308,-4.6308,-4.6308,-4.6308,-4.6308,-4.6308,-4.6308,-4.6308,-4.6308,-4.6308,-4.6308,-4.6308,-4.6288,-4.6239,-4.6237,-4.6207,-4.6139,0.0,0.0,0.0,0.0,0.0,0.0,-4.3662,-4.3021,-4.1424,0.0,0.0,0.0,0.0,0.0,0.0,0.0,0.0,0.0,0.0,0.0,0.0,-4.5594,-4.5594,-4.5594,-4.5594,-4.5594,-4.5594,-4.5594,-4.5594,-4.5594,-4.5594,-4.5594,-4.5594,-4.5594,-4.5594,-4.5594,-4.5594,-4.5594,-4.5594,-4.5594,-4.599,-4.6644,-4.0791,-4.0259,-3.9546,-3.8747,-3.8591,-3.8298,-3.7458,-3.8045,-3.8572,-3.8572,-3.8572,-3.824,-3.7379,-3.8064,-3.8572,-3.8572,-3.9312,-3.98,-3.98,-4.0581,-4.107,0.0,0.0,-4.1498,-4.2357,-4.2376,-4.2806,-4.3666,0.0,0.0,-4.3675,0.0,-4.3667,-4.369,-4.369,-4.3691,-4.3769,-4.4609,-4.4473,-4.3769,-4.4629,-4.3926,-4.248,-4.3359,-4.3144,-4.2383,-4.2383,-4.2383,-4.2402,-4.2402,-4.2988,-4.3691,-4.3691,-4.4121,-4.4844,-4.5976,-4.6308,-4.6308,-4.6308,-4.6308,-4.6308,-4.6308,-4.6308,-4.6308,-4.6308,-4.6308,-4.6308,-4.6308,-4.6308,-4.6308,-4.6308,-4.6308,-4.6288,-4.6207,0.0,0.0,0.0,0.0,0.0,0.0,-4.453,-4.411,-4.3168,0.0,0.0,0.0,0.0,0.0,0.0,0.0,0.0,-4.5556,-4.5594,0.0,-4.5594,-4.5594,-4.5594,-4.5594,-4.5594,-4.5594,-4.5594,-4.5594,-4.5594,-4.5594,-4.5594,-4.5594,-4.5594,-4.5594,-4.5594,-4.5594,-4.5594,-4.5594,-4.5594,-4.5594,-4.5614,-4.5748,-4.1,-4.035,-3.9546,-3.8747,-3.8591,-3.8318,-3.7438,-3.8045,-3.8591,-3.8591,-3.9079,-3.9312,-3.9039,-3.9253,-3.9429,0.0,-4.019,-4.0698,0.0,-4.0953,-4.1363,-4.1967,-4.1986,-4.2396,-4.3274,-4.3294,-4.3411,-4.3705,0.0,0.0,0.0,-4.3695,-4.4014,-4.4585,-4.4587,-4.4921,-4.5449,-4.5137,-4.4844,-4.4609,-4.4883,-4.4316,-4.3379,-4.4258,-4.4043,-4.3281,-4.3281,-4.3672,-4.418,-4.418,-4.4746,-4.5469,-4.5469,-4.5605,-4.582,-4.6191,-4.6308,-4.6308,-4.6308,-4.6308,-4.6308,-4.6308,-4.6308,-4.6308,-4.6308,-4.6308,-4.6308,-4.6308,-4.6308,-4.6308,-4.6308,-4.6308,-4.6289,-4.6267,-4.6289,0.0,0.0,0.0,0.0,0.0,-4.5266,-4.4953,0.0,-4.3706,0.0,0.0,0.0,0.0,0.0,0.0,0.0,0.0,-4.5594,0.0,-4.5594,-4.5594,-4.5594,-4.5594,-4.5594,-4.5594,-4.5594,-4.5594,-4.5594,-4.5594,-4.5594,-4.5594,-4.5594,-4.5594,-4.5594,-4.5594,-4.5594,-4.5594,-4.5594,-4.5594,-4.5594,-4.5729,-4.0632,-4.0162,-3.9449,-3.8318,-3.863,-3.8767,-3.7926,-3.8786,-3.9548,-3.9548,-3.9977,-4.0288,-4.0288,-4.0581,0.0,-4.0327,-4.1088,-4.1596,-4.1596,-4.189,-4.2318,-4.2864,-4.2884,-4.3294,-4.4172,0.0,0.0,-4.468,-4.468,-4.468,-4.4681,-4.4685,-4.4966,-4.5481,-4.5484,-4.5799,-4.6269,-4.5723,-4.5488,-4.5488,-4.5488,-4.4961,-4.4277,-4.5156,-4.4941,-4.4199,-4.4199,-4.4531,-4.4941,-4.4629,-4.5098,-4.5781,-4.5683,-4.5957,-4.6308,-4.6308,-4.6308,-4.6308,-4.6308,-4.6308,-4.6308,-4.6308,-4.6308,-4.6308,-4.6308,-4.6308,-4.6308,-4.6308,-4.6308,-4.6308,-4.6308,-4.6308,-4.6308,-4.6308,-4.6308,-4.6308,-4.6308,0.0,0.0,0.0,0.0,0.0,0.0,-4.4679,0.0,0.0,0.0,0.0,0.0,0.0,0.0,-4.5594,-4.5594,0.0,-4.5594,-4.5594,-4.5594,-4.5594,-4.5594,-4.5594,-4.5594,-4.5594,-4.5594,-4.5594,-4.5594,-4.5594,-4.5594,-4.5594,-4.5594,-4.5594,-4.5594,-4.5594,-4.5594,-4.5594,-4.5806,-4.6163,-3.9869,-3.9754,0.0,0.0,-3.8687,0.0,-3.8552,-3.984,-4.0934,-4.0934,-4.0973,-4.1051,-4.1187,-4.1908,-4.2103,-4.1343,0.0,0.0,0.0,-4.3255,-4.3725,-4.3782,-4.3782,-4.4192,-4.5068,-4.5088,-4.55,-4.63,-4.63,-4.63,-4.63,-4.6302,-4.629,-4.6301,-4.6302,-4.6306,-4.6308,-4.6308,-4.6308,-4.6308,-4.6308,-4.5801,-4.5176,-4.5996,-4.5801,-4.5098,-4.5098,-4.5098,-4.4961,-4.4141,-4.4414,-4.5058,-4.4805,-4.5449,-4.6308,-4.6308,-4.6308,-4.6308,-4.6308,-4.6308,-4.6308,-4.6308,-4.6308,-4.6308,-4.6308,-4.6308,-4.6308,-4.6308,-4.6308,-4.6308,-4.6308,-4.6308,-4.6308,-4.6308,-4.6308,-4.6308,-4.6308,0.0,0.0,0.0,0.0,0.0,0.0,-4.5853,-4.5827,0.0,0.0,0.0,0.0,0.0,-4.5594,-4.5594,-4.5594,-4.5594,-4.5594,-4.5594,-4.5594,-4.5594,-4.5594,-4.5594,-4.5594,-4.5594,-4.5594,-4.5594,-4.5594,-4.5594,-4.5594,-4.5594,-4.5594,-4.5594,-4.5594,-4.5594,-4.5614,-4.5671,-4.6201,-4.6904,0.0,0.0,-3.9273,-3.7594,-3.8687,-3.9078,-3.695,-3.8082,-3.9196,-3.9196,-3.9722,-4.062,-4.1947,-4.2279,-4.2572,-4.3042,-4.3274,-4.3391,-4.3391,-4.3587,-4.3997,-4.466,-4.4699,-4.5109,-4.5968,-4.5987,-4.6085,-4.63,-4.63,-4.63,-4.63,-4.6306,-4.6295,-4.6301,-4.6305,-4.6307,-4.6308,-4.6308,-4.6308,-4.6308,-4.6308,-4.6172,-4.6016,-4.6211,-4.6172,-4.5996,-4.5996,-4.5996,-4.5957,-4.5742,-4.582,-4.5976,-4.5918,-4.6074,-4.6308,-4.6308,-4.6308,-4.6308,-4.6308,-4.6308,-4.6308,-4.6308,-4.6308,-4.6308,-4.6308,-4.6308,-4.6308,-4.6308,-4.6308,-4.6308,-4.6308,-4.6308,-4.6308,-4.6308,-4.6308,-4.6308,-4.6308,-4.6308,0.0,0.0,-4.6255,-4.6195,-4.6064,-4.6033,-4.5978,0.0,0.0,0.0,0.0,-4.5594,-4.5594,-4.5594,-4.5594,-4.5594,-4.5594,-4.5594,-4.5594,-4.5594,-4.5594,-4.5594,-4.5594,-4.5594,-4.5594,-4.5594,-4.5594,-4.5594,-4.5594,-4.5594,-4.5594,-4.5594,-4.5594,-4.5594,-4.5691,-4.6355,-4.6721,-4.6981,-3.8803,-3.8668,-3.8238,-3.6931,-3.8121,-3.8648,-3.6872,-3.8394,-3.9606,-3.9196,-4.0229,-4.1342,-4.2298,-4.3118,-4.3782,-4.425,-4.4289,-4.4289,-4.4289,-4.466,-4.5109,-4.5578,-4.5597,-4.5812,-4.628,-4.63,-4.63,-4.63,-4.63,-4.63,-4.63,-4.6305,-4.6294,-4.6301,-4.6304,-4.6307,-4.6308,-4.6308,-4.6308,-4.6308,-4.6308,-4.6308,-4.6308,-4.6308,-4.6308,-4.6308,-4.6308,-4.6308,-4.6308,-4.6308,-4.6308,-4.6308,-4.6308,-4.6308,-4.6308,-4.6308,-4.6308,-4.6308,-4.6308,-4.6308,-4.6308,-4.6308,-4.6308,-4.6308,-4.6308,-4.6308,-4.6308,-4.6308,-4.6308,-4.6308,-4.6308,-4.6308,-4.6308,-4.6308,-4.6308,-4.6308,-4.6308,-4.6308,0.0,-4.6302,-4.6301,-4.6272,-4.6209,-4.6138,-4.6045,-4.5958,0.0,0.0,-4.5708,-4.5692,-4.566,-4.5594,-4.5594,-4.5594,-4.5594,-4.5594,-4.5594,-4.5594,-4.5594,-4.5594,-4.5594,-4.5594,-4.5594,-4.5594,-4.5594,-4.5594,-4.5594,-4.5594,-4.5594,-4.5594,-4.5594,-4.5594,-4.571,-4.6586,-4.7135,-4.7567,-3.7961,-3.7671,-3.7419,-3.6539,-3.7711,-3.8494,-3.7633,-3.9333,-4.0543,-4.0054,-4.1283,-4.2357,-4.2747,-4.4112,-4.5049,-4.5187,-4.5207,-4.5207,-4.5207,-4.589,-4.63,-4.63,-4.63,-4.63,-4.63,-4.63,-4.63,-4.63,-4.63,-4.63,-4.63,-4.6302,-4.6291,-4.6301,-4.6302,-4.6306,-4.6308,-4.6308,-4.6308,-4.6308,-4.6308,-4.6308,-4.6308,-4.6308,-4.6308,-4.6308,-4.6308,-4.6308,-4.6308,-4.6308,-4.6308,-4.6308,-4.6308,-4.6308,-4.6308,-4.6308,-4.6308,-4.6308,-4.6308,-4.6308,-4.6308,-4.6308,-4.6308,-4.6308,-4.6308,-4.6308,-4.6308,-4.6308,-4.6308,-4.6308,-4.6308,-4.6308,-4.6308,-4.6308,-4.6308,-4.6308,-4.6308,0.0,-4.6308,-4.6302,-4.6301,-4.6297,-4.6302,-4.6206,-4.6112,-4.6102,-4.5996,-4.5897,0.0,-4.5822,-4.5771,-4.5618,-4.5603,-4.5594,-4.5594,-4.5594,-4.5594,-4.5594,-4.5594,-4.5594,-4.5594,-4.5594,-4.5594,-4.5594,-4.5594,-4.5594,-4.5594,-4.5594,-4.5594,-4.5594,-4.5594,-4.5594,-4.5729,-4.6721,-4.7509,-4.824,-3.9455,-3.9403,-3.9156,-3.8337,-3.898,-3.9331,-3.8513,-3.8728,-3.945,-4.0738,-4.1129,-4.2142,-4.4367,-4.4834,-4.5304,-4.6027,-4.6105,-4.6105,-4.6105,-4.6222,-4.63,-4.63,-4.63,-4.63,-4.63,-4.63,-4.63,-4.63,-4.63,-4.63,-4.63,-4.6308,-4.6295,-4.6301,-4.6305,-4.6307,-4.6308,-4.6308,-4.6308,-4.6308,-4.6308,-4.6308,-4.6308,-4.6308,-4.6308,-4.6308,-4.6308,-4.6308,-4.6308,-4.6308,-4.6308,-4.6308,-4.6308,-4.6308,-4.6308,-4.6308,-4.6308,-4.6308,-4.6308,-4.6308,-4.6308,-4.6308,-4.6308,-4.6308,-4.6308,-4.6308,-4.6308,-4.6308,-4.6308,-4.6308,-4.6308,-4.6308,-4.6308,-4.6308,-4.6308,-4.6308,-4.6308,0.0,-4.6308,-4.6302,-4.6301,-4.6297,-4.6302,-4.6275,-4.6216,-4.6105,-4.6087,-4.6005,-4.5883,-4.5878,-4.5859,-4.5771,-4.5651,-4.5594,-4.5594,-4.5594,-4.5594,-4.5594,-4.5594,-4.5594,-4.5594,-4.5594,-4.5594,-4.5594,-4.5594,-4.5594,-4.5594,-4.5594,-4.5594,-4.5594,-4.5594,-4.5594,-4.5787,-4.7336,-4.799,-4.8336,-3.9187,-3.8865,-3.8639,-3.8564,-3.9114,-3.9507,-3.9273,-4.0034,-4.0912,-4.1693,-4.2611,-4.3665,-4.4873,-4.5421,-4.5851,-4.6261,-4.63,-4.63,-4.63,-4.63,-4.63,-4.63,-4.63,-4.63,-4.63,-4.63,-4.63,-4.63,-4.63,-4.63,-4.63,-4.6305,-4.6293,-4.6301,-4.6304,-4.6307,-4.6308,-4.6308,-4.6308,-4.6308,-4.6308,-4.6308,-4.6308,-4.6308,-4.6308,-4.6308,-4.6308,-4.6308,-4.6308,-4.6308,-4.6308,-4.6308,-4.6308,-4.6308,-4.6308,-4.6308,-4.6308,-4.6308,-4.6308,-4.6308,-4.6308,-4.6308,-4.6308,-4.6308,-4.6308,-4.6308,-4.6308,-4.6308,-4.6308,-4.6308,-4.6308,-4.6308,-4.6308,-4.6308,-4.6308,0.0,0.0,-4.6308,-4.6308,-4.6305,-4.6303,-4.6299,-4.6308,-4.6303,-4.6273,-4.6211,-4.6211,-4.6144,-4.6009,-4.6005,-4.5959,-4.5859,-4.5696,-4.5594,-4.5594,-4.5594,-4.5845,-4.6297,-4.5825,-4.5845,-4.6278,-4.588,-4.5715,-4.5715,-4.5715,-4.5715,-4.5708,-4.5637,-4.5594,-4.5594,-4.5594,-4.5893,-4.6451,-4.7663,-4.8394,-4.8971,-3.8922,-3.8463,-3.8257,-3.8456,-3.9222,-3.9852,-4.007,-4.1417,-4.2549,-4.2941,-4.417,-4.5088,-4.5285,-4.5909,-4.63,-4.63,-4.63,-4.63,-4.63,-4.63,-4.63,-4.63,-4.63,-4.63,-4.63,-4.63,-4.63,-4.63,-4.63,-4.63,-4.63,-4.6303,-4.6291,-4.6301,-4.6302,-4.6306,-4.6308,-4.6308,-4.6308,-4.6308,-4.6308,-4.6308,-4.6308,-4.6308,-4.6308,-4.6308,-4.6308,-4.6308,-4.6308,-4.6308,-4.6308,-4.6308,-4.6308,-4.6308,-4.6308,-4.6308,-4.6308,-4.6308,-4.6308,-4.6308,-4.6308,-4.6308,-4.6308,-4.6308,-4.6308,-4.6308,-4.6308,-4.6308,-4.6308,-4.6308,-4.6308,-4.6308,-4.6308,-4.6308,0.0,0.0,0.0,-4.6308,-4.6308,-4.6307,-4.6305,-4.6301,-4.6294,-4.6308,-4.6303,-4.63,-4.63,-4.6267,-4.6147,-4.6144,-4.6091,-4.5945,-4.5763,-4.5777,-4.597,-4.597,-4.6389,-4.7214,-4.6348,-4.6283,-4.6874,-4.6352,-4.6097,-4.6116,-4.6332,-4.6306,-4.6119,-4.6005,-4.5849,-4.5673,-4.5847,-4.6313,-4.7019,-4.8029,-4.8836,-4.951,-3.9713,-3.9665,-3.9399,-3.8621,-3.9867,-4.0983,-4.0996,-4.1798,-4.2973,-4.46,-4.4912,-4.5304,-4.6124,-4.6261,-4.63,-4.63,-4.63,-4.63,-4.63,-4.63,-4.63,-4.63,-4.63,-4.63,-4.63,-4.63,-4.63,-4.63,-4.63,-4.63,-4.63,-4.6308,-4.6296,-4.6301,-4.6305,-4.6308,-4.6308,-4.6308,-4.6308,-4.6308,-4.6308,-4.6308,-4.6308,-4.6308,-4.6308,-4.6308,-4.6308,-4.6308,-4.6308,-4.6308,-4.6308,-4.6308,-4.6308,-4.6308,-4.6308,-4.6308,-4.6308,-4.6308,-4.6308,-4.6308,-4.6308,-4.6308,-4.6308,-4.6308,-4.6308,-4.6308,-4.6308,-4.6308,-4.6308,-4.6308,-4.6308,-4.6308,-4.6308,-4.6308,0.0,0.0,-4.6308,-4.6308,-4.6308,-4.6307,-4.6307,-4.6304,-4.6294,-4.6293,-4.6309,-4.6302,-4.63,-4.63,-4.6296,-4.6296,-4.6216,-4.6095,-4.5959,-4.6266,-4.7068,-4.7087,-4.7449,-4.8191,-4.7386,-4.6947,-4.6894,-4.6978,-4.6994,-4.704,-4.7913,-4.7842,-4.7098,-4.7087,-4.657,-4.5863,-4.661,-4.6896,-4.7105,-4.8702,-4.9336,-4.951,-4.0691,-3.9992,-3.9455,-3.9329,-4.0891,-4.2281,-4.2661,-4.345,-4.4432,-4.5646,-4.5808,-4.5929,-4.6261,-4.63,-4.63,-4.63,-4.63,-4.63,-4.63,-4.63,-4.63,-4.63,-4.63,-4.63,-4.63,-4.63,-4.63,-4.63,-4.63,-4.63,-4.63,-4.6309,-4.6296,-4.6301,-4.6306,-4.6308,-4.6308,-4.6308,-4.6308,-4.6308,-4.6308,-4.6308,-4.6308,-4.6308,-4.6308,-4.6308,-4.6308,-4.6308,-4.6308,-4.6308,-4.6308,-4.6308,-4.6308,-4.6308,-4.6308,-4.6308,-4.6308,-4.6308,-4.6308,-4.6308,-4.6308,-4.6308,-4.6308,-4.6308,-4.6308,-4.6308,-4.6308,-4.6308,-4.6308,-4.6308,-4.6308,-4.6308,-4.6308,-4.6308,0.0,-4.6308,-4.6308,-4.6308,-4.6308,-4.6308,-4.6307,-4.6305,-4.63,-4.6295,-4.6309,-4.6302,-4.63,-4.63,-4.63,-4.63,-4.6275,-4.6238,-4.6176,-4.6236,-4.639,-4.639,-4.7082,-4.8412,-4.7565,-4.7695,-4.8676,-4.8289,-4.8088,-4.8113,-4.8461,-4.8435,-4.812,-4.8039,-4.7792,-4.7499,-4.7804,-4.8238,-4.8773,-4.9405,-4.9939,-5.0392,-4.1594,-4.0815,-4.0234,-4.0209,-4.1772,-4.3181,-4.3604,-4.4414,-4.5299,-4.6186,-4.6292,-4.6296,-4.63,-4.63,-4.63,-4.63,-4.63,-4.63,-4.63,-4.63,-4.63,-4.63,-4.63,-4.63,-4.63,-4.63,-4.63,-4.63,-4.63,-4.63,-4.63,-4.6309,-4.6296,-4.6301,-4.6306,-4.6308,-4.6308,-4.6308,-4.6308,-4.6308,-4.6308,-4.6308,-4.6308,-4.6308,-4.6308,-4.6308,-4.6308,-4.6308,-4.6308,-4.6308,-4.6308,-4.6308,-4.6308,-4.6308,-4.6308,-4.6308,-4.6308,-4.6308,-4.6308,-4.6308,-4.6308,-4.6308,-4.6308,-4.6308,-4.6308,-4.6308,-4.6308,-4.6308,-4.6308,-4.6308,-4.6308,-4.6308,-4.6308,-4.6308,-4.6308,-4.6308,-4.6308,-4.6308,-4.6308,-4.6308,-4.6308,-4.6307,-4.6304,-4.63,-4.6294,-4.6305,-4.6302,-4.63,-4.63,-4.63,-4.63,-4.63,-4.6573,-4.6621,-4.6446,-4.6679,-4.7654,-4.9333,-4.8482,-4.8681,-4.9782,-4.932,-4.9106,-4.9126,-4.9423,-4.9393,-4.9133,-4.9044,-4.8831,-4.8589,-4.8842,-4.9284,-4.9834,-5.0087,-5.0494,-5.0923,-4.2315,-4.2315,-4.2062,-4.1244,-4.2491,-4.3608,-4.361,-4.4354,-4.5242,-4.6184,-4.6303,-4.6308,-4.63,-4.63,-4.63,-4.63,-4.63,-4.63,-4.63,-4.63,-4.63,-4.63,-4.63,-4.63,-4.63,-4.63,-4.63,-4.63,-4.63,-4.63,-4.63,-4.6309,-4.6296,-4.6301,-4.6306,-4.6308,-4.6308,-4.6308,-4.6308,-4.6308,-4.6308,-4.6308,-4.6308,-4.6308,-4.6308,-4.6308,-4.6308,-4.6308,-4.6308,-4.6308,-4.6308,-4.6308,-4.6308,-4.6308,-4.6308,-4.6308,-4.6308,-4.6308,-4.6308,-4.6308,-4.6308,-4.6308,-4.6308,-4.6308,-4.6308,-4.6308,-4.6308,-4.6308,-4.6308,-4.6308,-4.6308,-4.6308,-4.6308,-4.6308,-4.6308,-4.6308,-4.6308,-4.6308,-4.6308,-4.6308,-4.6308,-4.6308,-4.6307,-4.6304,-4.63,-4.6294,-4.6305,-4.63,-4.63,-4.63,-4.63,-4.63,-4.7159,-4.7606,-4.7625,-4.8408,-4.9594,-5.1183,-5.0388,-4.9939,-4.9826,-4.9947,-5.0002,-5.0065,-5.1004,-5.0906,-5.0104,-5.0104,-4.9552,-4.8794,-4.9609,-4.9867,-4.9918,-5.0703,-5.1008,-5.1008,-4.3328,-4.3211,-4.2939,-4.2081,-4.3371,-4.4504,-4.4511,-4.5253,-4.5911,-4.6192,-4.6267,-4.6298,-4.63,-4.63,-4.63,-4.63,-4.63,-4.63,-4.63,-4.63,-4.63,-4.63,-4.63,-4.63,-4.63,-4.63,-4.63,-4.63,-4.63,-4.63,-4.6302,-4.6295,-4.6301,-4.6302,-4.6307,-4.6308,-4.6308,-4.6308,-4.6308,-4.6308,-4.6308,-4.6308,-4.6308,-4.6308,-4.6308,-4.6308,-4.6308,-4.6308,-4.6308,-4.6308,-4.6308,-4.6308,-4.6308,-4.6308,-4.6308,-4.6308,-4.6308,-4.6308,-4.6308,-4.6308,-4.6308,-4.6308,-4.6308,-4.6308,-4.6308,-4.6308,-4.6308,-4.6308,-4.6308,-4.6308,-4.6308,-4.6308,-4.6308,-4.6308,-4.6308,-4.6308,-4.6308,-4.6308,-4.6308,-4.6308,-4.6308,-4.6308,-4.6307,-4.6304,-4.63,-4.6294,-4.6305,-4.63,-4.63,-4.6885,-4.7217,-4.7217,-4.8017,-4.874,-4.9343,-4.8993,-4.9356,-5.0435,-5.0182,-5.0369,-5.092,-5.0957,-5.0984,-5.1004,-5.1271,-5.1258,-5.1004,-5.1004,-5.084,-5.0613,-5.0867,-5.0935,-5.0959,-5.119,-5.1214,-5.1141,-4.4201,-4.4384,-4.4462,-4.3936,-4.4715,-4.542,-4.542,-4.5852,-4.6201,-4.6206,-4.6264,-4.6296,-4.63,-4.63,-4.63,-4.63,-4.63,-4.63,-4.63,-4.63,-4.63,-4.63,-4.63,-4.63,-4.63,-4.63,-4.63,-4.63,-4.63,-4.63,-4.6302,-4.6294,-4.63,-4.6302,-4.6307,-4.6308,-4.6308,-4.6308,-4.6308,-4.6308,-4.6308,-4.6308,-4.6308,-4.6308,-4.6308,-4.6308,-4.6308,-4.6308,-4.6308,-4.6308,-4.6308,-4.6308,-4.6308,-4.6308,-4.6308,-4.6308,-4.6308,-4.6308,-4.6308,-4.6308,-4.6308,-4.6308,-4.6308,-4.6308,-4.6308,-4.6308,-4.6308,-4.6308,-4.6308,-4.6308,-4.6308,-4.6308,-4.6308,-4.6308,-4.6308,-4.6308,-4.6308,-4.6308,-4.6308,-4.6308,-4.6308,-4.6308,-4.6308,-4.6306,-4.6301,-4.6294,-4.662,-4.6811,-4.6807,-4.7627,-4.8076,-4.8076,-4.8876,-4.9577,-5.0085,-4.9911,-5.0087,-5.0612,-5.0612,-5.0887,-5.1394,-5.1394,-5.1394,-5.1394,-5.1394,-5.1394,-5.1394,-5.1394,-5.1394,-5.1394,-5.1394,-5.1394,-5.1394,-5.1394,-5.1357,-5.1284,-4.4966,-4.5643,-4.6189,-4.6196,-4.6199,-4.6199,-4.6199,-4.6196,-4.6192,-4.6206,-4.626,-4.629,-4.63,-4.63,-4.63,-4.63,-4.63,-4.63,-4.63,-4.63,-4.63,-4.63,-4.63,-4.63,-4.63,-4.63,-4.63,-4.63,-4.63,-4.63,-4.63,-4.629,-4.6297,-4.6301,-4.6306,-4.6308,-4.6308,-4.6308,-4.6308,-4.6308,-4.6308,-4.6308,-4.6308,-4.6308,-4.6308,-4.6308,-4.6308,-4.6308,-4.6308,-4.6308,-4.6308,-4.6308,-4.6308,-4.6308,-4.6308,-4.6308,-4.6308,-4.6308,-4.6308,-4.6308,-4.6308,-4.6308,-4.6308,-4.6308,-4.6308,-4.6308,-4.6308,-4.6308,-4.6308,-4.6308,-4.6308,-4.6308,-4.6308,-4.6308,-4.6308,-4.6308,-4.6308,-4.6308,-4.6308,-4.6308,-4.6308,-4.6328,-4.6406,-4.6484,-4.6539,-4.6529,-4.7269,-4.7714,-4.7725,-4.8486,-4.8915,-4.8915,-4.9753,-5.0221,-5.0221,-5.1004,-5.1394,-5.1394,-5.1394,-5.1394,-5.1394,-5.1394,-5.1394,-5.1394,-5.1394,-5.1394,-5.1394,-5.1394,-5.1394,-5.1394,-5.1394,-5.1394,-5.1394,-5.1394,-5.1394,-5.1394,-4.5721,-4.592,-4.608,-4.6189,-4.6199,-4.6203,-4.6196,-4.6192,-4.6228,-4.6279,-4.629,-4.6298,-4.63,-4.63,-4.63,-4.63,-4.63,-4.63,-4.63,-4.63,-4.63,-4.63,-4.63,-4.63,-4.63,-4.63,-4.63,-4.63,-4.63,-4.63,-4.6302,-4.6295,-4.6301,-4.6302,-4.6307,-4.6308,-4.6308,-4.6308,-4.6308,-4.6308,-4.6308,-4.6308,-4.6308,-4.6308,-4.6308,-4.6308,-4.6308,-4.6308,-4.6308,-4.6308,-4.6308,-4.6308,-4.6308,-4.6308,-4.6308,-4.6308,-4.6308,-4.6308,-4.6308,-4.6308,-4.6308,-4.6308,-4.6308,-4.6308,-4.6308,-4.6308,-4.6308,-4.6308,-4.6308,-4.6308,-4.6308,-4.6308,-4.6308,-4.6308,-4.6308,-4.6308,-4.6308,-4.6308,-4.6308,-4.6308,-4.6308,-4.6562,-4.7246,-4.7948,-4.8337,-4.8332,-4.8502,-4.8615,-4.8613,-4.9387,-4.9811,-4.9811,-5.0653,-5.1121,-5.1121,-5.1316,-5.1394,-5.1394,-5.1394,-5.1394,-5.1394,-5.1394,-5.1394,-5.1394,-5.1394,-5.1394,-5.1394,-5.1394,-5.1394,-5.1394,-5.1394,-5.1394,-5.1394,-5.1394,-5.1394,-5.1394,-4.5247,-4.5582,-4.5914,-4.6084,-4.6098,-4.6123,-4.6196,-4.6198,-4.6211,-4.6284,-4.6294,-4.63,-4.63,-4.63,-4.63,-4.63,-4.63,-4.63,-4.63,-4.63,-4.63,-4.63,-4.63,-4.63,-4.63,-4.63,-4.63,-4.63,-4.63,-4.6303,-4.6306,-4.6297,-4.6303,-4.6305,-4.6308,-4.6308,-4.6308,-4.6308,-4.6308,-4.6308,-4.6308,-4.6308,-4.6308,-4.6308,-4.6308,-4.6308,-4.6308,-4.6308,-4.6308,-4.6308,-4.6308,-4.6308,-4.6308,-4.6308,-4.6308,-4.6308,-4.6308,-4.6308,-4.6308,-4.6308,-4.6308,-4.6308,-4.6308,-4.6308,-4.6308,-4.6308,-4.6308,-4.6308,-4.6621,-4.6797,-4.6387,-4.6641,-4.6777,-4.6367,-4.6308,-4.6308,-4.6308,-4.666,-4.6914,-4.6914,-4.7285,-4.7715,-4.8183,-4.8633,-4.8905,-4.8903,-4.9291,-4.9503,-4.9461,-5.0277,-5.0723,-5.0723,-5.1169,-5.1402,-5.1402,-5.1396,-5.1394,-5.1394,-5.1394,-5.1394,-5.1394,-5.1394,-5.1394,-5.1394,-5.1394,-5.1394,-5.1394,-5.1394,-5.1394,-5.1394,-5.1394,-5.1394,-5.1394,-5.1394,-5.1394,-5.1394,-4.4645,-4.5216,-4.5736,-4.5908,-4.5986,-4.6042,-4.616,-4.6192,-4.6214,-4.6286,-4.6296,-4.63,-4.63,-4.63,-4.63,-4.63,-4.63,-4.63,-4.63,-4.63,-4.63,-4.63,-4.63,-4.63,-4.63,-4.63,-4.63,-4.63,-4.63,-4.6305,-4.6293,-4.63,-4.6304,-4.6307,-4.6308,-4.6308,-4.6308,-4.6308,-4.6308,-4.6308,-4.6308,-4.6308,-4.6308,-4.6308,-4.6308,-4.6308,-4.6308,-4.6308,-4.6308,-4.6308,-4.6308,-4.6308,-4.6308,-4.6308,-4.6308,-4.6308,-4.6308,-4.6308,-4.6308,-4.6308,-4.6308,-4.6308,-4.6308,-4.6348,-4.6484,-4.6406,-4.6348,-4.6484,-4.7109,-4.7422,-4.6855,-4.7324,-4.7598,-4.6855,-4.6738,-4.6738,-4.6738,-4.7363,-4.7812,-4.7812,-4.8594,-4.9121,-4.9121,-4.9258,-4.9336,-4.9335,-4.9998,-5.0388,-5.0325,-5.1008,-5.1398,-5.1398,-5.1394,-5.1391,-5.1391,-5.1403,-5.14,-5.14,-5.14,-5.1398,-5.1394,-5.1394,-5.1394,-5.1394,-5.1394,-5.1394,-5.1394,-5.1394,-5.1394,-5.1394,-5.1394,-5.1394,-5.1394,-5.1394,-5.1394,-5.1394,-4.5336,-4.5456,-4.5571,-4.571,-4.5871,-4.6003,-4.6024,-4.6131,-4.6216,-4.6296,-4.63,-4.63,-4.63,-4.63,-4.63,-4.63,-4.63,-4.63,-4.63,-4.63,-4.63,-4.63,-4.63,-4.63,-4.63,-4.63,-4.63,-4.63,-4.63,-4.6305,-4.6293,-4.63,-4.6304,-4.6307,-4.6308,-4.6308,-4.6308,-4.6308,-4.6308,-4.6308,-4.6308,-4.6308,-4.6308,-4.6308,-4.6308,-4.6308,-4.6308,-4.6308,-4.6308,-4.6308,-4.6308,-4.6308,-4.6308,-4.6308,-4.6308,-4.6308,-4.6308,-4.6308,-4.6308,-4.6308,-4.6308,-4.6308,-4.6308,-4.6504,-4.7246,-4.6836,-4.6504,-4.7266,-4.7519,-4.7793,-4.8437,-4.8633,-4.8691,-4.8574,-4.8555,-4.8555,-4.8555,-4.8652,-4.8711,-4.8711,-4.9492,-5.0019,-5.0019,-5.0644,-5.1055,-5.1055,-5.1171,-5.1228,-5.1228,-5.1342,-5.1398,-5.1398,-5.1397,-5.1397,-5.1397,-5.1396,-5.1396,-5.1396,-5.1396,-5.1409,-5.1394,-5.1394,-5.1394,-5.1394,-5.1394,-5.1394,-5.1394,-5.1394,-5.1394,-5.1394,-5.1394,-5.1394,-5.1394,-5.1394,-5.1394,-5.1394,-4.539,-4.539,-4.5428,-4.5563,-4.565,-4.575,-4.5872,-4.6,-4.6105,-4.6178,-4.6247,-4.6273,-4.6206,-4.6184,-4.6214,-4.6298,-4.63,-4.63,-4.63,-4.63,-4.63,-4.63,-4.63,-4.63,-4.63,-4.63,-4.6303,-4.6308,-4.6303,-4.6308,-4.6299,-4.6301,-4.6305,-4.6308,-4.6308,-4.6308,-4.6308,-4.6308,-4.6308,-4.6308,-4.6308,-4.6308,-4.6308,-4.6308,-4.6308,-4.6308,-4.6308,-4.6308,-4.6308,-4.6308,-4.6308,-4.6387,-4.6875,-4.7031,-4.7129,-4.7617,-4.7754,-4.7754,-4.7754,-4.7754,-4.7754,-4.7754,-4.7754,-4.7851,-4.8242,-4.8027,-4.7851,-4.8242,-4.8711,-4.9023,-4.8926,-4.9297,-4.9473,-4.8984,-4.8906,-4.8906,-4.8906,-4.9316,-4.9785,-5.0234,-5.0644,-5.0879,-5.0879,-5.1191,-5.1406,-5.1406,-5.1406,-5.1406,-5.1406,-5.1405,-5.1405,-5.1405,-5.1403,-5.1402,-5.1402,-5.14,-5.1398,-5.1418,-5.1887,-5.1863,-5.1403,-5.1403,-5.14,-5.1394,-5.1394,-5.1394,-5.1394,-5.1394,-5.1394,-5.1394,-5.1394,-5.1394,-5.1394,-5.1394,-5.1394,-5.1394]},{"header":{"parameterUnit":"m.s-1","parameterCategory":1,"la1":30.6,"la2":28.766,"lo1":-90.7593,"lo2":-88.6598,"dy":0.0162,"dx":0.0183,"nx":116,"ny":114,"refTime":"2023-03-23T12:00:00:Z","depth":0,"parameterNumber":3,"parameterNumberName":"V-component_of_WINDS"},"data":[0.0,0.0,0.0,0.0,0.0,0.0,0.0,0.0,0.0,0.0,0.0,0.0,0.0,0.0,0.0,0.0,0.0,0.0,0.0,0.0,0.0,0.0,0.0,0.0,0.0,0.0,0.0,0.0,0.0,0.0,0.0,0.0,0.0,0.0,0.0,0.0,0.0,0.0,0.0,0.0,0.0,0.0,0.0,0.0,0.0,0.0,0.0,0.0,0.0,0.0,0.0,0.0,0.0,0.0,0.0,0.0,0.0,0.0,0.0,0.0,0.0,0.0,0.0,0.0,0.0,0.0,0.0,0.0,0.0,0.0,0.0,0.0,0.0,0.0,0.0,0.0,0.0,0.0,0.0,0.0,0.0,0.0,0.0,0.0,0.0,0.0,0.0,0.0,0.0,0.0,0.0,0.0,0.0,0.0,0.0,0.0,0.0,0.0,0.0,0.0,0.0,0.0,0.0,0.0,0.0,0.0,0.0,0.0,0.0,0.0,0.0,0.0,0.0,0.0,0.0,0.0,0.0,0.0,0.0,0.0,0.0,0.0,0.0,0.0,0.0,0.0,0.0,0.0,0.0,0.0,0.0,0.0,0.0,0.0,0.0,0.0,0.0,0.0,0.0,0.0,0.0,0.0,0.0,0.0,0.0,0.0,0.0,0.0,0.0,0.0,0.0,0.0,0.0,0.0,0.0,0.0,0.0,0.0,0.0,0.0,0.0,0.0,0.0,0.0,0.0,0.0,0.0,0.0,0.0,0.0,0.0,0.0,0.0,0.0,0.0,0.0,0.0,0.0,0.0,0.0,0.0,0.0,0.0,0.0,0.0,0.0,0.0,0.0,0.0,0.0,0.0,0.0,0.0,0.0,0.0,0.0,0.0,0.0,0.0,0.0,0.0,0.0,0.0,0.0,0.0,0.0,0.0,0.0,0.0,0.0,0.0,0.0,0.0,0.0,0.0,0.0,0.0,0.0,0.0,0.0,0.0,0.0,0.0,0.0,0.0,0.0,0.0,0.0,0.0,0.0,0.0,0.0,0.0,0.0,0.0,0.0,0.0,0.0,0.0,0.0,0.0,0.0,0.0,0.0,0.0,0.0,0.0,0.0,0.0,0.0,0.0,0.0,0.0,0.0,0.0,0.0,0.0,0.0,0.0,0.0,0.0,0.0,0.0,0.0,0.0,0.0,0.0,0.0,0.0,0.0,0.0,0.0,0.0,0.0,0.0,0.0,0.0,0.0,0.0,0.0,0.0,0.0,0.0,0.0,0.0,0.0,0.0,0.0,0.0,0.0,0.0,0.0,0.0,0.0,0.0,0.0,0.0,0.0,0.0,0.0,0.0,0.0,0.0,0.0,0.0,0.0,0.0,0.0,0.0,0.0,0.0,0.0,0.0,0.0,0.0,0.0,0.0,0.0,0.0,0.0,0.0,0.0,0.0,0.0,0.0,0.0,0.0,0.0,0.0,0.0,0.0,0.0,0.0,0.0,0.0,0.0,0.0,0.0,0.0,0.0,0.0,0.0,0.0,0.0,0.0,0.0,0.0,0.0,0.0,0.0,0.0,0.0,0.0,0.0,0.0,0.0,0.0,0.0,0.0,0.0,0.0,0.0,0.0,0.0,0.0,0.0,0.0,0.0,0.0,0.0,0.0,0.0,0.0,0.0,0.0,0.0,0.0,0.0,0.0,0.0,0.0,0.0,0.0,0.0,0.0,0.0,0.0,0.0,0.0,0.0,0.0,0.0,0.0,0.0,0.0,0.0,0.0,0.0,0.0,0.0,0.0,0.0,0.0,0.0,0.0,0.0,0.0,0.0,0.0,0.0,0.0,0.0,0.0,0.0,0.0,0.0,0.0,0.0,0.0,0.0,0.0,0.0,0.0,0.0,0.0,0.0,0.0,0.0,0.0,0.0,0.0,0.0,0.0,0.0,0.0,0.0,0.0,0.0,0.0,0.0,0.0,0.0,0.0,0.0,0.0,0.0,0.0,0.0,0.0,0.0,0.0,0.0,0.0,0.0,0.0,0.0,0.0,0.0,0.0,0.0,0.0,0.0,0.0,0.0,0.0,0.0,0.0,0.0,0.0,0.0,0.0,0.0,0.0,0.0,0.0,0.0,0.0,0.0,0.0,0.0,0.0,0.0,0.0,0.0,0.0,0.0,0.0,0.0,0.0,0.0,0.0,0.0,0.0,0.0,0.0,0.0,0.0,0.0,0.0,0.0,0.0,0.0,0.0,0.0,0.0,0.0,0.0,0.0,0.0,0.0,0.0,0.0,0.0,0.0,0.0,0.0,0.0,0.0,0.0,0.0,0.0,0.0,0.0,0.0,0.0,0.0,0.0,0.0,0.0,0.0,0.0,0.0,0.0,0.0,0.0,0.0,0.0,0.0,0.0,0.0,0.0,0.0,0.0,0.0,0.0,0.0,0.0,0.0,0.0,0.0,0.0,0.0,0.0,0.0,0.0,0.0,0.0,0.0,0.0,0.0,0.0,0.0,0.0,0.0,0.0,0.0,0.0,0.0,0.0,0.0,0.0,0.0,0.0,0.0,0.0,0.0,0.0,0.0,0.0,0.0,0.0,0.0,0.0,0.0,0.0,0.0,0.0,0.0,0.0,0.0,0.0,0.0,0.0,0.0,0.0,0.0,0.0,0.0,0.0,0.0,0.0,0.0,0.0,0.0,0.0,0.0,0.0,0.0,0.0,0.0,0.0,0.0,0.0,0.0,0.0,0.0,0.0,0.0,0.0,0.0,0.0,0.0,0.0,0.0,0.0,0.0,0.0,0.0,0.0,0.0,0.0,0.0,0.0,0.0,0.0,0.0,0.0,0.0,0.0,0.0,0.0,0.0,0.0,0.0,0.0,0.0,0.0,0.0,0.0,0.0,0.0,0.0,0.0,0.0,0.0,0.0,0.0,0.0,0.0,0.0,0.0,0.0,0.0,0.0,0.0,0.0,0.0,0.0,0.0,0.0,0.0,0.0,0.0,0.0,0.0,0.0,0.0,0.0,0.0,0.0,0.0,0.0,0.0,0.0,0.0,0.0,0.0,0.0,0.0,0.0,0.0,0.0,0.0,0.0,0.0,0.0,0.0,0.0,0.0,0.0,0.0,0.0,0.0,0.0,0.0,0.0,0.0,0.0,0.0,0.0,0.0,0.0,0.0,0.0,0.0,0.0,0.0,0.0,0.0,0.0,0.0,0.0,0.0,0.0,0.0,0.0,0.0,0.0,0.0,0.0,0.0,0.0,0.0,0.0,0.0,0.0,0.0,0.0,0.0,0.0,0.0,0.0,0.0,0.0,0.0,0.0,0.0,0.0,0.0,0.0,0.0,0.0,0.0,0.0,0.0,0.0,0.0,0.0,0.0,0.0,0.0,0.0,0.0,0.0,0.0,0.0,0.0,0.0,0.0,0.0,0.0,0.0,0.0,0.0,0.0,0.0,0.0,0.0,0.0,0.0,0.0,0.0,0.0,0.0,0.0,0.0,0.0,0.0,0.0,0.0,0.0,0.0,0.0,0.0,0.0,0.0,0.0,0.0,0.0,0.0,0.0,0.0,0.0,0.0,0.0,0.0,0.0,0.0,0.0,0.0,0.0,0.0,0.0,0.0,0.0,0.0,0.0,0.0,0.0,0.0,0.0,0.0,0.0,0.0,0.0,0.0,0.0,0.0,0.0,0.0,0.0,0.0,0.0,0.0,0.0,0.0,0.0,0.0,0.0,0.0,0.0,0.0,0.0,0.0,0.0,0.0,0.0,0.0,0.0,0.0,0.0,0.0,0.0,0.0,0.0,0.0,0.0,0.0,0.0,0.0,0.0,0.0,0.0,0.0,0.0,0.0,0.0,0.0,0.0,0.0,0.0,0.0,0.0,0.0,0.0,0.0,0.0,0.0,0.0,0.0,0.0,0.0,0.0,0.0,0.0,0.0,0.0,0.0,0.0,0.0,0.0,0.0,0.0,0.0,0.0,0.0,0.0,0.0,0.0,0.0,0.0,0.0,0.0,0.0,0.0,0.0,0.0,0.0,0.0,0.0,0.0,0.0,0.0,0.0,0.0,0.0,0.0,0.0,0.0,0.0,0.0,0.0,0.0,0.0,0.0,0.0,0.0,0.0,0.0,0.0,0.0,0.0,0.0,0.0,0.0,0.0,0.0,0.0,0.0,0.0,0.0,0.0,0.0,0.0,0.0,0.0,0.0,0.0,0.0,0.0,0.0,0.0,0.0,0.0,0.0,0.0,0.0,0.0,0.0,0.0,0.0,0.0,0.0,0.0,0.0,0.0,0.0,0.0,0.0,0.0,0.0,0.0,0.0,0.0,0.0,0.0,0.0,0.0,0.0,0.0,0.0,0.0,0.0,0.0,0.0,0.0,0.0,0.0,0.0,0.0,0.0,0.0,0.0,0.0,0.0,0.0,0.0,0.0,0.0,0.0,0.0,0.0,0.0,0.0,0.0,0.0,0.0,0.0,0.0,0.0,0.0,0.0,0.0,0.0,0.0,0.0,0.0,0.0,0.0,0.0,0.0,0.0,0.0,0.0,0.0,0.0,0.0,0.0,0.0,0.0,0.0,0.0,0.0,0.0,0.0,0.0,0.0,0.0,0.0,0.0,0.0,0.0,0.0,0.0,0.0,0.0,0.0,0.0,0.0,0.0,0.0,0.0,0.0,0.0,0.0,0.0,0.0,0.0,0.0,0.0,0.0,0.0,0.0,0.0,0.0,0.0,0.0,0.0,0.0,0.0,0.0,0.0,0.0,0.0,0.0,0.0,0.0,0.0,0.0,0.0,0.0,0.0,0.0,0.0,0.0,0.0,0.0,0.0,0.0,0.0,0.0,0.0,0.0,0.0,0.0,0.0,0.0,0.0,0.0,0.0,0.0,0.0,0.0,0.0,0.0,0.0,0.0,0.0,0.0,0.0,0.0,0.0,0.0,0.0,0.0,0.0,0.0,0.0,0.0,0.0,0.0,0.0,0.0,0.0,0.0,0.0,0.0,0.0,0.0,0.0,0.0,0.0,0.0,0.0,0.0,0.0,0.0,0.0,0.0,0.0,0.0,0.0,0.0,0.0,0.0,0.0,0.0,0.0,0.0,0.0,0.0,0.0,0.0,0.0,0.0,0.0,0.0,0.0,0.0,0.0,0.0,0.0,0.0,0.0,0.0,0.0,0.0,0.0,0.0,0.0,0.0,0.0,0.0,0.0,0.0,0.0,0.0,0.0,0.0,0.0,0.0,0.0,0.0,0.0,0.0,0.0,0.0,0.0,0.0,0.0,0.0,0.0,0.0,0.0,0.0,0.0,0.0,0.0,0.0,0.0,0.0,0.0,0.0,0.0,0.0,0.0,0.0,0.0,0.0,0.0,0.0,0.0,0.0,0.0,0.0,0.0,0.0,0.0,0.0,0.0,0.0,0.0,0.0,0.0,0.0,0.0,0.0,0.0,0.0,0.0,0.0,0.0,0.0,0.0,0.0,0.0,0.0,0.0,0.0,0.0,0.0,0.0,0.0,0.0,0.0,0.0,0.0,0.0,0.0,0.0,0.0,0.0,0.0,0.0,0.0,0.0,0.0,0.0,0.0,0.0,0.0,0.0,0.0,0.0,0.0,0.0,0.0,0.0,0.0,0.0,0.0,0.0,0.0,0.0,0.0,0.0,0.0,0.0,0.0,0.0,0.0,0.0,0.0,0.0,0.0,0.0,0.0,0.0,0.0,0.0,0.0,0.0,0.0,0.0,0.0,0.0,0.0,0.0,0.0,0.0,0.0,0.0,0.0,0.0,0.0,0.0,0.0,0.0,0.0,0.0,0.0,0.0,0.0,0.0,0.0,0.0,0.0,0.0,0.0,0.0,0.0,0.0,0.0,0.0,0.0,0.0,0.0,0.0,0.0,0.0,0.0,0.0,0.0,0.0,0.0,0.0,0.0,0.0,0.0,0.0,0.0,0.0,0.0,0.0,0.0,0.0,0.0,0.0,0.0,0.0,0.0,0.0,0.0,0.0,0.0,0.0,0.0,0.0,0.0,0.0,0.0,0.0,0.0,0.0,0.0,0.0,0.0,0.0,0.0,0.0,0.0,0.0,0.0,0.0,0.0,0.0,0.0,0.0,0.0,0.0,-1.1285,0.0,0.0,0.0,0.0,0.0,0.0,0.0,0.0,0.0,0.0,0.0,0.0,0.0,0.0,0.0,0.0,0.0,0.0,0.0,0.0,0.0,0.0,0.0,0.0,0.0,0.0,0.0,0.0,0.0,0.0,0.0,0.0,0.0,0.0,0.0,0.0,0.0,0.0,0.0,-0.7901,-0.7967,-0.8087,-0.7961,-0.7901,-0.7901,0.0,0.0,0.0,0.0,0.0,0.0,0.0,0.0,0.0,0.0,0.0,0.0,0.0,0.0,0.0,0.0,0.0,0.0,0.0,0.0,0.0,0.0,0.0,0.0,0.0,0.0,0.0,0.0,0.0,0.0,0.0,0.0,0.0,0.0,0.0,0.0,0.0,0.0,0.0,0.0,0.0,0.0,0.0,0.0,0.0,0.0,0.0,0.0,0.0,0.0,0.0,0.0,0.0,0.0,0.0,0.0,0.0,0.0,0.0,0.0,0.0,0.0,0.0,0.0,0.0,0.0,0.0,0.0,0.0,0.0,0.0,-1.1639,0.0,0.0,0.0,0.0,0.0,0.0,0.0,0.0,0.0,0.0,0.0,0.0,0.0,0.0,0.0,0.0,0.0,0.0,0.0,0.0,0.0,0.0,0.0,0.0,0.0,0.0,0.0,0.0,0.0,0.0,0.0,0.0,0.0,0.0,0.0,-0.8275,-0.8162,-0.7955,-0.8066,-0.8261,-0.8561,-0.8393,-0.8309,-0.8303,-0.8075,0.0,0.0,0.0,0.0,0.0,0.0,0.0,0.0,0.0,0.0,0.0,0.0,0.0,0.0,0.0,0.0,0.0,0.0,0.0,0.0,0.0,0.0,0.0,0.0,0.0,0.0,0.0,0.0,0.0,0.0,0.0,0.0,0.0,0.0,0.0,0.0,0.0,0.0,0.0,0.0,0.0,0.0,0.0,0.0,0.0,0.0,0.0,0.0,0.0,0.0,0.0,0.0,0.0,0.0,0.0,0.0,0.0,0.0,0.0,0.0,0.0,0.0,0.0,-1.198,-1.2107,-1.2198,-1.2115,-1.2276,-1.2499,-1.2024,-1.1904,-1.2,0.0,0.0,0.0,0.0,0.0,0.0,0.0,0.0,0.0,0.0,0.0,0.0,0.0,0.0,0.0,0.0,0.0,0.0,0.0,0.0,0.0,0.0,0.0,0.0,0.0,0.0,0.0,0.0,0.0,0.0,0.0,0.0,0.0,0.0,-0.8547,-0.8421,-0.8168,-0.8695,-0.9197,-0.9703,-0.9895,-0.9985,-0.9931,-0.8782,-0.8518,-0.8915,0.0,0.0,0.0,0.0,0.0,0.0,0.0,0.0,0.0,0.0,0.0,0.0,0.0,0.0,0.0,0.0,0.0,0.0,0.0,0.0,0.0,0.0,0.0,0.0,0.0,0.0,0.0,0.0,0.0,0.0,0.0,0.0,0.0,0.0,0.0,0.0,0.0,0.0,0.0,0.0,0.0,-1.0719,-1.0979,0.0,0.0,0.0,0.0,0.0,0.0,0.0,0.0,0.0,0.0,0.0,0.0,0.0,-1.1105,-1.1811,-1.1814,-1.2181,-1.2873,-1.2699,-1.285,-1.3296,-1.3067,-1.3109,-1.335,-1.3284,0.0,-1.2602,-1.2566,0.0,0.0,0.0,0.0,0.0,0.0,0.0,0.0,0.0,0.0,0.0,0.0,0.0,0.0,0.0,0.0,0.0,0.0,0.0,0.0,0.0,0.0,0.0,0.0,0.0,0.0,0.0,0.0,0.0,0.0,0.0,-0.8745,-0.86,-0.86,-0.8685,-0.8862,-0.9479,-1.0039,-1.0563,-1.0677,-1.0815,-1.0942,-1.0364,-0.9817,-0.9318,-0.9089,0.0,0.0,0.0,0.0,0.0,0.0,0.0,0.0,0.0,0.0,0.0,0.0,0.0,0.0,0.0,0.0,0.0,0.0,0.0,0.0,0.0,0.0,0.0,0.0,0.0,0.0,0.0,0.0,0.0,0.0,0.0,0.0,0.0,0.0,0.0,0.0,0.0,0.0,0.0,-1.0701,-1.0816,-1.1081,-1.0979,-1.0948,0.0,0.0,0.0,0.0,0.0,0.0,0.0,0.0,0.0,-1.1564,-1.1739,-1.2083,-1.2548,-1.2892,-1.3212,-1.3562,-1.3586,-1.3725,-1.3954,-1.3833,-1.3845,-1.3954,-1.3954,-1.3737,-1.3344,-1.2892,-1.2705,-1.2693,0.0,0.0,0.0,0.0,-1.2705,-1.2705,0.0,0.0,0.0,0.0,0.0,0.0,0.0,0.0,0.0,0.0,0.0,0.0,0.0,0.0,0.0,-0.9145,0.0,0.0,0.0,0.0,0.0,0.0,0.0,-0.8752,-0.8659,-0.8849,-0.9292,-1.0077,-1.0618,-1.1181,-1.1702,-1.1769,-1.1881,-1.2,-1.2,-1.1297,-1.01,-0.9757,-0.9348,-0.8884,0.0,0.0,0.0,0.0,0.0,0.0,0.0,0.0,0.0,0.0,0.0,0.0,0.0,0.0,0.0,0.0,0.0,0.0,0.0,0.0,0.0,0.0,0.0,0.0,0.0,0.0,0.0,0.0,0.0,0.0,0.0,0.0,0.0,0.0,0.0,0.0,0.0,-1.1009,-1.0936,-1.1099,-1.0966,-1.0979,0.0,0.0,0.0,0.0,0.0,0.0,-1.1431,-1.1938,-1.2193,-1.2193,-1.2674,-1.3079,-1.3423,-1.3809,-1.4111,-1.4316,-1.4443,-1.4576,-1.4702,-1.4636,-1.4606,-1.4606,-1.4606,-1.4419,-1.4057,-1.3314,-1.2976,-1.2892,-1.2699,-1.2741,-1.291,-1.291,-1.291,-1.291,0.0,0.0,0.0,0.0,0.0,0.0,0.0,0.0,0.0,0.0,0.0,0.0,0.0,0.0,-1.0023,-1.0023,-1.0037,-0.9947,0.0,0.0,0.0,-0.8804,-0.8804,-0.8804,-0.8778,-0.9482,-1.0497,-1.1862,-1.2293,-1.2801,-1.3361,-1.3634,-1.363,-1.3417,-1.3417,-1.2813,-1.1682,-1.0418,-1.0148,-1.0412,-0.8627,0.0,0.0,0.0,0.0,0.0,0.0,0.0,0.0,0.0,0.0,0.0,0.0,0.0,0.0,0.0,0.0,0.0,0.0,0.0,0.0,0.0,0.0,0.0,0.0,0.0,0.0,0.0,0.0,0.0,0.0,0.0,0.0,0.0,0.0,0.0,0.0,0.0,0.0,-1.1141,-1.1297,0.0,0.0,0.0,0.0,-1.1471,-1.1946,-1.227,-1.2252,-1.2765,-1.3017,-1.3017,-1.3332,-1.3719,-1.4232,-1.4262,-1.466,-1.5415,-1.5179,-1.5324,-1.5801,-1.5553,-1.5439,-1.5439,-1.5439,-1.5149,-1.463,-1.4075,-1.3701,-1.3471,-1.3459,-1.3465,-1.3471,-1.3471,-1.3471,-1.3471,0.0,0.0,0.0,0.0,0.0,0.0,0.0,0.0,0.0,0.0,0.0,0.0,0.0,-1.016,-1.0555,-1.0896,-1.0615,-1.0274,-0.998,0.0,0.0,-0.8818,-0.8958,-0.9352,-0.9956,-1.0417,-1.1312,-1.2576,-1.3146,-1.3623,-1.4,-1.4272,-1.4356,-1.4262,-1.4262,-1.4047,-1.3593,-1.2075,-1.0948,-1.0124,-0.9462,-0.9059,0.0,0.0,0.0,0.0,0.0,0.0,0.0,0.0,0.0,0.0,0.0,0.0,0.0,0.0,0.0,0.0,0.0,0.0,0.0,0.0,0.0,0.0,0.0,0.0,0.0,0.0,0.0,0.0,0.0,0.0,0.0,0.0,0.0,0.0,0.0,0.0,0.0,-1.2089,-1.2228,0.0,-1.2403,-1.2457,-1.2512,-1.2512,-1.2886,-1.3085,-1.3085,-1.3592,-1.3882,-1.3882,-1.431,-1.4708,-1.5065,-1.5234,-1.5469,-1.5753,-1.5656,-1.5704,-1.5885,-1.5795,-1.5753,-1.5753,-1.5753,-1.5547,-1.5203,-1.501,-1.457,-1.4014,-1.4014,-1.4014,-1.4014,-1.4014,-1.3912,-1.3767,0.0,0.0,0.0,0.0,0.0,0.0,0.0,0.0,0.0,0.0,0.0,-0.9511,-1.0327,-1.0762,-1.131,-1.1935,-1.1396,-1.0868,-1.0441,0.0,0.0,-0.8824,-0.9244,-0.9917,-1.0835,-1.1484,-1.2431,-1.3739,-1.4289,-1.4667,-1.4994,-1.5177,-1.521,-1.5113,-1.5009,-1.4911,-1.4762,-1.3586,-1.2306,-1.0912,-1.0196,-0.9853,-0.9709,0.0,0.0,0.0,0.0,0.0,0.0,0.0,0.0,0.0,0.0,0.0,0.0,0.0,0.0,0.0,0.0,0.0,0.0,0.0,0.0,0.0,0.0,0.0,0.0,0.0,0.0,0.0,0.0,0.0,0.0,0.0,0.0,0.0,0.0,0.0,-1.2223,-1.2783,-1.3,-1.3151,-1.3248,-1.3338,-1.3387,-1.3387,-1.3719,-1.3918,-1.3918,-1.4419,-1.4702,-1.4702,-1.5137,-1.5457,-1.5626,-1.5801,-1.5891,-1.5891,-1.5891,-1.5891,-1.5891,-1.5891,-1.5891,-1.5891,-1.5891,-1.5795,-1.5626,-1.5626,-1.5318,-1.4817,-1.4642,-1.457,-1.4558,-1.4473,-1.4328,-1.4165,0.0,0.0,0.0,0.0,0.0,0.0,0.0,0.0,0.0,0.0,-0.9044,-0.9684,-1.0882,-1.1578,-1.2251,-1.3146,-1.2385,-1.1645,-1.1029,-0.985,0.0,-0.8858,-0.9679,-1.053,-1.1429,-1.2645,-1.3961,-1.5411,-1.5664,-1.5959,-1.6325,-1.6325,-1.6218,-1.5966,-1.5651,-1.5351,-1.5115,-1.4825,-1.4135,-1.2969,-1.0857,-1.0749,-1.1663,0.0,0.0,0.0,0.0,0.0,0.0,0.0,0.0,0.0,0.0,0.0,0.0,0.0,0.0,0.0,0.0,0.0,0.0,0.0,0.0,0.0,0.0,0.0,0.0,0.0,0.0,0.0,0.0,0.0,0.0,0.0,0.0,0.0,-1.1922,-1.2602,-1.3113,-1.3137,-1.364,-1.3857,-1.3604,-1.3809,-1.3954,-1.3954,-1.4443,-1.4745,-1.4751,-1.524,-1.5517,-1.5511,-1.5765,-1.5897,-1.5891,-1.5891,-1.5891,-1.5891,-1.5891,-1.5891,-1.5891,-1.5891,-1.5891,-1.5891,-1.5891,-1.5891,-1.5891,-1.5891,-1.5891,-1.5843,-1.533,-1.5131,-1.5101,-1.4847,-1.4745,-1.469,0.0,0.0,0.0,0.0,0.0,0.0,0.0,0.0,0.0,0.0,-0.9299,-1.021,-1.1169,-1.206,-1.2817,-1.3427,-1.2274,-1.139,-1.1015,0.0,-0.9144,-0.9733,-1.0394,-1.1369,-1.2692,-1.3667,-1.4669,-1.5712,-1.6031,-1.6212,-1.6325,-1.6325,-1.6268,-1.6218,-1.591,-1.5872,-1.5922,-1.5279,-1.4944,-1.4696,-1.2952,-1.1838,-1.1298,0.0,0.0,0.0,0.0,0.0,0.0,0.0,0.0,0.0,0.0,0.0,0.0,0.0,0.0,0.0,0.0,0.0,0.0,0.0,0.0,0.0,0.0,0.0,0.0,0.0,0.0,0.0,0.0,0.0,0.0,0.0,0.0,-1.2752,-1.2752,-1.3308,-1.3912,-1.4491,-1.4859,-1.5034,-1.4962,-1.5016,-1.5059,-1.5059,-1.5197,-1.5366,-1.5559,-1.5885,-1.5976,-1.5789,-1.6036,-1.6085,-1.5891,-1.5891,-1.5891,-1.5891,-1.5891,-1.5891,-1.5891,-1.5891,-1.5891,-1.5891,-1.5891,-1.5891,-1.5891,-1.5891,-1.5891,-1.5879,-1.5728,-1.5674,-1.5662,-1.5596,-1.5324,-1.4932,0.0,0.0,0.0,0.0,0.0,0.0,0.0,0.0,0.0,0.0,-0.9466,-1.0416,-1.1295,-1.1997,-1.2656,-1.3213,-1.2031,-1.1069,-1.0655,0.0,-0.9566,-1.0448,-1.1316,-1.2365,-1.3734,-1.4616,-1.5498,-1.6386,-1.6576,-1.6706,-1.6825,-1.6729,-1.6684,-1.6677,-1.6259,-1.6141,-1.6279,-1.5655,-1.5457,-1.5421,-1.4491,-1.3586,-1.2717,-1.2095,-1.1742,-1.1567,-1.1122,-1.1086,-1.1188,-1.0761,0.0,0.0,0.0,0.0,0.0,0.0,0.0,0.0,0.0,0.0,0.0,0.0,0.0,0.0,0.0,0.0,0.0,0.0,0.0,0.0,0.0,0.0,0.0,0.0,-1.3103,-1.3568,-1.3906,-1.422,-1.4624,-1.5203,-1.5602,-1.5831,-1.5837,-1.594,-1.6,-1.6,-1.5891,-1.5891,-1.6048,-1.6097,-1.6048,-1.5891,-1.6036,-1.6042,-1.5891,-1.5891,-1.5891,-1.5891,-1.5891,-1.5891,-1.5891,-1.5891,-1.5891,0.0,-1.5891,-1.5891,-1.5891,-1.5891,-1.5891,0.0,0.0,0.0,0.0,0.0,-1.5131,-1.4721,0.0,0.0,0.0,0.0,0.0,0.0,0.0,0.0,0.0,0.0,0.0,-1.0374,-1.1156,-1.157,-1.2027,-1.2583,-1.1618,-1.0722,0.0,-0.9987,-1.0287,-1.1202,-1.2409,-1.3561,-1.4599,-1.5531,-1.6366,-1.7199,-1.7188,-1.7328,-1.7536,-1.7279,-1.712,-1.712,-1.6537,-1.6324,-1.6271,-1.5998,-1.5759,-1.5547,-1.5547,-1.5348,-1.4883,-1.3218,-1.2988,-1.3429,-1.2409,-1.1928,-1.1712,-1.1443,0.0,0.0,0.0,0.0,0.0,0.0,0.0,0.0,0.0,0.0,0.0,0.0,0.0,0.0,0.0,0.0,0.0,0.0,0.0,0.0,0.0,0.0,0.0,0.0,-1.3725,-1.4358,-1.5137,-1.527,-1.536,-1.5565,-1.6024,-1.6338,-1.635,-1.6561,-1.67,-1.67,-1.6471,-1.6314,-1.6284,0.0,0.0,0.0,0.0,-1.5922,-1.5891,-1.5891,-1.5891,-1.5891,-1.5891,-1.5891,-1.5891,-1.5891,-1.5891,-1.5891,-1.5891,-1.5891,-1.5891,-1.5891,-1.5867,-1.5813,-1.5614,-1.5489,-1.5423,-1.49,-1.4551,-1.4328,0.0,0.0,0.0,0.0,0.0,0.0,0.0,0.0,0.0,-0.8516,-0.9246,-0.992,-1.0321,-1.0842,-1.1303,-1.165,-1.1042,-1.0626,-1.0512,-1.0862,-1.1597,-1.2732,-1.395,-1.4863,-1.5511,-1.644,-1.7032,-1.7199,-1.7186,-1.7226,-1.7279,-1.6948,-1.6789,-1.6789,-1.6424,-1.6324,-1.6271,-1.5998,-1.5861,-1.5813,-1.5813,-1.5403,-1.4751,-1.4389,-1.4075,-1.3773,-1.3357,-1.3308,-1.3375,-1.2898,-1.28,-1.285,-1.2149,-1.1449,0.0,0.0,0.0,0.0,0.0,0.0,0.0,0.0,0.0,0.0,0.0,0.0,0.0,0.0,0.0,0.0,0.0,0.0,0.0,-1.3942,-1.4696,-1.5396,-1.5994,-1.626,-1.6326,-1.6151,-1.6416,-1.6622,-1.6628,-1.667,-1.67,-1.67,-1.6652,-1.6519,-1.6296,-1.6447,0.0,-1.5903,-1.6109,-1.6121,-1.5891,-1.5891,-1.5891,-1.5891,0.0,0.0,-1.5891,-1.5891,-1.5891,-1.5891,-1.5891,-1.5891,-1.5891,-1.5891,-1.5781,-1.5551,-1.5546,-1.5518,-1.5458,-1.4891,-1.4666,-1.461,0.0,0.0,0.0,0.0,0.0,0.0,0.0,0.0,0.0,0.0,-0.9225,-0.974,-0.9886,-1.0294,-1.0555,-1.0555,-1.0154,-1.0027,-1.0321,-1.1162,-1.2311,-1.3801,-1.471,-1.5591,-1.6473,-1.6971,-1.7221,-1.7219,-1.7213,-1.712,-1.6955,-1.6636,-1.6477,-1.6477,-1.6211,-1.6105,-1.6105,-1.5945,-1.5891,-1.5891,-1.5891,-1.5656,-1.5288,-1.5155,-1.4938,-1.4672,-1.4407,-1.422,-1.4063,-1.3797,-1.3622,-1.3441,-1.3043,-1.2361,-1.1612,0.0,0.0,0.0,0.0,0.0,0.0,0.0,0.0,0.0,0.0,0.0,0.0,0.0,0.0,-1.2199,0.0,0.0,-1.393,-1.4594,-1.5264,-1.5831,-1.6241,-1.6646,-1.6797,-1.6525,-1.673,-1.6893,-1.6893,-1.7014,-1.7038,-1.6905,-1.6893,-1.6718,-1.632,-1.6416,-1.6308,-1.5903,-1.6024,-1.603,-1.5891,-1.5891,-1.5891,-1.5891,-1.5891,-1.5958,-1.6085,-1.5946,-1.5964,-1.6079,-1.5946,-1.5891,-1.5891,-1.5891,-1.5842,-1.5703,-1.5529,-1.5332,-1.5059,-1.4799,-1.4598,-1.45,0.0,0.0,0.0,0.0,0.0,0.0,0.0,0.0,0.0,0.0,-0.9218,-0.9512,-0.9512,-0.9719,-0.9786,0.0,0.0,-0.9677,-1.0414,-1.151,-1.2919,-1.4696,-1.5337,-1.6146,-1.7259,-1.7286,-1.7303,-1.7279,-1.7232,-1.7008,-1.6677,-1.6424,-1.6271,-1.6217,-1.5998,-1.5891,-1.5891,-1.5891,-1.5891,-1.5891,-1.5891,-1.5891,-1.5867,-1.5656,-1.5572,-1.5535,-1.5215,-1.4727,-1.4226,-1.428,-1.3918,-1.3459,-1.3556,-1.3079,-1.2349,-1.1676,-1.111,0.0,0.0,0.0,0.0,0.0,0.0,0.0,0.0,0.0,-1.1558,-1.2012,-1.2572,-1.3085,-1.358,-1.4141,-1.469,-1.5179,-1.5747,-1.6199,-1.641,-1.6857,-1.7068,-1.6809,-1.7008,-1.7165,-1.7165,-1.7316,-1.734,-1.7177,-1.7074,-1.6833,-1.641,-1.632,-1.6163,-1.5897,-1.5891,-1.5891,-1.5891,-1.5891,-1.5891,-1.5891,-1.5891,-1.6,-1.6193,-1.5988,-1.6006,-1.6193,-1.5982,-1.5891,-1.5891,-1.5891,-1.5891,-1.5885,-1.5595,-1.5245,-1.4851,-1.4751,-1.4508,-1.4298,0.0,0.0,0.0,0.0,0.0,0.0,0.0,0.0,0.0,0.0,0.0,0.0,0.0,0.0,0.0,0.0,-0.971,-1.0488,-1.1631,-1.2545,-1.3841,-1.5558,-1.6246,-1.686,-1.7522,-1.7535,-1.7549,-1.7582,-1.7331,-1.7008,-1.6677,-1.6424,-1.6164,-1.5945,-1.5891,-1.5891,-1.5891,-1.5891,-1.5891,-1.5891,-1.5891,-1.5891,-1.5885,-1.5855,-1.5849,-1.5783,-1.5288,-1.4606,-1.3984,-1.422,-1.3797,-1.3248,-1.3719,-1.3477,-1.2794,-1.179,-1.111,-1.0515,-0.9733,-0.9709,-1.0081,-1.0803,-1.1045,-1.1323,0.0,0.0,-1.2614,-1.2885,-1.3405,-1.3863,-1.4159,-1.4841,-1.5457,-1.5753,-1.6453,-1.6966,-1.6996,-1.7255,-1.734,-1.708,-1.728,-1.7443,-1.7443,-1.7255,-1.7219,-1.7424,-1.7008,-1.6718,-1.6664,-1.6416,-1.6163,-1.5897,-1.5891,-1.5891,-1.5891,-1.5891,-1.5891,-1.5891,-1.5891,-1.5903,-1.5934,-1.5903,-1.5903,-1.5934,-1.5903,-1.5891,-1.5891,-1.5891,-1.5891,-1.5885,-1.5595,-1.5465,-1.5362,-1.4869,-1.4508,-1.4298,0.0,0.0,0.0,0.0,0.0,0.0,0.0,0.0,0.0,0.0,0.0,0.0,0.0,0.0,0.0,-0.8738,-0.9237,-1.0077,-1.1316,-1.2351,-1.3801,-1.5698,-1.6393,-1.693,-1.7371,-1.7384,-1.7219,-1.6849,-1.6749,-1.653,-1.6205,-1.6105,-1.5998,-1.5891,-1.5891,-1.5891,-1.5891,-1.5891,-1.5891,-1.5891,-1.5891,-1.5891,-1.5855,-1.5553,-1.5143,-1.4708,-1.4485,-1.3888,0.0,-1.3157,-1.2922,-1.2747,-1.3284,-1.3085,-1.2506,-1.1712,-1.1212,-1.0773,-1.0142,-1.0274,-1.0665,0.0,-1.1582,-1.2198,-1.2807,-1.3067,-1.3296,-1.3719,-1.4232,-1.4684,-1.4944,-1.5396,-1.5813,0.0,-1.6537,-1.6863,-1.6863,-1.696,-1.6923,-1.6652,-1.6579,-1.6682,-1.6996,-1.693,-1.6911,-1.702,-1.6966,-1.6791,-1.6477,-1.6646,-1.6489,-1.591,-1.6036,-1.6042,-1.5891,-1.5891,-1.5891,-1.5891,-1.5891,-1.597,-1.6109,-1.5958,-1.5891,-1.5891,-1.5891,-1.5891,-1.5891,-1.5891,-1.5891,-1.5891,-1.5773,-1.5563,-1.5238,-1.4837,-1.4617,-1.4508,0.0,0.0,0.0,0.0,0.0,0.0,0.0,0.0,0.0,0.0,0.0,0.0,0.0,0.0,0.0,-0.8536,-0.8924,-0.9677,-1.0834,-1.1933,-1.3434,-1.5384,-1.6106,-1.6629,-1.7042,-1.714,-1.6961,-1.6424,-1.6424,-1.6264,-1.5998,-1.5998,-1.5945,-1.5891,-1.5891,-1.5891,-1.5891,-1.5891,-1.5891,-1.5891,-1.5891,-1.5801,-1.5608,-1.5004,-1.4232,-1.3465,-1.3465,-1.2856,-1.2023,-1.183,-1.1721,-1.1724,-1.2379,-1.2307,-1.2005,-1.1546,-1.108,-1.0683,-1.0382,-1.0731,-1.1242,-1.1498,-1.23,-1.3127,-1.3483,-1.3767,-1.4087,-1.4533,-1.4944,-1.5294,-1.5559,-1.5704,-1.5916,-1.6326,-1.6501,-1.6664,-1.6887,-1.6724,-1.6513,-1.6314,-1.5988,-1.591,-1.6229,-1.6392,-1.6537,-1.6688,-1.6803,-1.673,-1.641,-1.6773,-1.6718,-1.6133,-1.6223,-1.6187,-1.6,-1.5928,-1.5928,-1.6,-1.5987,-1.6102,-1.6314,-1.6024,-1.5891,-1.5891,-1.5891,-1.5891,-1.5891,-1.5891,-1.5891,-1.5891,-1.5826,-1.5536,-1.5189,-1.483,-1.4665,-1.4562,0.0,0.0,0.0,0.0,0.0,0.0,0.0,0.0,0.0,0.0,0.0,0.0,0.0,0.0,-0.8804,-0.8798,-0.9038,-0.959,-1.0546,-1.1437,-1.2692,-1.4482,-1.5391,-1.612,-1.6684,-1.7036,-1.7008,-1.6677,-1.6677,-1.6524,-1.6271,-1.6271,-1.6164,-1.5891,-1.5891,-1.5891,-1.5891,-1.5891,-1.5891,-1.5891,-1.5891,-1.559,-1.504,-1.425,-1.3284,-1.2361,-1.2361,-1.1516,-1.0364,-1.0358,-1.019,-1.0112,-1.0924,-1.1347,0.0,-1.1208,-1.0539,-0.9991,0.0,0.0,-1.1663,-1.2469,-1.3266,-1.4008,-1.4545,-1.4871,-1.5137,-1.5409,-1.5475,-1.5565,-1.5831,-1.568,-1.5771,-1.6561,-1.6465,-1.6567,-1.7352,-1.6785,-1.6296,-1.6308,-1.5837,-1.5421,0.0,-1.5614,-1.6133,-1.6664,-1.6453,-1.6416,-1.6676,-1.6706,-1.67,-1.6676,-1.6416,-1.6278,-1.6266,-1.6018,-1.6018,-1.6266,-1.6305,-1.6319,-1.63,-1.6,-1.5891,-1.5891,-1.5891,-1.5891,-1.5891,-1.5891,-1.5891,-1.5885,-1.5595,-1.5518,-1.5423,-1.4894,-1.4562,-1.4298,0.0,0.0,0.0,0.0,0.0,0.0,0.0,0.0,0.0,0.0,0.0,0.0,0.0,0.0,0.0,0.0,-0.8871,-0.9325,-1.0207,-1.0778,-1.1719,-1.3121,-1.3897,-1.445,-1.4817,-1.5297,-1.5482,-1.536,-1.5538,-1.5579,-1.5476,-1.5476,-1.5476,-1.5378,-1.5553,-1.5626,-1.5644,-1.5813,-1.5686,-1.5354,-1.5185,-1.4787,-1.4208,-1.3224,-1.2186,-1.119,0.0,-1.0033,-0.9444,-0.9101,-0.9041,-0.9185,-0.9624,0.0,0.0,-1.022,0.0,0.0,0.0,0.0,-1.2692,-1.335,-1.4105,-1.4799,-1.5155,-1.5306,-1.539,-1.5481,-1.5077,-1.4727,-1.4817,-1.4763,-1.4968,-1.5771,-1.597,-1.6241,-1.6875,-1.6416,-1.5897,-1.5553,-1.5197,0.0,0.0,0.0,0.0,-1.6121,-1.6072,-1.6223,-1.6676,-1.6869,-1.6881,-1.6706,-1.6779,-1.6736,-1.6561,-1.6471,-1.6478,-1.657,-1.641,-1.6302,-1.6306,-1.6005,-1.5891,-1.5891,-1.5891,-1.5891,-1.5891,-1.5891,-1.5891,-1.5904,-1.5989,-1.5943,-1.5756,-1.557,-1.5209,-1.4775,0.0,0.0,0.0,0.0,0.0,0.0,0.0,0.0,0.0,0.0,0.0,0.0,0.0,0.0,0.0,0.0,0.0,-0.8778,-0.9454,-1.0038,-1.0804,-1.186,-1.2525,-1.2949,-1.3156,-1.3623,-1.381,-1.3719,-1.3978,-1.4111,-1.4111,-1.4208,-1.4304,-1.4407,-1.4576,-1.4757,-1.4932,-1.501,-1.4847,-1.4509,-1.4141,-1.3622,-1.294,-1.1832,-1.0882,0.0,-0.9233,-0.8801,-0.8632,-0.8261,-0.8261,-0.8487,-0.8848,0.0,0.0,0.0,0.0,0.0,0.0,-1.2934,-1.367,-1.4201,-1.4865,-1.5409,-1.5481,-1.5499,-1.5421,-1.5131,-1.4582,-1.4129,-1.4039,-1.3857,-1.402,-1.4926,-1.5052,-1.536,-1.6284,-1.5867,-1.5451,-1.5396,-1.5071,-1.4859,0.0,0.0,0.0,-1.5716,-1.6018,-1.6332,-1.6682,-1.7038,-1.7153,-1.6984,-1.705,-1.6996,-1.6853,-1.6738,-1.6673,-1.6678,-1.6556,-1.6412,-1.6301,-1.601,-1.5891,-1.5891,-1.5891,-1.5891,-1.5891,-1.5891,-1.5934,-1.604,-1.6258,-1.6151,-1.5914,-1.6003,-1.5665,-1.5053,0.0,0.0,0.0,0.0,0.0,0.0,0.0,0.0,0.0,0.0,0.0,0.0,0.0,0.0,0.0,0.0,0.0,0.0,-0.8315,-0.9115,-0.9883,-1.0614,-1.1229,-1.1616,-1.1783,-1.2031,-1.2074,-1.182,-1.2125,-1.2211,-1.2217,-1.2506,-1.2722,-1.2981,-1.2993,-1.332,-1.3767,-1.3538,-1.3417,-1.3344,-1.2813,-1.2137,-1.1297,-1.0274,-0.9552,-0.8981,-0.8207,-0.7925,-0.7907,0.0,0.0,0.0,0.0,0.0,0.0,0.0,0.0,-1.2121,-1.2939,-1.3767,-1.4485,-1.5016,-1.5523,-1.5819,-1.5541,-1.5457,-1.5215,-1.4419,-1.4014,-1.3725,0.0,0.0,-1.3031,-1.4087,-1.3876,-1.4117,-1.5674,-1.5246,-1.5046,0.0,0.0,0.0,0.0,0.0,0.0,-1.5499,0.0,-1.667,-1.67,-1.7189,-1.7473,-1.7485,-1.7243,-1.7132,-1.7116,-1.6844,-1.674,-1.67,-1.669,-1.6556,-1.6301,-1.601,-1.5891,-1.5891,-1.5891,-1.5891,-1.5891,-1.5891,-1.606,-1.6308,-1.6272,-1.612,-1.5933,-1.6194,-1.5815,-1.5106,0.0,0.0,0.0,0.0,0.0,0.0,0.0,0.0,0.0,0.0,0.0,0.0,0.0,0.0,0.0,0.0,0.0,0.0,-0.7291,-0.7549,-0.7971,-0.8616,-0.9066,-0.9569,-1.0104,-1.0566,-1.0864,-1.1027,-1.1248,-1.1189,-1.0815,-1.1293,-1.1325,-1.1055,-1.1649,-1.197,-1.2103,-1.2229,-1.2095,-1.1697,-1.1359,-1.0833,-1.0256,-0.9793,-0.9281,-0.8782,-0.8578,-0.8231,0.0,0.0,0.0,0.0,0.0,-1.0051,-1.0755,0.0,0.0,-1.2993,-1.4039,-1.4745,-1.527,-1.5608,-1.5795,-1.5771,-1.5312,-1.4896,-1.4431,-1.3839,-1.3025,-1.2409,0.0,0.0,0.0,-1.3574,-1.4105,0.0,-1.5753,-1.5716,0.0,-1.5596,0.0,-1.5535,-1.5149,-1.5457,0.0,0.0,-1.5982,-1.6272,-1.6676,-1.7014,-1.728,-1.7473,-1.7418,-1.737,-1.741,-1.7325,-1.7171,-1.7005,-1.679,-1.6573,-1.6301,-1.601,-1.5891,-1.5891,-1.5891,-1.5891,-1.5891,-1.5891,-1.5929,-1.6028,-1.6239,-1.6245,-1.6188,-1.6264,-1.6037,-1.5628,0.0,0.0,0.0,0.0,0.0,0.0,0.0,0.0,0.0,0.0,0.0,0.0,0.0,0.0,0.0,0.0,0.0,0.0,0.0,-0.6671,-0.6935,-0.724,-0.7469,-0.7854,-0.842,-0.8732,-0.9072,-0.9474,-0.9739,-0.9699,-0.9438,-0.9851,-0.9963,-0.9806,-1.0265,-1.0575,-1.0797,-1.0572,-1.0335,0.0,0.0,-0.9074,-0.8496,-0.8827,-0.8652,-0.8213,-0.8449,-0.8493,0.0,0.0,0.0,-1.0094,-1.0485,-1.1122,-1.1938,-1.2771,0.0,-1.4026,-1.4974,-1.5445,-1.5734,-1.6,-1.5891,-1.5547,-1.4902,-1.434,-1.3707,-1.2825,-1.2127,0.0,-1.1437,-1.176,0.0,0.0,0.0,0.0,-1.5264,-1.5572,-1.5753,0.0,-1.6079,0.0,-1.5837,-1.6072,-1.6247,0.0,-1.6247,-1.6429,-1.6851,-1.7123,-1.7328,-1.7479,-1.7485,-1.7485,-1.7485,-1.7485,-1.7291,-1.695,-1.6765,-1.648,-1.6123,-1.5951,-1.5891,-1.5891,0.0,-1.5891,-1.5891,-1.5891,-1.6018,-1.6252,-1.6285,-1.6388,-1.6488,-1.6495,-1.6229,-1.5885,0.0,0.0,0.0,0.0,0.0,0.0,0.0,0.0,0.0,0.0,0.0,0.0,0.0,0.0,0.0,0.0,0.0,0.0,0.0,0.0,0.0,-0.6308,-0.6281,-0.6502,-0.6977,-0.6977,-0.7219,-0.7681,-0.7903,-0.8008,-0.8014,-0.835,-0.8604,-0.8848,-0.8908,-0.9203,-0.9592,-0.8882,-0.857,-0.8437,-0.8007,-0.7317,-0.6692,0.0,0.0,-0.7591,-0.817,0.0,0.0,0.0,-1.0382,-1.0942,-1.1519,-1.2385,-1.3344,-1.3942,-1.4449,-1.4986,-1.5734,-1.5946,-1.6,-1.6223,-1.5861,-1.5228,-1.4383,-1.3761,-1.2988,-1.1651,0.0,-1.1242,-1.0773,-1.1315,-1.198,-1.2312,0.0,-1.3809,-1.4654,-1.5191,-1.5692,-1.6217,-1.6531,-1.67,-1.67,-1.673,-1.6754,-1.6754,-1.6754,-1.6851,-1.708,-1.734,-1.7485,-1.7485,-1.7485,-1.7485,-1.7485,-1.7485,-1.722,-1.6692,-1.6704,-1.6421,-1.5891,-1.5891,-1.5891,-1.5891,0.0,0.0,-1.5891,-1.5891,-1.6193,-1.6541,-1.636,-1.6397,-1.6592,-1.6592,-1.6296,-1.5952,0.0,0.0,0.0,0.0,0.0,0.0,0.0,0.0,0.0,0.0,-0.5034,-0.5333,0.0,0.0,0.0,0.0,0.0,0.0,0.0,0.0,0.0,0.0,-0.5727,-0.5941,-0.6344,0.0,0.0,0.0,0.0,-0.6562,-0.6566,-0.7127,-0.7395,-0.7461,-0.7907,-0.8159,-0.8237,-0.8106,-0.7783,-0.7366,-0.7383,-0.7006,-0.6506,-0.7089,0.0,0.0,0.0,0.0,0.0,0.0,-1.105,-1.1808,-1.2566,-1.3272,-1.396,-1.4938,-1.5288,-1.5487,-1.606,-1.6223,-1.6241,-1.6272,-1.5722,-1.4908,-1.3882,-1.3061,0.0,0.0,-1.0821,-1.0791,-1.0737,-1.1164,-1.179,-1.2524,-1.3133,-1.3876,-1.4896,-1.5306,-1.5692,0.0,-1.6531,-1.67,0.0,0.0,0.0,0.0,0.0,-1.7044,-1.7086,-1.734,-1.7485,-1.7485,-1.7485,-1.7485,-1.7485,-1.7485,-1.722,-1.6692,-1.6704,-1.6421,-1.5891,-1.5891,-1.5891,-1.5891,-1.5891,0.0,-1.5891,-1.5891,-1.5964,-1.6012,-1.6006,-1.6,-1.603,-1.603,-1.597,-1.5873,0.0,0.0,0.0,0.0,0.0,0.0,0.0,-0.4357,-0.4451,-0.4589,-0.4645,-0.4825,-0.5172,-0.5234,-0.5234,0.0,0.0,0.0,0.0,0.0,0.0,0.0,0.0,0.0,0.0,0.0,0.0,0.0,0.0,0.0,0.0,0.0,0.0,0.0,0.0,0.0,-0.7499,-0.763,-0.7323,-0.6756,-0.6971,0.0,0.0,0.0,0.0,0.0,0.0,0.0,0.0,0.0,-1.0525,-1.141,-1.2851,-1.3785,-1.4455,-1.5107,-1.5487,-1.5819,-1.6356,-1.6398,-1.6326,-1.6465,-1.559,-1.4443,-1.3519,0.0,0.0,0.0,-1.028,-1.0322,-1.0454,-1.1038,0.0,-1.2397,-1.2958,-1.3634,-1.4558,-1.5034,0.0,-1.6205,-1.6652,-1.696,0.0,0.0,0.0,0.0,0.0,-1.7292,-1.7292,-1.7412,-1.7485,-1.7485,-1.7485,-1.7485,-1.7485,-1.7485,-1.7285,-1.6885,-1.6765,-1.648,-1.6123,-1.5951,-1.5891,-1.5891,-1.5891,0.0,-1.5891,-1.5891,-1.597,-1.6079,-1.594,-1.5976,-1.6072,-1.594,-1.5891,-1.5891,0.0,0.0,0.0,0.0,0.0,0.0,0.0,-0.4306,-0.4469,-0.4602,-0.4641,-0.4649,-0.4586,-0.464,-0.4691,0.0,0.0,0.0,0.0,0.0,0.0,0.0,0.0,0.0,0.0,0.0,0.0,0.0,0.0,0.0,0.0,0.0,0.0,0.0,0.0,0.0,0.0,0.0,-0.6907,0.0,0.0,0.0,0.0,0.0,0.0,0.0,0.0,0.0,0.0,0.0,-0.9499,-1.0324,-1.2202,-1.3533,-1.4497,-1.4702,-1.5264,-1.5928,-1.6465,-1.6447,-1.6332,-1.6555,-1.5403,-1.399,-1.3145,-1.195,0.0,-0.9985,-0.9913,-1.0051,-1.0256,-1.09,-1.1591,0.0,-1.2632,-1.3266,-1.4171,-1.4714,-1.5336,0.0,-1.6712,0.0,0.0,0.0,0.0,0.0,0.0,0.0,-1.7485,-1.7485,-1.7485,-1.7485,-1.7485,-1.7485,-1.7485,-1.7485,-1.7355,-1.7085,-1.6813,-1.6584,-1.6301,-1.601,-1.5891,-1.5891,-1.5891,0.0,0.0,-1.5891,-1.6012,-1.6175,-1.597,-1.6018,-1.6175,-1.5964,-1.5891,-1.5922,0.0,0.0,0.0,0.0,0.0,0.0,0.0,-0.4651,-0.4801,-0.4694,-0.4794,-0.4773,-0.4543,-0.4622,-0.4691,0.0,0.0,0.0,0.0,0.0,0.0,0.0,0.0,0.0,0.0,0.0,0.0,0.0,0.0,0.0,0.0,0.0,0.0,0.0,0.0,0.0,0.0,0.0,0.0,0.0,0.0,0.0,0.0,0.0,0.0,0.0,0.0,0.0,0.0,0.0,0.0,-0.8662,-1.0008,-1.1885,-1.3628,-1.3652,0.0,0.0,-1.6175,-1.6302,-1.629,-1.6314,-1.5125,-1.367,-1.2626,0.0,-1.0497,-0.9715,-0.9925,-1.0268,-1.0292,-1.0743,-1.1407,-1.2186,0.0,-1.2831,-1.4117,-1.4558,-1.5143,-1.6181,0.0,0.0,0.0,0.0,0.0,0.0,0.0,0.0,0.0,-1.7485,-1.7485,-1.7485,-1.7485,-1.7485,-1.7485,-1.7485,-1.7355,-1.7091,-1.6803,-1.6577,-1.6301,-1.601,-1.5891,-1.5891,-1.5891,0.0,0.0,-1.5891,-1.5903,-1.5922,-1.5897,-1.5903,-1.5922,-1.5897,-1.5891,-1.5891,0.0,0.0,0.0,0.0,0.0,0.0,-0.4143,-0.4403,-0.4608,-0.4591,-0.4629,-0.4615,-0.4525,-0.4546,-0.4574,-0.4574,0.0,0.0,0.0,0.0,0.0,0.0,0.0,0.0,0.0,0.0,0.0,0.0,0.0,0.0,0.0,0.0,0.0,0.0,0.0,0.0,0.0,0.0,0.0,0.0,0.0,0.0,0.0,0.0,0.0,0.0,0.0,0.0,0.0,0.0,0.0,0.0,-0.8506,-1.0096,0.0,0.0,-1.3857,-1.4926,-1.5626,-1.6048,-1.6254,-1.6091,-1.4847,-1.3429,-1.2524,0.0,-1.0316,-0.9847,-0.9913,-1.0154,-1.0472,-1.0737,-1.1104,-1.1944,-1.1904,0.0,-1.3429,0.0,-1.4389,0.0,0.0,0.0,0.0,0.0,0.0,0.0,0.0,0.0,0.0,-1.7485,-1.7485,-1.7485,-1.7485,-1.7485,-1.7485,-1.7349,-1.722,-1.7091,-1.6833,-1.6623,-1.6515,-1.6241,-1.6241,-1.6384,-1.6018,0.0,0.0,-1.5958,-1.5891,-1.5891,-1.5891,-1.5891,-1.5891,-1.5891,-1.5891,-1.5891,0.0,0.0,0.0,0.0,0.0,-0.3993,-0.4005,-0.4271,-0.4501,-0.4508,-0.4528,-0.4542,-0.4494,-0.4491,-0.4491,-0.4491,-0.4491,0.0,0.0,0.0,0.0,0.0,0.0,0.0,0.0,0.0,-0.4491,-0.4491,-0.4491,0.0,0.0,0.0,0.0,0.0,0.0,0.0,0.0,0.0,0.0,0.0,0.0,0.0,0.0,0.0,0.0,0.0,0.0,0.0,0.0,0.0,0.0,0.0,0.0,-0.8571,-0.9993,0.0,-1.2807,-1.4002,-1.4811,-1.5421,-1.5789,-1.559,-1.4461,-1.3169,0.0,0.0,-1.022,-0.9961,-0.9967,-1.0154,-1.0605,-1.0743,-1.1075,-1.1766,0.0,-1.1976,-1.3091,-1.3465,0.0,0.0,0.0,0.0,0.0,0.0,0.0,0.0,0.0,0.0,0.0,-1.7485,-1.7485,-1.7485,-1.7485,-1.7479,-1.7355,-1.7285,-1.7193,-1.7077,-1.6885,-1.6803,-1.6675,-1.6398,-1.6375,-1.643,0.0,0.0,0.0,-1.5964,-1.5891,-1.5891,-1.5891,-1.5891,-1.5891,-1.5891,-1.5891,-1.5891,0.0,0.0,0.0,0.0,0.0,0.0,-0.3994,-0.4399,-0.4662,-0.4508,-0.4624,-0.4658,-0.4505,-0.4491,-0.4491,-0.4491,-0.4491,0.0,0.0,0.0,0.0,0.0,0.0,0.0,0.0,0.0,-0.4491,-0.4491,-0.4491,-0.4491,-0.4491,0.0,0.0,0.0,0.0,0.0,0.0,0.0,0.0,0.0,0.0,0.0,0.0,0.0,0.0,0.0,0.0,0.0,0.0,0.0,0.0,0.0,0.0,-0.7419,-0.7766,-0.9448,-1.1236,-1.2898,-1.3707,-1.4316,-1.4733,-1.4733,-1.3918,-1.2806,0.0,0.0,-1.022,-0.9961,-1.0112,-1.037,-1.0635,-1.093,-1.1286,-1.1796,-1.192,0.0,-1.3363,-1.3737,0.0,0.0,0.0,0.0,0.0,0.0,0.0,0.0,0.0,0.0,0.0,-1.7485,-1.7485,-1.7485,-1.7485,-1.7355,-1.7097,-1.7349,-1.7332,-1.7109,-1.7104,-1.6986,-1.6697,-1.6391,-1.616,0.0,0.0,0.0,0.0,-1.5891,-1.5891,-1.5891,-1.5891,-1.5891,-1.5891,-1.5891,-1.5891,-1.5891,0.0,0.0,0.0,0.0,0.0,0.0,0.0,-0.4379,-0.4545,-0.4498,-0.4532,-0.4545,-0.4494,-0.4491,-0.4491,-0.4491,-0.4491,0.0,0.0,0.0,0.0,0.0,0.0,0.0,0.0,-0.4491,-0.4491,-0.4491,-0.4597,-0.4648,-0.4648,-0.4648,-0.4648,0.0,0.0,0.0,0.0,0.0,0.0,0.0,0.0,0.0,0.0,0.0,0.0,0.0,0.0,0.0,0.0,0.0,0.0,0.0,0.0,0.0,0.0,-0.8419,-0.9738,0.0,-1.2254,-1.2934,-1.3296,-1.3121,-1.2548,-1.1808,-1.1098,-1.0466,-1.0003,-0.9919,-1.0112,-1.0376,-1.0635,-1.0936,-1.1292,-1.1796,-1.203,0.0,0.0,0.0,0.0,0.0,0.0,0.0,0.0,0.0,0.0,0.0,0.0,0.0,0.0,-1.7485,-1.7485,-1.7485,-1.7485,-1.7479,-1.7355,-1.7285,-1.7181,-1.7104,-1.7123,-1.6986,-1.6684,-1.6617,0.0,0.0,0.0,0.0,0.0,-1.5964,-1.5891,-1.5891,-1.5891,-1.5891,-1.5891,-1.5891,-1.5891,-1.5891,0.0,0.0,0.0,0.0,0.0,0.0,0.0,-0.4368,-0.4491,-0.4491,-0.4491,-0.4491,-0.4491,-0.4491,-0.4491,-0.4491,-0.4491,0.0,0.0,0.0,0.0,0.0,0.0,0.0,-0.4491,-0.4491,-0.4518,-0.4576,-0.4672,-0.4721,-0.4775,-0.4775,-0.4748,-0.4691,-0.4691,-0.466,0.0,0.0,0.0,0.0,0.0,0.0,-0.5281,0.0,0.0,0.0,0.0,0.0,0.0,0.0,0.0,0.0,0.0,0.0,0.0,0.0,-0.8657,0.0,0.0,-1.1655,-1.2222,-1.2059,-1.1651,0.0,0.0,-1.0208,-0.9937,-1.0033,-1.0178,-1.0406,-1.0767,-1.1003,-1.1292,-1.1796,-1.2059,0.0,0.0,0.0,0.0,0.0,0.0,0.0,0.0,0.0,0.0,0.0,0.0,0.0,0.0,0.0,-1.7485,-1.7485,-1.7485,-1.7479,-1.7349,-1.7207,-1.708,-1.7091,-1.7022,-1.6852,-1.6692,-1.6618,0.0,0.0,0.0,0.0,0.0,-1.5958,-1.5891,-1.5891,-1.5891,-1.5891,-1.5891,-1.5891,-1.5891,-1.5891,0.0,0.0,0.0,0.0,0.0,0.0,0.0,-0.4375,-0.4491,-0.4491,-0.4491,-0.4491,-0.4491,-0.4491,-0.4491,-0.4491,0.0,0.0,0.0,0.0,0.0,0.0,0.0,0.0,-0.4491,-0.4491,-0.4559,-0.4674,-0.4697,-0.4779,-0.4887,-0.4897,-0.4853,-0.4707,-0.4697,-0.4634,-0.4501,-0.4655,-0.4779,-0.4901,-0.5042,-0.5106,0.0,0.0,0.0,0.0,0.0,0.0,0.0,0.0,0.0,0.0,0.0,0.0,0.0,0.0,0.0,0.0,0.0,-1.0447,-1.1351,-1.1351,-1.1158,0.0,-1.0352,-1.0051,0.0,-1.019,-1.0268,-1.0448,-1.0991,-1.1111,-1.1317,-1.182,0.0,0.0,0.0,0.0,0.0,0.0,0.0,0.0,0.0,0.0,0.0,0.0,0.0,0.0,0.0,0.0,-1.7479,-1.742,-1.7449,-1.7342,-1.7107,-1.7079,-1.7098,-1.7114,-1.6859,-1.6729,-1.6729,-1.6429,0.0,0.0,0.0,0.0,0.0,-1.5891,-1.5891,-1.5891,-1.5891,-1.5891,-1.5891,-1.5891,-1.5891,-1.5891,0.0,0.0,0.0,0.0,0.0,0.0,0.0,0.0,0.0,0.0,-0.4491,-0.4491,-0.4491,-0.4491,-0.4491,0.0,0.0,0.0,0.0,0.0,0.0,0.0,0.0,0.0,-0.4491,-0.4491,-0.4508,-0.4545,-0.4752,-0.4884,-0.4891,-0.4999,-0.4972,-0.486,-0.4745,-0.4634,-0.4501,-0.4655,-0.4779,-0.4901,-0.5042,-0.5203,0.0,0.0,0.0,0.0,-0.5395,-0.5395,0.0,0.0,0.0,0.0,0.0,0.0,0.0,0.0,-0.6761,0.0,-0.7698,0.0,-0.9979,-0.9979,-0.9931,-0.9847,0.0,-0.9654,-0.9624,-0.9684,-1.0015,-1.0394,0.0,0.0,0.0,0.0,0.0,0.0,0.0,0.0,0.0,0.0,0.0,0.0,0.0,0.0,0.0,0.0,0.0,0.0,0.0,0.0,-1.7291,-1.6897,-1.7092,-1.7179,-1.711,-1.7077,-1.7098,-1.708,-1.7047,-1.7004,-1.6992,-1.6706,0.0,0.0,0.0,0.0,-1.5891,-1.5891,-1.5891,-1.5891,-1.5891,-1.5891,-1.5891,-1.5891,-1.5891,-1.5891,0.0,0.0,0.0,0.0,0.0,0.0,0.0,0.0,0.0,0.0,0.0,0.0,0.0,0.0,0.0,0.0,0.0,0.0,0.0,0.0,0.0,0.0,0.0,-0.4491,-0.4491,-0.4491,-0.4559,-0.467,-0.484,-0.4989,-0.5125,-0.5199,-0.5159,-0.4975,-0.4789,-0.4634,-0.4494,-0.458,-0.4674,-0.4826,-0.4941,0.0,0.0,0.0,0.0,0.0,-0.5395,-0.5395,0.0,-0.5395,-0.5395,-0.5524,0.0,0.0,0.0,0.0,-0.64,-0.6531,-0.7223,-0.8277,-0.9292,-0.9592,-0.9697,-0.9727,-0.9847,-0.9781,-0.9763,-1.0003,-1.0274,-1.0593,0.0,0.0,0.0,0.0,0.0,0.0,0.0,0.0,0.0,0.0,0.0,0.0,0.0,0.0,0.0,0.0,0.0,0.0,0.0,0.0,-1.6988,-1.673,-1.6727,-1.6792,-1.6904,-1.6772,-1.6785,-1.6902,-1.6696,-1.667,-1.6899,-1.6507,-1.6314,0.0,0.0,0.0,-1.5891,-1.5891,-1.5891,-1.5891,-1.5891,-1.5891,-1.5891,-1.5891,-1.5891,-1.5891,0.0,0.0,0.0,0.0,0.0,0.0,0.0,0.0,0.0,0.0,0.0,0.0,0.0,0.0,0.0,0.0,0.0,0.0,0.0,0.0,0.0,0.0,-0.4491,-0.4491,-0.4491,-0.4511,-0.4651,-0.4884,-0.4952,-0.5104,-0.5361,-0.5405,-0.5291,-0.5056,-0.4813,-0.4634,-0.4491,-0.4491,-0.458,-0.4704,-0.4857,0.0,0.0,0.0,0.0,0.0,0.0,0.0,0.0,-0.5395,-0.5395,-0.5491,-0.6075,0.0,0.0,0.0,0.0,0.0,-0.7227,-0.8112,-0.8984,-0.9707,-0.9937,-1.0021,-1.0244,-1.0124,-1.0088,-1.0533,-1.0653,-1.0833,0.0,-1.1333,0.0,0.0,0.0,0.0,0.0,0.0,0.0,0.0,0.0,0.0,0.0,0.0,0.0,0.0,0.0,0.0,0.0,0.0,0.0,-1.6561,-1.641,-1.6398,-1.6599,-1.6417,-1.6435,-1.6634,-1.6211,-1.6254,-1.6682,-1.6223,-1.6109,0.0,0.0,0.0,-1.5891,-1.5891,-1.5891,-1.5891,-1.5891,-1.5891,-1.5891,-1.5891,-1.5891,-1.5891,0.0,0.0,0.0,0.0,0.0,0.0,0.0,0.0,0.0,0.0,0.0,0.0,0.0,0.0,0.0,0.0,0.0,0.0,0.0,0.0,0.0,-0.4491,-0.4491,-0.4491,-0.4491,-0.4617,-0.4677,-0.4724,-0.5139,-0.525,-0.514,-0.5433,-0.5338,-0.4914,-0.4769,-0.4634,-0.4491,-0.4491,-0.458,-0.4704,-0.4857,0.0,0.0,0.0,0.0,0.0,0.0,0.0,0.0,-0.5395,-0.5395,-0.5428,-0.5524,0.0,0.0,0.0,0.0,0.0,-0.7328,-0.8029,-0.8568,-0.9619,-1.0069,-1.0244,-1.0286,-1.0262,-1.0256,-1.0334,-1.0533,0.0,0.0,-1.1697,-1.2252,0.0,0.0,0.0,0.0,0.0,0.0,0.0,0.0,0.0,0.0,0.0,0.0,0.0,0.0,0.0,0.0,0.0,0.0,-1.6012,-1.6205,-1.6229,-1.601,-1.6199,-1.6295,-1.635,-1.6501,-1.6622,-1.67,-1.6616,-1.6471,0.0,0.0,-1.6097,-1.5891,-1.5891,-1.5891,-1.5891,-1.5891,-1.5891,-1.5891,-1.5891,-1.5891,-1.5891,0.0,0.0,0.0,0.0,0.0,0.0,0.0,0.0,0.0,0.0,0.0,0.0,0.0,0.0,0.0,0.0,0.0,0.0,0.0,0.0,-0.4156,-0.4491,-0.4569,-0.4614,-0.4614,-0.4653,-0.4839,-0.5085,-0.5293,-0.5402,-0.5379,-0.5352,-0.5189,-0.4881,-0.4758,-0.4634,-0.4494,-0.458,-0.4655,-0.4711,0.0,0.0,0.0,0.0,0.0,0.0,0.0,0.0,0.0,0.0,-0.5395,-0.5395,-0.5395,0.0,0.0,0.0,0.0,0.0,-0.72,-0.7507,-0.787,-0.9656,-1.031,-1.0539,-1.0683,-1.0605,-1.0587,-1.0882,0.0,0.0,0.0,0.0,0.0,0.0,0.0,0.0,0.0,0.0,0.0,0.0,0.0,0.0,0.0,0.0,0.0,0.0,0.0,0.0,0.0,0.0,0.0,0.0,-1.6006,-1.6012,-1.5891,-1.6,-1.6061,-1.6072,-1.6199,-1.6338,-1.6471,-1.6326,-1.6272,-1.6272,0.0,-1.6,-1.5879,-1.5734,-1.568,-1.568,-1.568,-1.568,-1.5692,-1.5837,-1.5891,-1.5891,0.0,0.0,0.0,0.0,0.0,0.0,0.0,0.0,0.0,0.0,0.0,0.0,0.0,0.0,0.0,0.0,0.0,0.0,0.0,-0.3738,-0.3959,-0.4267,-0.4552,-0.4691,-0.4691,-0.4758,-0.4979,-0.5395,-0.5463,-0.5559,-0.5633,-0.5258,-0.5022,-0.4881,-0.4758,-0.4655,-0.4552,-0.4672,-0.4711,-0.4765,0.0,0.0,0.0,0.0,0.0,0.0,0.0,0.0,0.0,0.0,0.0,0.0,0.0,0.0,0.0,-0.5405,-0.5419,-0.5747,-0.7131,-0.7142,-0.7349,-0.9561,-1.0284,-1.0603,-1.117,-1.1148,-1.1116,-1.1657,0.0,0.0,0.0,0.0,0.0,0.0,0.0,0.0,0.0,0.0,0.0,0.0,0.0,0.0,0.0,0.0,0.0,0.0,0.0,0.0,0.0,0.0,0.0,0.0,-1.5891,-1.5861,-1.5801,-1.5801,-1.5831,-1.5891,-1.5952,-1.6054,-1.6181,-1.6048,-1.6054,-1.6175,-1.5976,-1.5891,-1.5873,-1.5674,-1.559,-1.559,-1.559,-1.559,-1.5614,-1.5813,-1.5891,-1.5891,0.0,0.0,0.0,0.0,0.0,0.0,0.0,0.0,0.0,0.0,0.0,0.0,0.0,0.0,0.0,0.0,0.0,0.0,0.0,-0.4125,-0.4211,-0.3683,-0.4321,-0.4691,-0.4691,-0.4958,-0.5186,-0.5395,-0.5637,-0.5776,-0.5776,-0.5305,-0.5022,-0.4881,-0.4758,-0.4684,-0.4674,-0.4684,-0.4772,-0.4884,-0.5036,0.0,0.0,0.0,0.0,0.0,0.0,0.0,0.0,0.0,0.0,0.0,0.0,0.0,-0.5545,-0.5436,-0.5494,-0.5913,-0.7362,-0.7312,-0.7242,-0.9083,-0.9648,-1.0146,-1.1528,-1.1814,-1.1986,-1.2512,-1.262,0.0,0.0,0.0,0.0,0.0,0.0,0.0,0.0,0.0,0.0,0.0,0.0,0.0,0.0,0.0,0.0,0.0,0.0,0.0,0.0,0.0,0.0,0.0,-1.5891,-1.5771,-1.5529,-1.5529,-1.565,-1.5891,-1.6139,-1.6133,-1.5928,-1.6151,-1.6133,-1.5916,-1.5897,-1.5891,-1.5891,-1.5867,-1.5861,-1.5861,-1.5861,-1.5861,-1.5861,-1.5885,-1.5891,-1.5891,0.0,0.0,0.0,0.0,0.0,0.0,0.0,0.0,0.0,0.0,0.0,0.0,0.0,0.0,0.0,0.0,0.0,0.0,0.0,-0.2681,-0.2875,-0.3042,-0.3746,-0.4174,-0.4258,-0.4808,-0.5254,-0.5539,-0.5613,-0.5671,-0.5661,-0.5209,-0.4985,-0.5009,-0.4799,-0.4745,-0.484,-0.4925,-0.4965,-0.5032,-0.5213,-0.5274,0.0,0.0,0.0,0.0,0.0,0.0,0.0,0.0,-0.5457,-0.5539,-0.5539,-0.5542,-0.5579,-0.5556,-0.5511,-0.5679,-0.6668,-0.6857,-0.722,-0.8937,-0.952,-0.9966,-1.0937,-1.1553,-1.203,-1.2596,-1.2843,0.0,0.0,0.0,0.0,0.0,0.0,0.0,0.0,0.0,0.0,0.0,0.0,0.0,0.0,0.0,0.0,0.0,0.0,0.0,0.0,0.0,0.0,0.0,-1.5403,-1.5354,-1.5258,-1.5252,-1.5306,-1.5403,-1.5505,-1.5674,-1.5885,-1.5825,-1.5831,-1.5891,-1.5891,-1.5891,-1.5879,-1.5716,-1.5644,-1.5644,-1.5644,-1.5747,-1.5891,-1.5891,-1.5891,-1.5891,0.0,0.0,0.0,0.0,0.0,0.0,0.0,0.0,0.0,0.0,0.0,0.0,0.0,0.0,0.0,0.0,0.0,0.0,-0.1762,-0.1986,-0.2179,-0.2402,-0.3314,-0.3762,-0.3665,-0.4593,-0.5248,-0.5589,-0.5589,-0.5589,-0.5583,-0.5176,-0.5005,-0.509,-0.4874,-0.4847,-0.4961,-0.5059,-0.5127,-0.5213,-0.5351,-0.5395,0.0,0.0,0.0,0.0,0.0,0.0,0.0,0.0,-0.5539,-0.5596,-0.5644,-0.5691,-0.5722,-0.5671,-0.5616,-0.5799,-0.6688,-0.6903,-0.7255,-0.8937,-0.9605,-1.0024,-1.0781,-1.1583,-1.2367,-1.3067,-1.323,-1.335,-1.3701,0.0,0.0,0.0,0.0,0.0,0.0,0.0,0.0,0.0,0.0,0.0,0.0,0.0,0.0,0.0,0.0,0.0,0.0,0.0,0.0,0.0,-1.5107,-1.5071,-1.4986,-1.4986,-1.4986,-1.4986,-1.4896,-1.5131,-1.5638,-1.5457,-1.5517,-1.5765,-1.5765,-1.5813,-1.5879,-1.5698,-1.5626,-1.5626,-1.5626,-1.5734,-1.5891,-1.5891,-1.5891,-1.5891,0.0,0.0,0.0,0.0,0.0,0.0,0.0,0.0,0.0,0.0,0.0,0.0,0.0,0.0,0.0,0.0,0.0,0.0,-0.179,-0.2347,-0.2402,-0.1818,-0.3084,-0.3518,-0.2905,-0.4356,-0.5245,-0.5589,-0.5586,-0.5586,-0.5583,-0.5238,-0.51,-0.5096,-0.4955,-0.4968,-0.51,-0.51,-0.522,-0.5395,-0.5395,-0.5395,-0.5395,0.0,0.0,0.0,0.0,0.0,0.0,0.0,-0.5593,-0.5616,-0.5759,-0.5908,-0.5963,-0.5847,-0.5911,-0.6289,-0.7709,-0.7544,-0.7405,-0.9088,-0.9807,-1.0357,-1.1312,-1.2137,-1.3006,-1.4075,-1.3882,-1.3676,-1.4195,0.0,0.0,0.0,0.0,0.0,0.0,0.0,0.0,0.0,0.0,0.0,0.0,0.0,0.0,0.0,0.0,0.0,0.0,0.0,0.0,0.0,-1.5101,-1.4974,-1.4714,-1.4714,-1.4714,-1.4708,-1.4431,-1.4582,-1.5107,-1.5107,-1.5246,-1.5493,-1.5499,-1.5644,-1.5885,-1.5885,-1.5885,-1.5891,-1.5891,-1.5891,-1.5891,-1.5891,-1.5891,-1.5891,0.0,0.0,0.0,0.0,0.0,0.0,0.0,0.0,0.0,0.0,0.0,0.0,0.0,0.0,0.0,0.0,0.0,0.0,-0.1036,-0.1204,-0.126,-0.1177,-0.237,-0.298,-0.2905,-0.4242,-0.5128,-0.5463,-0.5321,-0.5321,-0.5457,-0.5121,-0.5091,-0.5287,-0.5135,-0.5152,-0.5291,-0.5157,-0.5147,-0.519,-0.519,-0.519,-0.519,0.0,0.0,0.0,0.0,0.0,0.0,0.0,0.0,0.0,-0.5912,-0.5956,-0.5983,-0.5939,-0.5918,-0.5966,-0.6384,-0.7245,0.0,-0.8661,0.0,0.0,0.0,-1.2528,-1.2952,0.0,-1.3904,-1.3847,-1.4005,0.0,0.0,0.0,0.0,0.0,0.0,0.0,0.0,0.0,0.0,0.0,0.0,0.0,0.0,0.0,0.0,0.0,0.0,0.0,0.0,0.0,-1.4539,-1.4503,-1.4425,-1.4425,-1.4425,-1.4419,-1.4334,-1.4582,-1.5101,-1.4914,-1.4974,-1.5234,-1.5421,-1.5439,-1.5354,-1.5535,-1.5722,-1.5891,-1.5891,-1.5891,-1.5891,-1.5891,-1.5891,-1.5891,0.0,0.0,0.0,0.0,0.0,0.0,0.0,0.0,0.0,0.0,-0.0589,-0.0589,0.0,0.0,0.0,0.0,0.0,0.0,0.0,-0.0589,-0.0617,-0.0701,-0.1614,-0.2501,-0.325,-0.4055,-0.4766,-0.5395,-0.5206,-0.5209,-0.5392,-0.5179,-0.5221,-0.5392,-0.5195,-0.5173,-0.5259,-0.5057,-0.499,-0.499,-0.499,-0.5059,-0.5201,0.0,0.0,0.0,0.0,0.0,0.0,0.0,0.0,0.0,-0.6101,-0.6122,-0.6122,-0.6122,-0.6054,-0.6131,-0.6787,-0.7747,0.0,-0.906,-1.0545,-1.2089,-1.2723,0.0,0.0,0.0,0.0,-1.392,-1.406,0.0,0.0,0.0,0.0,0.0,0.0,0.0,0.0,0.0,0.0,0.0,0.0,0.0,0.0,0.0,0.0,0.0,0.0,0.0,0.0,0.0,-1.4298,-1.4298,-1.4298,-1.4298,-1.4298,-1.4298,-1.4298,-1.4467,-1.4781,-1.4618,-1.4696,-1.4968,-1.5228,-1.5252,-1.5119,-1.5276,-1.5439,-1.559,-1.5692,-1.5734,-1.5747,-1.5849,-1.5891,-1.5891,0.0,0.0,0.0,0.0,0.0,0.0,0.0,0.0,0.0,0.0,-0.0393,-0.0393,0.0,0.0,0.0,0.0,0.0,0.0,0.0,-0.0394,-0.0394,-0.0394,-0.0986,-0.209,-0.3744,-0.3771,-0.428,-0.5362,-0.5174,-0.5209,-0.5395,-0.5382,-0.5388,-0.5412,-0.5196,-0.5093,-0.5106,-0.4867,-0.4797,-0.4797,-0.4797,-0.4978,-0.5252,-0.5142,0.0,0.0,0.0,0.0,0.0,0.0,0.0,0.0,-0.6255,-0.63,-0.63,-0.63,-0.63,-0.6644,-0.8169,-0.8589,0.0,-0.9769,-1.0914,0.0,-1.2939,-1.3725,-1.425,-1.425,0.0,0.0,0.0,0.0,0.0,0.0,0.0,0.0,0.0,0.0,0.0,0.0,0.0,0.0,0.0,0.0,0.0,0.0,0.0,0.0,0.0,0.0,0.0,0.0,-1.4298,-1.4298,-1.4298,-1.4298,-1.4298,0.0,-1.4298,-1.4298,-1.4298,-1.4298,-1.4455,-1.4733,-1.4944,-1.5065,-1.5107,-1.5083,-1.5083,-1.5131,-1.5372,-1.5481,-1.5529,-1.5765,-1.5867,-1.5891,0.0,0.0,0.0,0.0,0.0,0.0,0.0,0.0,0.0,0.0,0.0,0.0,0.0,0.0,0.0,0.0,0.0,0.0,0.0,-0.023,-0.0291,-0.0408,-0.099,-0.2013,-0.3528,-0.3451,-0.3974,-0.5156,-0.5109,-0.5209,-0.5392,-0.5237,-0.5308,-0.5535,-0.5242,-0.5151,-0.5217,-0.4803,-0.4628,-0.4628,-0.4628,-0.4836,-0.5146,-0.5108,-0.5385,0.0,0.0,0.0,0.0,0.0,0.0,0.0,-0.6289,-0.63,-0.63,-0.63,-0.63,-0.6528,-0.7484,-0.7748,0.0,0.0,-1.0305,-1.1789,-1.3112,-1.3716,-1.3993,-1.3993,0.0,0.0,0.0,0.0,0.0,0.0,0.0,0.0,0.0,0.0,0.0,0.0,0.0,0.0,0.0,0.0,0.0,0.0,0.0,0.0,0.0,0.0,0.0,-1.4298,-1.4298,-1.4298,-1.4298,-1.4298,-1.4298,0.0,-1.4298,-1.4298,-1.4298,-1.4298,-1.4455,-1.4708,-1.4545,-1.4714,-1.5089,-1.4883,-1.492,-1.5113,-1.5167,-1.5318,-1.5505,-1.5559,-1.5716,-1.5891,0.0,0.0,0.0,0.0,0.0,0.0,0.0,0.0,0.0,0.0,0.0,0.0,0.0,0.0,0.0,0.0,0.0,0.0,0.0,0.0,-0.0149,-0.0215,-0.05,-0.1404,-0.295,-0.2908,-0.3545,-0.496,-0.5049,-0.5212,-0.5392,-0.5281,-0.5292,-0.5338,-0.5092,-0.4965,-0.4925,-0.459,-0.4464,-0.4464,-0.4464,-0.4673,-0.4951,-0.4913,-0.5152,-0.5512,-0.5617,0.0,0.0,0.0,0.0,0.0,0.0,0.0,-0.63,-0.63,-0.63,-0.6493,-0.7292,0.0,0.0,-0.9223,0.0,-1.1169,-1.2753,-1.3078,-1.3153,0.0,0.0,0.0,0.0,0.0,0.0,0.0,0.0,0.0,0.0,0.0,0.0,0.0,0.0,0.0,0.0,0.0,0.0,0.0,0.0,0.0,0.0,-1.4298,-1.4298,-1.4298,-1.4298,-1.4298,-1.4298,-1.4298,-1.4298,-1.4298,-1.4298,-1.4298,-1.4298,-1.4298,-1.4377,-1.4509,-1.4358,-1.4461,-1.4708,-1.457,-1.4594,-1.4733,-1.4865,-1.5083,-1.5324,-1.5451,-1.5662,-1.5891,0.0,0.0,0.0,0.0,0.0,0.0,0.0,0.0,0.0,0.0,0.0,0.0,0.0,0.0,0.0,0.0,0.0,0.0,0.0,0.0,0.0,0.0,0.0,-0.0723,-0.2315,-0.2348,-0.3151,-0.4764,-0.4924,-0.5123,-0.5296,-0.5329,-0.5272,-0.5125,-0.487,-0.4706,-0.4627,-0.4409,-0.43,-0.43,-0.43,-0.4507,-0.4789,-0.4717,-0.4912,-0.5277,-0.5535,-0.5663,-0.5742,-0.6098,0.0,0.0,0.0,0.0,-0.63,-0.63,-0.63,-0.6493,-0.7292,0.0,-0.791,-0.9472,-0.994,0.0,-1.2074,-1.2207,0.0,0.0,0.0,0.0,0.0,0.0,0.0,0.0,0.0,0.0,0.0,0.0,0.0,0.0,0.0,0.0,0.0,0.0,0.0,0.0,0.0,0.0,0.0,-1.4183,-1.4201,-1.4292,-1.4208,-1.4208,-1.4298,-1.425,-1.425,-1.4298,-1.4298,-1.4298,-1.4298,-1.4298,-1.4298,-1.4298,-1.4298,-1.4298,-1.4298,-1.4298,-1.4298,-1.4322,-1.4552,-1.4805,-1.5065,-1.5282,-1.5529,-1.5765,0.0,0.0,0.0,0.0,0.0,0.0,0.0,0.0,0.0,0.0,0.0,0.0,0.0,0.0,0.0,0.0,0.0,0.0,0.0,0.0,0.0,0.0,0.0,-0.067,-0.2114,-0.2147,-0.295,-0.4625,-0.4658,-0.4728,-0.4897,-0.5057,-0.5188,-0.5271,-0.4812,-0.4689,-0.4755,-0.4445,-0.43,-0.43,-0.43,-0.4507,-0.4789,-0.4717,-0.5006,-0.5445,-0.5464,-0.5506,-0.5648,-0.5857,-0.5941,0.0,0.0,0.0,0.0,-0.63,-0.63,-0.6493,-0.7292,0.0,-0.7747,0.0,-0.8973,-1.0048,0.0,0.0,0.0,0.0,0.0,0.0,0.0,0.0,0.0,0.0,0.0,0.0,0.0,0.0,0.0,0.0,0.0,0.0,0.0,0.0,0.0,0.0,0.0,0.0,-1.3948,-1.3743,-1.3827,-1.4286,-1.3857,-1.3839,-1.4292,-1.4075,-1.4075,-1.4298,-1.4298,-1.4298,-1.4298,-1.4298,-1.4298,-1.4298,-1.4298,-1.4298,-1.4298,-1.4298,-1.4298,-1.4298,-1.434,-1.4521,-1.4775,-1.4805,-1.4986,-1.5246,0.0,0.0,0.0,0.0,0.0,0.0,0.0,0.0,0.0,0.0,0.0,0.0,0.0,0.0,0.0,0.0,0.0,0.0,0.0,0.0,0.0,0.0,0.0,-0.0471,-0.1511,-0.1913,-0.2648,-0.382,-0.4356,-0.4663,-0.4736,-0.4835,-0.4903,-0.4957,-0.476,-0.4663,-0.4605,-0.4383,-0.43,-0.43,-0.43,-0.4436,-0.4653,-0.4689,-0.4865,-0.5144,-0.529,-0.539,-0.5479,-0.5673,-0.5825,-0.5941,-0.6022,0.0,0.0,0.0,-0.63,-0.6377,-0.6718,-0.6885,-0.7055,0.0,-0.826,-0.9147,-1.0566,0.0,0.0,0.0,0.0,0.0,0.0,0.0,0.0,0.0,0.0,0.0,0.0,0.0,0.0,0.0,0.0,0.0,0.0,0.0,0.0,0.0,0.0,0.0,-1.3682,-1.3574,-1.3622,-1.3851,-1.3634,-1.3628,-1.3857,-1.3743,-1.3815,-1.4081,-1.4226,-1.4298,-1.4298,-1.4298,-1.4298,-1.4298,-1.4298,-1.4298,-1.4298,-1.4298,-1.4298,-1.4298,-1.4298,-1.4467,-1.4714,-1.4714,-1.4974,-1.5324,0.0,0.0,0.0,0.0,0.0,0.0,0.0,0.0,0.0,0.0,0.0,0.0,0.0,0.0,0.0,0.0,0.0,0.0,0.0,0.0,0.0,0.0,0.0,-0.0337,-0.1076,-0.1745,-0.2447,-0.3215,-0.409,-0.4557,-0.4645,-0.4679,-0.4713,-0.4741,-0.471,-0.4658,-0.4545,-0.446,-0.439,-0.439,-0.439,-0.4473,-0.4566,-0.469,-0.4754,-0.4849,-0.5123,-0.5207,-0.5243,-0.5443,-0.5634,-0.5747,-0.5825,-0.5983,0.0,0.0,0.0,0.0,0.0,0.0,-0.6451,-0.7065,-0.7632,-0.8374,0.0,0.0,0.0,0.0,0.0,0.0,0.0,0.0,0.0,0.0,0.0,0.0,0.0,0.0,0.0,0.0,0.0,0.0,0.0,0.0,0.0,0.0,0.0,-1.3338,-1.3411,-1.3344,-1.3375,-1.3513,-1.3381,-1.3375,-1.3513,-1.3513,-1.361,-1.3809,-1.4075,-1.4201,-1.4201,-1.4268,-1.4298,-1.4298,-1.4298,-1.4298,-1.4298,-1.4298,-1.4298,-1.4298,-1.4298,-1.4425,-1.4612,-1.4612,-1.4859,-1.5179,0.0,0.0,0.0,0.0,0.0,0.0,0.0,0.0,0.0,0.0,0.0,0.0,0.0,0.0,0.0,0.0,0.0,0.0,0.0,0.0,0.0,0.0,0.0,0.0,-0.1076,-0.1745,-0.2447,-0.3215,-0.3961,-0.4391,-0.4506,-0.4624,-0.4742,-0.4811,-0.4731,-0.4679,-0.4679,-0.4673,-0.4671,-0.4671,-0.4671,-0.4676,-0.4692,-0.4779,-0.479,-0.4812,-0.4972,-0.5015,-0.5057,-0.5243,-0.5321,-0.5359,-0.5556,-0.575,0.0,0.0,0.0,0.0,0.0,-0.63,0.0,-0.6338,-0.7156,0.0,0.0,0.0,0.0,0.0,0.0,0.0,0.0,0.0,0.0,0.0,0.0,0.0,0.0,0.0,0.0,0.0,0.0,0.0,0.0,0.0,0.0,0.0,0.0,-1.2862,-1.3133,-1.2892,-1.2982,-1.3501,-1.3019,-1.2994,-1.3507,-1.3513,-1.3519,-1.3538,-1.3803,-1.3924,-1.3936,-1.4183,-1.4298,-1.4298,-1.4298,-1.4298,-1.4298,-1.4298,-1.4298,-1.4298,-1.4298,-1.4304,-1.4322,-1.4322,-1.4334,-1.4395,0.0,0.0,0.0,0.0,0.0,0.0,0.0,0.0,0.0,0.0,0.0,0.0,0.0,0.0,0.0,0.0,0.0,0.0,0.0,0.0,0.0,0.0,0.0,-0.0337,-0.1076,-0.1745,-0.2447,-0.3215,-0.3928,-0.4357,-0.4506,-0.4629,-0.4719,-0.4795,-0.4787,-0.4768,-0.4765,-0.4723,-0.469,-0.469,-0.469,-0.4736,-0.4773,-0.4779,-0.4844,-0.492,0.0,0.0,0.0,0.0,0.0,0.0,0.0,0.0,-0.575,-0.5864,0.0,0.0,0.0,0.0,0.0,-0.63,-0.6641,0.0,0.0,0.0,0.0,0.0,0.0,0.0,0.0,0.0,0.0,0.0,0.0,0.0,0.0,0.0,0.0,0.0,0.0,0.0,0.0,0.0,0.0,0.0,0.0,0.0,-1.285,-1.2759,-1.2795,-1.2988,-1.2807,-1.2795,-1.2994,-1.3175,-1.3221,-1.3272,-1.3701,-1.3906,-1.3918,-1.4177,-1.4298,-1.4298,-1.4298,-1.4298,-1.4298,-1.4298,-1.4298,-1.4298,-1.4298,-1.4298,-1.4298,-1.4298,-1.4413,-1.4558,0.0,0.0,0.0,0.0,0.0,0.0,0.0,0.0,0.0,0.0,0.0,0.0,0.0,0.0,0.0,0.0,0.0,0.0,0.0,0.0,0.0,0.0,0.0,-0.0236,-0.0706,-0.166,-0.2369,-0.2815,-0.3623,-0.4037,-0.4142,-0.4255,-0.435,-0.442,-0.4725,-0.4858,-0.4852,-0.4809,-0.4813,-0.4813,-0.4813,-0.4822,-0.4858,-0.4858,-0.4909,0.0,0.0,0.0,0.0,0.0,0.0,0.0,0.0,0.0,-0.5556,-0.575,-0.5906,-0.6067,-0.6141,0.0,0.0,0.0,0.0,0.0,0.0,0.0,0.0,0.0,0.0,0.0,0.0,0.0,0.0,0.0,0.0,0.0,0.0,0.0,0.0,0.0,0.0,0.0,0.0,0.0,0.0,0.0,0.0,0.0,-1.2662,-1.2705,-1.2705,-1.2705,-1.2705,-1.2705,-1.2705,-1.2539,-1.2502,-1.2508,-1.3053,-1.3298,-1.331,-1.3987,-1.4298,-1.4298,-1.4298,-1.41,-1.3757,-1.3757,-1.3757,-1.3757,-1.3757,-1.4004,-1.4298,-1.4298,-1.4419,-1.4564,0.0,0.0,0.0,0.0,0.0,0.0,0.0,0.0,0.0,0.0,0.0,0.0,0.0,0.0,0.0,0.0,0.0,0.0,0.0,0.0,0.0,0.0,0.0,0.0,-0.0034,-0.1484,-0.2206,-0.2114,-0.2962,-0.336,-0.3413,-0.3525,-0.3611,-0.3668,-0.457,-0.5012,-0.5012,-0.5015,-0.5015,-0.5012,-0.5015,-0.5018,-0.5018,-0.5021,0.0,0.0,-0.5151,-0.5192,0.0,-0.5369,0.0,0.0,0.0,-0.5263,-0.5321,-0.5521,-0.5598,-0.5637,0.0,0.0,0.0,0.0,0.0,0.0,0.0,0.0,0.0,0.0,0.0,0.0,0.0,0.0,0.0,0.0,0.0,0.0,0.0,0.0,0.0,0.0,0.0,0.0,0.0,0.0,0.0,0.0,0.0,-1.1671,-1.2571,-1.2619,-1.2619,-1.2619,-1.2656,-1.2662,-1.2662,-1.1757,-1.1284,-1.13,-1.1801,-1.2073,-1.2094,-1.3572,-1.4244,-1.4244,-1.4244,-1.3661,-1.2678,-1.2678,-1.2678,-1.2678,-1.2678,-1.327,-1.4196,-1.4196,-1.4196,-1.4238,0.0,0.0,0.0,0.0,0.0,0.0,0.0,0.0,0.0,0.0,0.0,0.0,0.0,0.0,0.0,0.0,0.0,0.0,0.0,0.0,0.0,0.0,0.0,-0.0236,-0.0774,-0.1219,-0.1658,-0.2114,-0.2332,-0.2787,-0.3391,-0.353,-0.3907,-0.4495,-0.4755,-0.4847,-0.4852,-0.4941,-0.4928,-0.4855,-0.4944,-0.5018,0.0,0.0,0.0,0.0,0.0,-0.5361,-0.5366,0.0,-0.5388,-0.5344,0.0,-0.5263,-0.5321,-0.5359,-0.5479,-0.5598,-0.5676,0.0,0.0,0.0,0.0,0.0,0.0,0.0,0.0,0.0,0.0,0.0,0.0,0.0,0.0,0.0,0.0,0.0,0.0,0.0,0.0,0.0,0.0,0.0,0.0,0.0,0.0,0.0,-1.0274,-1.0399,-1.0659,-1.0659,-1.0659,-1.0659,-1.1316,-1.1671,-1.1671,-1.1408,-1.137,-1.1453,-1.1156,-1.1049,-1.1211,-1.2544,-1.3119,-1.3119,-1.3119,-1.2581,-1.1658,-1.2387,-1.229,-1.1609,-1.1609,-1.1804,-1.2052,-1.2052,-1.2052,-1.2083,0.0,0.0,0.0,0.0,0.0,0.0,0.0,0.0,0.0,0.0,0.0,0.0,0.0,0.0,0.0,0.0,0.0,0.0,0.0,0.0,0.0,0.0,0.0,-0.0207,-0.0626,-0.1009,-0.1356,-0.1668,-0.1738,-0.2183,-0.2926,-0.3083,-0.3538,-0.4307,-0.4695,-0.4855,-0.477,-0.4944,-0.4909,-0.4806,-0.493,0.0,0.0,-0.5162,-0.5219,0.0,0.0,0.0,-0.5453,-0.5504,-0.5488,0.0,0.0,0.0,-0.5359,-0.5359,-0.5439,-0.5522,-0.5605,-0.5645,-0.5633,0.0,0.0,0.0,-0.5902,-0.598,0.0,0.0,0.0,0.0,0.0,0.0,0.0,0.0,0.0,0.0,0.0,0.0,0.0,0.0,0.0,0.0,0.0,0.0,0.0,-0.9231,-0.9318,-0.9492,-0.9879,-0.9879,-0.9879,-0.9879,-1.0448,-1.0885,-1.1284,-1.0539,-1.0392,-1.0969,-1.0319,-1.0104,-1.0248,-1.1511,-1.2047,-1.2047,-1.2047,-1.1512,-1.0583,-1.117,-1.1072,-1.0538,-1.0538,-1.0832,-1.1219,-1.1219,-1.1219,-1.1262,0.0,0.0,0.0,0.0,0.0,0.0,0.0,0.0,0.0,0.0,0.0,0.0,0.0,0.0,0.0,0.0,0.0,0.0,0.0,0.0,0.0,0.0,0.0,0.0,0.0,-0.0765,-0.1093,-0.0984,-0.1093,-0.1513,-0.2192,-0.2418,-0.2913,-0.3642,-0.4565,-0.4876,-0.4725,-0.4904,0.0,-0.4806,-0.4944,-0.5097,0.0,0.0,-0.5295,-0.5407,-0.5483,-0.5526,-0.5543,-0.5653,-0.5607,0.0,0.0,0.0,0.0,0.0,-0.541,-0.5455,-0.5624,-0.5666,-0.5679,-0.576,0.0,0.0,-0.587,-0.606,-0.6264,0.0,0.0,0.0,0.0,0.0,0.0,0.0,0.0,0.0,0.0,0.0,0.0,0.0,0.0,0.0,0.0,-0.7014,-0.7448,-0.8281,-0.8368,-0.8711,-0.9531,-0.9575,-0.9575,-0.9575,-0.9705,-1.0144,-1.0977,-0.9327,-0.9036,-1.0057,-0.9372,-0.9087,-0.9276,-1.0502,-1.1023,-1.1023,-1.1023,-1.0489,-0.9608,-0.946,-0.941,-0.941,-0.941,-0.9998,-1.0828,-1.0828,-1.0828,-1.0887,0.0,0.0,0.0,0.0,0.0,0.0,0.0,0.0,0.0,0.0,0.0,0.0,0.0,0.0,0.0,0.0,0.0,0.0,0.0,0.0,0.0,0.0,0.0,0.0,0.0,-0.0182,-0.0255,-0.0219,-0.0255,-0.0664,-0.151,-0.2188,-0.2935,-0.3803,-0.4518,-0.4806,-0.4766,0.0,0.0,-0.4814,-0.5067,0.0,-0.5208,-0.5362,-0.5451,-0.5489,-0.561,-0.5653,-0.5656,-0.568,-0.5607,-0.5502,0.0,0.0,0.0,-0.541,0.0,0.0,0.0,0.0,0.0,0.0,0.0,0.0,-0.5605,-0.5747,-0.5902,0.0,0.0,0.0,0.0,0.0,0.0,0.0,0.0,0.0,0.0,0.0,0.0,0.0,0.0,0.0,0.0,-0.7014,-0.7183,-0.736,-0.736,-0.7445,-0.7621,-0.7661,-0.7661,-0.7661,-0.8364,-0.8846,-0.9065,-0.8671,-0.8747,-0.9204,-0.8326,-0.8023,-0.8287,-0.9395,-0.9899,-0.9899,-0.9899,-0.9801,-0.9509,-0.8676,-0.8333,-0.8333,-0.8333,-0.8432,-0.8627,-0.8627,-0.8627,-0.8674,0.0,0.0539,0.0433,0.0,0.0,0.0,0.0,0.0,0.0,0.0,0.0,0.0,0.0,0.0,0.0,0.0,0.0,0.0,0.0,0.0,0.0,0.0,0.0,0.0,0.0,0.0,0.0,0.0,0.0,-0.0451,-0.1308,-0.2113,-0.2976,-0.3828,-0.456,-0.4887,-0.4887,0.0,-0.4887,-0.4903,-0.5116,0.0,-0.5298,-0.5437,-0.5545,-0.5607,-0.5667,-0.5688,-0.5688,-0.5688,-0.5648,0.0,0.0,-0.5556,-0.5551,0.0,-0.5551,-0.5551,0.0,0.0,0.0,-0.5474,0.0,0.0,0.0,-0.5692,-0.5828,0.0,0.0,0.0,0.0,0.0,0.0,0.0,0.0,0.0,0.0,0.0,0.0,0.0,0.0,0.0,0.0,-0.6834,-0.691,-0.6987,-0.7055,-0.7095,-0.7095,-0.7095,-0.7095,-0.7095,-0.7533,-0.8017,-0.85,-0.8149,-0.8314,-0.8983,-0.8139,-0.7824,-0.8041,-0.8577,-0.8825,-0.8825,-0.8825,-0.8825,-0.8775,-0.8233,-0.7988,-0.7988,-0.7988,-0.7988,-0.7988,-0.7988,-0.8039,-0.8187,0.1315,0.1148,0.0942,0.0,0.0,0.0,0.0098,0.0066,0.0068,0.007,0.0037,0.0,0.0,0.0,0.0,0.0,0.0,0.0,0.0,0.0,0.0,0.0,0.0,0.0,0.0,0.0,0.0,0.0,0.0,-0.0346,-0.1058,-0.1879,-0.2737,-0.3597,-0.4384,-0.4859,-0.5018,0.0,0.0,-0.5059,0.0,-0.5322,-0.5427,-0.5486,-0.5605,-0.5688,-0.5688,-0.5688,-0.5688,-0.5688,-0.5688,-0.5688,-0.5688,-0.5688,0.0,0.0,0.0,0.0,0.0,0.0,0.0,0.0,0.0,-0.582,0.0,0.0,0.0,0.0,0.0,0.0,0.0,0.0,0.0,0.0,0.0,0.0,0.0,0.0,0.0,0.0,0.0,0.0,0.0,-0.6654,-0.6807,-0.6916,-0.7007,-0.7068,-0.7095,-0.7095,-0.7095,-0.7095,-0.7125,-0.7539,-0.8288,-0.7744,-0.7902,-0.8753,-0.8133,-0.7892,-0.7988,-0.7988,-0.7988,-0.7988,-0.7988,-0.7988,-0.7988,-0.7988,-0.7988,-0.7988,-0.7988,-0.7988,-0.7992,-0.8022,-0.8163,-0.8347,0.1658,0.1321,0.1186,0.055,0.0,0.0,0.0,0.0336,0.0272,0.0279,0.011,0.0,0.0,0.0,0.0,0.0,0.0,0.0,0.0,0.0,0.0,0.0,0.0,0.0,0.0,0.0,0.0,0.0,0.0,-0.0039,-0.0157,-0.1019,-0.1879,-0.2699,-0.3558,-0.4343,-0.5018,0.0,-0.5075,0.0,-0.5339,-0.5399,0.0,-0.5627,-0.5677,-0.5688,-0.5688,-0.5688,-0.5688,0.0,-0.5688,-0.5688,0.0,-0.5688,-0.5688,-0.5688,0.0,0.0,0.0,0.0,0.0,0.0,-0.5769,0.0,0.0,0.0,0.0,0.0,0.0,0.0,0.0,0.0,0.0,0.0,0.0,0.0,0.0,0.0,0.0,0.0,0.0,0.0,0.0,0.0,-0.692,-0.7061,-0.697,-0.6964,-0.7088,-0.7095,-0.7095,-0.7095,-0.7275,-0.7437,-0.7524,-0.7545,-0.7692,-0.7928,-0.7849,-0.7892,-0.7988,-0.7988,-0.7988,-0.7988,-0.7988,-0.7988,-0.7988,-0.7988,-0.7988,-0.7988,-0.7988,-0.7988,-0.8005,-0.8194,-0.8255,-0.8313,0.2908,0.2365,0.193,0.1263,0.0,0.0,0.0,0.0485,0.0463,0.0475,0.0303,0.0193,0.0193,0.0078,0.0,0.0,0.0,0.0,0.0,0.0,0.0,0.0,0.0,0.0,0.0,0.0,0.0,0.0,0.0,0.0,0.0,-0.0902,-0.1722,-0.2543,-0.3402,0.0,-0.5018,0.0,-0.5045,0.0,0.0,0.0,0.0,-0.5613,-0.5688,-0.5688,-0.5688,-0.5688,-0.5688,0.0,-0.5688,0.0,0.0,0.0,0.0,0.0,0.0,0.0,0.0,0.0,0.0,0.0,0.0,0.0,-0.5644,0.0,-0.5705,0.0,0.0,0.0,0.0,0.0,0.0,0.0,0.0,0.0,0.0,0.0,0.0,0.0,0.0,0.0,0.0,0.0,0.0,0.0,0.0,-0.6913,-0.697,-0.7051,-0.7095,-0.7095,-0.7292,-0.7415,-0.7415,-0.7604,-0.7753,-0.7814,-0.7899,-0.7928,-0.7988,-0.7988,-0.7988,-0.7988,-0.7988,-0.7988,-0.7988,-0.7988,-0.7988,-0.7988,-0.7988,-0.7988,-0.8008,-0.8214,-0.8323,-0.8425,0.3849,0.3212,0.2574,0.1868,0.0,0.0,0.0,0.0606,0.0593,0.0604,0.0387,0.0236,0.0236,0.0079,0.0,0.0,0.0,0.0,0.0,0.0,0.0,0.0,0.0,0.0,0.0,0.0,0.0,0.0,0.0,0.0,0.0,-0.0667,-0.1371,-0.219,0.0,-0.3925,-0.4708,0.0,-0.4944,-0.4814,-0.5266,-0.5385,-0.536,-0.5551,-0.5659,-0.5688,-0.5688,-0.5688,-0.5688,-0.5688,-0.5688,0.0,-0.5688,0.0,0.0,0.0,0.0,0.0,-0.5986,0.0,0.0,0.0,0.0,0.0,0.0,0.0,0.0,0.0,0.0,0.0,0.0,0.0,0.0,0.0,0.0,0.0,0.0,0.0,0.0,0.0,0.0,0.0,0.0,0.0,0.0,0.0,-0.6742,-0.6842,-0.6883,-0.7018,-0.7115,-0.7204,-0.7353,-0.7451,-0.7492,-0.7746,-0.7875,-0.7875,-0.7938,-0.7988,-0.7988,-0.7988,-0.7988,-0.7988,-0.7988,-0.7988,-0.7988,-0.7988,-0.7988,-0.7988,-0.7988,-0.7988,-0.8012,-0.8258,-0.837,-0.8459,0.4094,0.3496,0.28,0.2191,0.0,0.0,0.0,0.0,0.0,0.0,0.0,0.0,0.0,0.0,0.0,0.0,0.0,0.0,0.0,0.0,0.0,0.0,0.0,0.0,0.0,0.0,0.0,0.0,0.0,0.0,0.0,-0.0039,-0.051,-0.1371,-0.2192,-0.3051,-0.4006,-0.4816,-0.4775,-0.4192,-0.5107,-0.557,-0.5659,0.0,-0.5586,-0.5688,-0.5688,0.0,0.0,-0.5688,-0.5688,0.0,0.0,0.0,0.0,0.0,0.0,0.0,0.0,0.0,0.0,-0.6265,0.0,0.0,0.0,0.0,-0.6069,0.0,0.0,0.0,0.0,0.0,-0.6078,-0.6035,-0.6099,0.0,0.0,0.0,0.0,0.0,0.0,0.0,0.0,0.0,0.0,-0.6681,-0.6702,-0.6773,-0.6876,-0.7018,-0.721,-0.7405,-0.7512,-0.7658,-0.7794,-0.7904,-0.7982,-0.7982,-0.7988,-0.7988,-0.7988,-0.7988,-0.7988,-0.7988,-0.7988,-0.7988,-0.7988,-0.7988,-0.7988,-0.7988,-0.7988,-0.7988,-0.8025,-0.8367,-0.8391,-0.834,0.4211,0.3238,0.2348,0.0,0.0,0.0,0.0,0.0936,0.0,0.0,0.0,0.0,0.0,0.0201,0.0,0.0,0.0,0.0,0.0,0.0,0.0,0.0,0.0,0.0,0.0,0.0,0.0,0.0,0.0,0.0,0.0,0.0,-0.0471,-0.1332,0.0,-0.3011,0.0,0.0,0.0,0.0,0.0,-0.4595,-0.4832,0.0,0.0,-0.5688,-0.5688,-0.5688,0.0,-0.5688,-0.5688,-0.5688,-0.5688,-0.5739,-0.5852,-0.589,-0.6018,0.0,0.0,0.0,-0.6287,-0.6315,0.0,0.0,0.0,0.0,0.0,0.0,0.0,0.0,0.0,0.0,-0.6142,-0.6269,-0.6393,-0.6488,0.0,0.0,0.0,0.0,0.0,0.0,0.0,0.0,0.0,-0.6446,-0.659,-0.6722,0.0,-0.6964,-0.721,-0.7412,-0.7519,-0.7668,-0.7811,-0.7914,-0.7988,-0.7988,-0.7988,-0.7988,-0.7988,-0.7988,-0.7988,-0.7988,-0.7988,-0.7988,-0.7988,-0.7988,-0.7988,-0.7988,-0.7988,-0.7988,-0.8015,-0.8265,-0.8364,-0.8319,0.3989,0.0,0.0,0.0,0.0,0.0,0.0,0.0,0.0,0.0,0.0773,0.0,0.0692,0.0,0.02,0.0,0.0196,0.0196,0.0118,0.0118,0.0,0.0,0.0,0.0,0.0,0.0,0.0,0.0,0.0,0.0,0.0,0.0,-0.0317,-0.0902,0.0,-0.293,-0.3611,0.0,-0.4331,0.0,0.0,-0.332,0.0,0.0,-0.5104,-0.5688,0.0,-0.5688,-0.5688,-0.5688,-0.5688,-0.5696,-0.5737,-0.5817,-0.5914,-0.5996,-0.6183,-0.6309,-0.6314,-0.6382,0.0,-0.6334,-0.6334,0.0,-0.6234,0.0,0.0,0.0,0.0,0.0,0.0,0.0,-0.6087,-0.6349,-0.649,-0.6634,0.0,-0.6797,0.0,0.0,0.0,0.0,0.0,0.0,-0.632,-0.6371,-0.6563,-0.6725,0.0,0.0,-0.7292,-0.7448,-0.7597,-0.7743,-0.7889,-0.7941,-0.7988,-0.7988,-0.7988,-0.7988,-0.7988,-0.7988,-0.7988,-0.7988,-0.7988,-0.7988,-0.7988,-0.7988,-0.7988,-0.7988,-0.7988,-0.7988,-0.8008,-0.8214,-0.8354,-0.8374,0.0,0.0,0.0,0.0,0.1588,0.0,0.0,0.0,0.1016,0.0,0.0814,0.0692,0.0732,0.0638,0.059,0.0589,0.0589,0.051,0.0314,0.0314,0.0,0.0,0.0,0.0,0.0,0.0,0.0,0.0,0.0,0.0,0.0,0.0,0.0,-0.0079,-0.1852,0.0,-0.2863,-0.3696,-0.3557,-0.2732,-0.1793,-0.1973,-0.2822,-0.2867,-0.403,-0.5555,-0.5555,-0.5555,-0.5555,-0.5555,-0.5599,-0.5665,-0.5775,-0.5876,-0.5952,-0.6216,-0.6298,-0.6303,-0.6396,-0.6387,-0.6387,-0.6387,0.0,0.0,0.0,0.0,-0.6387,0.0,0.0,0.0,0.0,0.0,0.0,-0.6373,-0.6435,-0.6565,0.0,0.0,0.0,0.0,0.0,0.0,0.0,-0.6399,-0.6375,-0.6504,-0.662,-0.6776,0.0,0.0,-0.7441,-0.7594,-0.7736,-0.7885,-0.7988,-0.7988,-0.7988,-0.7988,-0.7988,-0.7988,-0.7988,-0.7988,-0.7988,-0.7988,-0.7988,-0.7988,-0.7988,-0.7988,-0.7988,-0.7988,-0.7988,-0.7988,-0.8008,-0.8214,-0.8367,-0.8492,0.3452,0.2309,0.1448,0.0,0.1301,0.1211,0.0,0.0,0.0,0.0,0.0854,0.0692,0.0895,0.0729,0.0601,0.059,0.0589,0.0,0.0,0.0,0.0,0.0236,0.0236,0.0157,0.0,0.0,0.0,0.0,0.0,0.0,0.0,0.0,0.0,0.0,0.0,0.0,-0.1852,-0.2683,-0.2548,-0.1749,-0.1524,-0.1569,0.0,0.0,-0.3181,-0.3628,-0.3628,-0.3628,-0.3628,-0.3628,-0.4076,-0.4672,-0.481,-0.5399,-0.61,-0.6246,-0.632,-0.6388,-0.6376,-0.6387,-0.6387,-0.6387,-0.6387,-0.6387,0.0,0.0,0.0,0.0,0.0,0.0,0.0,0.0,0.0,-0.6512,-0.6767,-0.6949,0.0,0.0,0.0,0.0,0.0,0.0,0.0,-0.6542,-0.6556,-0.6518,-0.6719,0.0,0.0,0.0,0.0,-0.7594,-0.7736,-0.7885,-0.7988,-0.7988,-0.7988,-0.7988,-0.7988,-0.7988,-0.7988,-0.7988,-0.7988,-0.7988,-0.7988,-0.7988,-0.7988,-0.7988,-0.7988,-0.7988,-0.7988,-0.7988,-0.8008,-0.8214,-0.8431,-0.8652,0.4008,0.0,0.0,0.1305,0.0,0.0,0.1294,0.0,0.0,0.126,0.1058,0.0,0.1099,0.1008,0.0917,0.0904,0.0904,0.0,0.0746,0.0,0.0,0.0432,0.0432,0.0395,0.0319,0.0202,0.0,0.0168,0.0,0.0,0.0,0.0,0.0,0.0,0.0,-0.1373,-0.1434,-0.1929,-0.1862,-0.1345,-0.0942,0.0,0.0,-0.1436,-0.1614,-0.1614,-0.1614,-0.2196,-0.2911,-0.2911,-0.3269,-0.3687,-0.3816,-0.4239,-0.4774,-0.4901,-0.4988,-0.5081,-0.5584,-0.5679,-0.5827,-0.6284,-0.6387,-0.6387,-0.6387,-0.6387,-0.6387,0.0,0.0,0.0,0.0,0.0,0.0,0.0,0.0,0.0,0.0,0.0,0.0,0.0,0.0,0.0,0.0,0.0,0.0,0.0,0.0,0.0,0.0,0.0,0.0,-0.7597,-0.7801,-0.7901,-0.7988,-0.7988,-0.7988,-0.7988,-0.7988,-0.7988,-0.7988,-0.7988,-0.7988,-0.7988,-0.7988,-0.7988,-0.7988,-0.7988,-0.7988,-0.7988,-0.7988,-0.8029,-0.816,-0.8306,-0.8428,-0.8537,0.0,0.0,0.0,0.0,0.0,0.0,0.0,0.1319,0.0,0.1296,0.0,0.1296,0.1296,0.1312,0.1296,0.1296,0.0,0.1218,0.0982,0.0943,0.0864,0.0667,0.0628,0.0675,0.0691,0.049,0.0,0.0,0.0,0.0,0.0,0.0,0.0,0.0,0.0,0.0,0.0,-0.1202,-0.1211,-0.1166,-0.0314,0.0,0.0,0.0,0.0,0.0,0.0,-0.1077,-0.251,-0.251,-0.2603,-0.2711,-0.278,-0.2917,-0.3014,-0.3183,-0.3219,-0.3425,-0.4331,-0.4574,-0.4818,-0.5729,-0.5984,-0.6034,-0.6137,-0.6187,-0.6237,-0.6387,-0.6387,-0.6407,0.0,0.0,0.0,0.0,0.0,0.0,0.0,0.0,0.0,0.0,0.0,0.0,0.0,0.0,0.0,0.0,0.0,0.0,0.0,0.0,0.0,-0.7628,-0.7847,0.0,-0.7988,0.0,-0.7988,-0.7988,-0.7988,-0.7988,-0.7988,-0.7988,-0.7988,-0.7988,-0.7988,-0.7988,-0.7988,-0.7988,-0.7988,-0.7988,-0.7988,-0.8123,-0.8258,-0.8401,-0.8387,-0.834,0.0,0.0,0.0,0.0,0.0,0.1296,0.1296,0.1301,0.1305,0.1305,0.1305,0.1305,0.1305,0.13,0.1296,0.1296,0.1296,0.0,0.0,0.0,0.0,0.0864,0.0864,0.0795,0.0691,0.0663,0.0546,0.0,0.0,0.0,0.0,0.0,0.0,0.0,0.0,0.0,-0.0223,-0.0224,0.0,-0.0225,-0.0045,0.0,0.0,0.0,0.0,0.0,0.0,-0.0225,-0.0494,-0.0494,-0.1043,-0.1705,-0.179,-0.2392,-0.3016,-0.3148,-0.3222,-0.3224,-0.3425,-0.3475,-0.3524,-0.3725,-0.3776,-0.3977,-0.4883,-0.5083,-0.5334,-0.6234,-0.6387,-0.6381,-0.6363,0.0,0.0,0.0,0.0,0.0,0.0,0.0,0.0,0.0,0.0,0.0,0.0,0.0,0.0,0.0,0.0,0.0,0.0,0.0,0.0,0.0,0.0,0.0,0.0,0.0,-0.7988,-0.7988,-0.7988,-0.7988,-0.7988,-0.7988,-0.7988,-0.7988,-0.7988,-0.7988,-0.7988,-0.7988,-0.7988,-0.7988,-0.7988,-0.8005,-0.8099,-0.8252,-0.8367,-0.8489,0.0,0.0,0.0,0.0,0.0,0.0,0.0,0.1281,0.0,0.1298,0.1296,0.1296,0.1296,0.1296,0.1296,0.1296,0.1296,0.1296,0.1296,0.1296,0.1257,0.11,0.1113,0.0,0.0994,0.089,0.0775,0.0566,0.0,0.0,0.0,0.0,0.0,0.0,0.0,-0.0269,0.0,0.0,0.0,-0.0673,-0.018,0.0,0.0,0.0,0.0,0.0,0.0,0.0,0.0,0.0,-0.0321,-0.0695,-0.0757,-0.1058,-0.1465,-0.1502,-0.1563,-0.1664,-0.2217,-0.2368,-0.2519,-0.3073,-0.3224,-0.3324,-0.3828,-0.3979,-0.4128,-0.463,-0.473,-0.4931,-0.5484,-0.5643,0.0,0.0,0.0,0.0,0.0,0.0,0.0,0.0,0.0,0.0,0.0,0.0,0.0,0.0,0.0,0.0,0.0,0.0,0.0,0.0,0.0,0.0,0.0,0.0,0.0,-0.7988,-0.7988,-0.7988,-0.7988,-0.7988,-0.7988,-0.7988,-0.7988,-0.7988,-0.7988,-0.7988,-0.7988,-0.7988,-0.7988,-0.7988,-0.8008,-0.8214,-0.836,-0.8513,0.0,0.3829,0.0,0.0,0.1313,0.0,0.1293,0.1293,0.1284,0.13,0.1296,0.1296,0.1296,0.1296,0.1296,0.1296,0.1303,0.1307,0.1307,0.1312,0.1317,0.1317,0.1299,0.1326,0.1314,0.1165,0.0967,0.0,0.0,0.0,0.0,0.0,0.0,0.0,0.0,0.0,0.0,0.0,-0.0406,-0.1032,-0.0316,0.0,0.0,0.0,0.0,0.0,0.0,0.0,0.0,0.0,0.0,0.0,0.0,0.0,0.0,0.0,0.0,-0.0202,-0.1009,-0.1261,-0.1462,-0.2318,-0.2519,-0.2569,-0.2821,-0.2871,-0.2922,-0.3173,-0.3224,-0.3475,-0.428,-0.4481,0.0,0.0,0.0,0.0,0.0,0.0,0.0,0.0,0.0,0.0,0.0,0.0,0.0,0.0,0.0,0.0,0.0,0.0,0.0,0.0,0.0,-0.7988,-0.7988,0.0,-0.7988,0.0,-0.7988,-0.7988,-0.7988,-0.7988,-0.7988,-0.7988,-0.7988,-0.7988,-0.7988,-0.7988,-0.7988,-0.7988,-0.7988,-0.7988,-0.8005,-0.8177,-0.8313,-0.8459,0.0,0.0,0.0,0.0,0.0,0.0,0.0,0.1301,0.13,0.1297,0.1296,0.1296,0.1296,0.1296,0.1296,0.1296,0.1282,0.1299,0.1299,0.1283,0.1298,0.1298,0.13,0.1315,0.1385,0.1388,0.1273,0.0,0.0,0.0,0.0,0.0,0.0,0.0,0.0,0.0,0.0,-0.0046,-0.0046,-0.0135,-0.0046,0.0,0.0,0.0,0.0,0.0,0.0,0.0,0.0,0.0,0.0,0.0,0.0,0.0,0.0,0.0,0.0,0.0,-0.0101,-0.0151,-0.0151,-0.0252,-0.0303,-0.0555,-0.1513,-0.1765,-0.2016,-0.3022,-0.3224,-0.3224,-0.3324,-0.3374,-0.3676,0.0,0.0,0.0,0.0,0.0,0.0,0.0,0.0,0.0,0.0,0.0,0.0,0.0,0.0,0.0,0.0,0.0,0.0,-0.7941,0.0,-0.7988,-0.7988,-0.7988,0.0,-0.7988,-0.7988,-0.7988,-0.7988,-0.7988,-0.7988,-0.7988,-0.7988,-0.7988,-0.7988,-0.7988,-0.7988,-0.7988,-0.7988,-0.7988,-0.7992,-0.8005,-0.816,-0.8364,0.0,0.0,0.0,0.0,0.0,0.0,0.0,0.1296,0.1284,0.1284,0.1308,0.1296,0.1296,0.1313,0.1284,0.1284,0.1312,0.1288,0.1288,0.13,0.1305,0.1305,0.1321,0.1378,0.139,0.1408,0.1289,0.0,0.0,0.0,0.0,0.0,0.0,0.0,0.0,0.0,0.0,0.0,0.0,0.0,0.0,0.0,0.0,0.0,0.0,0.0,0.0,0.0,0.0,0.0,0.0,0.0,0.0,0.0,0.0,0.0,0.0,0.0,0.0,0.0,0.0,0.0,0.0,-0.0101,-0.0555,-0.0656,-0.0757,-0.1211,-0.1261,-0.1462,-0.2116,-0.2217,-0.2569,0.0,0.0,0.0,0.0,0.0,0.0,0.0,0.0,0.0,0.0,0.0,0.0,0.0,0.0,0.0,0.0,0.0,0.0,-0.7899,0.0,-0.7988,-0.7988,-0.7988,-0.7988,-0.7988,-0.7988,-0.7988,-0.7988,-0.7988,-0.7988,-0.7988,-0.7988,-0.7988,-0.7988,-0.7988,-0.7988,-0.7988,-0.7988,-0.7988,-0.7988,-0.7988,-0.8136,-0.8344,0.358,0.0,0.2169,0.0,0.1343,0.132,0.1291,0.1282,0.1316,0.1316,0.1297,0.1281,0.1311,0.1298,0.1316,0.1316,0.1301,0.1317,0.1317,0.1326,0.1331,0.1331,0.1393,0.0,0.1416,0.1438,0.1362,0.1233,0.1142,0.0,0.0,0.0,0.0,0.0,0.0187,0.0094,0.0,0.0,0.0,0.0,0.0,0.0,0.0,0.0,0.0,0.0,0.0,0.0,0.0,0.0,0.0,0.0,0.0,0.0,0.0,0.0,0.0,0.0,0.0,0.0,0.0,0.0,0.0,0.0,0.0,0.0,0.0,0.0,0.0,-0.0252,-0.1009,-0.111,-0.1462,-0.2569,0.0,0.0,0.0,0.0,0.0,0.0,-0.5313,-0.5855,-0.7118,0.0,0.0,0.0,0.0,0.0,0.0,0.0,0.0,0.0,0.0,0.0,0.0,-0.7988,-0.7988,-0.7988,-0.7988,-0.7988,-0.7988,-0.7988,-0.7988,-0.7988,-0.7988,-0.7988,-0.7988,-0.7988,-0.7988,-0.7988,-0.7988,-0.7988,-0.7988,-0.7988,-0.8109,-0.8225,0.4287,0.2727,0.1381,0.1311,0.1305,0.1296,0.1308,0.1287,0.1305,0.1305,0.1305,0.1294,0.1305,0.1288,0.1305,0.1305,0.1373,0.139,0.139,0.1417,0.1389,0.0,0.0,0.1449,0.1479,0.148,0.1495,0.1477,0.0,0.0,0.1191,0.0,0.0667,0.0381,0.0381,0.0238,0.0,0.0,0.0,0.0,0.0,0.0,0.0,0.0,0.0,0.0,0.0,0.0,0.0,0.0,0.0,0.0,0.0,0.0,0.0,0.0,0.0,0.0,0.0,0.0,0.0,0.0,0.0,0.0,0.0,0.0,0.0,0.0,0.0,0.0,0.0,0.0,-0.0353,-0.1462,0.0,0.0,0.0,0.0,0.0,0.0,-0.5616,-0.6248,-0.7466,0.0,0.0,0.0,0.0,0.0,0.0,0.0,0.0,-0.7982,-0.7988,0.0,-0.7988,-0.7988,-0.7988,-0.7988,-0.7988,-0.7988,-0.7988,-0.7988,-0.7988,-0.7988,-0.7988,-0.7988,-0.7988,-0.7988,-0.7988,-0.7988,-0.7988,-0.7988,-0.7988,-0.7988,-0.7992,-0.8015,0.2463,0.1806,0.1381,0.1311,0.1305,0.1296,0.1307,0.1287,0.1305,0.1305,0.1322,0.1373,0.1363,0.1371,0.1377,0.0,0.1403,0.1421,0.0,0.1385,0.1399,0.1466,0.1466,0.148,0.1511,0.1512,0.1516,0.1478,0.0,0.0,0.0,0.1192,0.0912,0.0681,0.0486,0.0245,0.0,0.0,0.0,0.0,0.0,0.0,0.0,0.0,0.0,0.0,0.0,0.0,0.0,0.0,0.0,0.0,0.0,0.0,0.0,0.0,0.0,0.0,0.0,0.0,0.0,0.0,0.0,0.0,0.0,0.0,0.0,0.0,0.0,0.0,0.0,0.0,-0.0101,-0.0454,-0.0202,0.0,0.0,0.0,0.0,0.0,-0.3364,-0.4279,0.0,-0.6581,0.0,0.0,0.0,0.0,0.0,0.0,0.0,0.0,-0.7988,0.0,-0.7988,-0.7988,-0.7988,-0.7988,-0.7988,-0.7988,-0.7988,-0.7988,-0.7988,-0.7988,-0.7988,-0.7988,-0.7988,-0.7988,-0.7988,-0.7988,-0.7988,-0.7988,-0.7988,-0.7988,-0.7988,-0.8012,0.2041,0.1622,0.1378,0.1296,0.1307,0.1311,0.1324,0.1312,0.1338,0.1338,0.1352,0.1407,0.1407,0.1417,0.0,0.1408,0.1435,0.1453,0.1453,0.1417,0.1478,0.1497,0.1498,0.1512,0.1543,0.0,0.0,0.156,0.156,0.156,0.1512,0.1414,0.1128,0.0794,0.0645,0.035,0.0,0.0,0.0,0.0,0.0,0.0,0.0,0.0,0.0,0.0,0.0,0.0,0.0,0.0,0.0,0.0,0.0,0.0,0.0,0.0,0.0,0.0,0.0,0.0,0.0,0.0,0.0,0.0,0.0,0.0,0.0,0.0,0.0,0.0,0.0,0.0,0.0,0.0,0.0,0.0,0.0,0.0,0.0,0.0,0.0,0.0,0.0,-0.5981,0.0,0.0,0.0,0.0,0.0,0.0,0.0,-0.7988,-0.7988,0.0,-0.7988,-0.7988,-0.7988,-0.7988,-0.7988,-0.7988,-0.7988,-0.7988,-0.7988,-0.7988,-0.7988,-0.7988,-0.7988,-0.7988,-0.7988,-0.7988,-0.7988,-0.7988,-0.7988,-0.7988,-0.8025,-0.814,0.2701,0.1996,0.0,0.0,0.1351,0.0,0.1304,0.1348,0.1385,0.1385,0.1386,0.1389,0.1393,0.1463,0.147,0.1399,0.0,0.0,0.0,0.151,0.1479,0.1529,0.1529,0.1543,0.1623,0.1624,0.1589,0.1617,0.1617,0.1617,0.1617,0.1566,0.1313,0.0808,0.0758,0.0505,0.0,0.0,0.0,0.0,0.0,0.0,0.0,0.0,0.0,0.0,0.0,0.0,0.0,0.0,0.0,0.0,0.0,0.0,0.0,0.0,0.0,0.0,0.0,0.0,0.0,0.0,0.0,0.0,0.0,0.0,0.0,0.0,0.0,0.0,0.0,0.0,0.0,0.0,0.0,0.0,0.0,0.0,0.0,0.0,0.0,0.0,0.0,-0.5579,-0.6237,0.0,0.0,0.0,0.0,0.0,-0.7988,-0.7988,-0.7988,-0.7988,-0.7988,-0.7988,-0.7988,-0.7988,-0.7988,-0.7988,-0.7988,-0.7988,-0.7988,-0.7988,-0.7988,-0.7988,-0.7988,-0.7988,-0.7988,-0.7988,-0.7988,-0.7988,-0.7992,-0.8002,-0.8147,-0.8323,0.0,0.0,0.1371,0.1313,0.1351,0.1365,0.129,0.133,0.1326,0.1326,0.1387,0.1418,0.1465,0.1476,0.1487,0.1456,0.1511,0.1515,0.1515,0.1522,0.1536,0.156,0.1561,0.1575,0.1605,0.1606,0.1609,0.1617,0.1617,0.1617,0.1617,0.1415,0.1111,0.0808,0.0606,0.0303,0.0,0.0,0.0,0.0,0.0,0.0,0.0,0.0,0.0,0.0,0.0,0.0,0.0,0.0,0.0,0.0,0.0,0.0,0.0,0.0,0.0,0.0,0.0,0.0,0.0,0.0,0.0,0.0,0.0,0.0,0.0,0.0,0.0,0.0,0.0,0.0,0.0,0.0,0.0,0.0,0.0,0.0,0.0,0.0,-0.1161,-0.1815,-0.3423,-0.3825,-0.463,0.0,0.0,0.0,0.0,-0.7988,-0.7988,-0.7988,-0.7988,-0.7988,-0.7988,-0.7988,-0.7988,-0.7988,-0.7988,-0.7988,-0.7988,-0.7988,-0.7988,-0.7988,-0.7988,-0.7988,-0.7988,-0.7988,-0.7988,-0.7988,-0.7988,-0.7988,-0.8005,-0.8174,-0.8238,-0.8337,0.1397,0.135,0.1335,0.129,0.1331,0.135,0.1288,0.1341,0.134,0.1326,0.1405,0.1444,0.1477,0.1506,0.1529,0.1545,0.1547,0.1547,0.1547,0.156,0.1575,0.1592,0.1592,0.16,0.1616,0.1617,0.1617,0.1617,0.1617,0.1617,0.1617,0.1465,0.1162,0.0808,0.0657,0.0354,0.0,0.0,0.0,0.0,0.0,0.0,0.0,0.0,0.0,0.0,0.0,0.0,0.0,0.0,0.0,0.0,0.0,0.0,0.0,0.0,0.0,0.0,0.0,0.0,0.0,0.0,0.0,0.0,0.0,0.0,0.0,0.0,0.0,0.0,0.0,0.0,0.0,0.0,0.0,0.0,0.0,0.0,0.0,-0.0758,-0.0808,-0.1262,-0.2371,-0.2923,-0.3674,-0.483,0.0,0.0,-0.7188,-0.7288,-0.7487,-0.7988,-0.7988,-0.7988,-0.7988,-0.7988,-0.7988,-0.7988,-0.7988,-0.7988,-0.7988,-0.7988,-0.7988,-0.7988,-0.7988,-0.7988,-0.7988,-0.7988,-0.7988,-0.7988,-0.7988,-0.7988,-0.8008,-0.8214,-0.8364,-0.8387,0.145,0.1357,0.1307,0.1316,0.1317,0.1302,0.1314,0.1331,0.1372,0.1399,0.1442,0.1479,0.1493,0.1589,0.1622,0.1578,0.1579,0.1579,0.1579,0.1603,0.1617,0.1617,0.1617,0.1617,0.1617,0.1617,0.1617,0.1617,0.1617,0.1617,0.1617,0.1566,0.1263,0.0808,0.0758,0.0455,0.0,0.0,0.0,0.0,0.0,0.0,0.0,0.0,0.0,0.0,0.0,0.0,0.0,0.0,0.0,0.0,0.0,0.0,0.0,0.0,0.0,0.0,0.0,0.0,0.0,0.0,0.0,0.0,0.0,0.0,0.0,0.0,0.0,0.0,0.0,0.0,0.0,0.0,0.0,0.0,0.0,0.0,-0.0202,-0.0758,-0.0808,-0.101,-0.1566,-0.2422,-0.3022,-0.3173,-0.4024,-0.5027,0.0,-0.6134,-0.6637,-0.7736,-0.7939,-0.7988,-0.7988,-0.7988,-0.7988,-0.7988,-0.7988,-0.7988,-0.7988,-0.7988,-0.7988,-0.7988,-0.7988,-0.7988,-0.7988,-0.7988,-0.7988,-0.7988,-0.7988,-0.7988,-0.8012,-0.8238,-0.8377,-0.8506,0.1723,0.1548,0.1367,0.1297,0.1361,0.1373,0.1303,0.131,0.1335,0.1378,0.1391,0.1472,0.1549,0.1615,0.1582,0.1607,0.161,0.161,0.161,0.1614,0.1617,0.1617,0.1617,0.1617,0.1617,0.1617,0.1617,0.1617,0.1617,0.1617,0.1617,0.1364,0.1111,0.0808,0.0556,0.0303,0.0,0.0,0.0,0.0,0.0,0.0,0.0,0.0,0.0,0.0,0.0,0.0,0.0,0.0,0.0,0.0,0.0,0.0,0.0,0.0,0.0,0.0,0.0,0.0,0.0,0.0,0.0,0.0,0.0,0.0,0.0,0.0,0.0,0.0,0.0,0.0,0.0,0.0,0.0,0.0,0.0,0.0,-0.0202,-0.0758,-0.0808,-0.101,-0.1566,-0.1768,-0.222,-0.3123,-0.3374,-0.3924,-0.4974,-0.5024,-0.5529,-0.6637,-0.7537,-0.7988,-0.7988,-0.7988,-0.7988,-0.7988,-0.7988,-0.7988,-0.7988,-0.7988,-0.7988,-0.7988,-0.7988,-0.7988,-0.7988,-0.7988,-0.7988,-0.7988,-0.7988,-0.7988,-0.8022,-0.8347,-0.8462,-0.8523,0.2011,0.1782,0.1603,0.1515,0.1451,0.138,0.1371,0.1398,0.1429,0.1456,0.1488,0.1525,0.1616,0.1586,0.1601,0.1615,0.1617,0.1617,0.1617,0.1617,0.1617,0.1617,0.1617,0.1617,0.1617,0.1617,0.1617,0.1617,0.1617,0.1617,0.1617,0.1465,0.1212,0.0808,0.0657,0.0404,0.0,0.0,0.0,0.0,0.0,0.0,0.0,0.0,0.0,0.0,0.0,0.0,0.0,0.0,0.0,0.0,0.0,0.0,0.0,0.0,0.0,0.0,0.0,0.0,0.0,0.0,0.0,0.0,0.0,0.0,0.0,0.0,0.0,0.0,0.0,0.0,0.0,0.0,0.0,0.0,0.0,0.0,-0.0152,-0.0556,-0.0707,-0.096,-0.1364,-0.1516,-0.1818,-0.2321,-0.2321,-0.2822,-0.3874,-0.3924,-0.4425,-0.5529,-0.7135,-0.7988,-0.7988,-0.7988,-0.8032,-0.8163,-0.8029,-0.8032,-0.816,-0.7472,-0.7138,-0.7138,-0.7138,-0.7138,-0.7188,-0.7739,-0.7988,-0.7988,-0.7988,-0.8092,-0.8191,-0.8404,-0.8533,-0.8635,0.221,0.2016,0.1838,0.1763,0.167,0.1566,0.1487,0.1537,0.1579,0.1546,0.1591,0.1624,0.1581,0.1603,0.1617,0.1617,0.1617,0.1617,0.1617,0.1617,0.1617,0.1617,0.1617,0.1617,0.1617,0.1617,0.1617,0.1617,0.1617,0.1617,0.1617,0.1516,0.1263,0.0808,0.0758,0.0455,0.0,0.0,0.0,0.0,0.0,0.0,0.0,0.0,0.0,0.0,0.0,0.0,0.0,0.0,0.0,0.0,0.0,0.0,0.0,0.0,0.0,0.0,0.0,0.0,0.0,0.0,0.0,0.0,0.0,0.0,0.0,0.0,0.0,0.0,0.0,0.0,0.0,0.0,0.0,0.0,0.0,0.0,-0.0101,-0.0354,-0.0606,-0.0859,-0.1162,-0.1364,-0.1516,-0.1617,-0.1617,-0.1969,-0.2772,-0.2822,-0.3324,-0.4373,-0.6279,-0.725,-0.7281,-0.7281,-0.7503,-0.7901,-0.7756,-0.7901,-0.8265,-0.6979,-0.6427,-0.643,-0.6151,-0.6045,-0.6123,-0.6927,-0.7416,-0.7643,-0.7672,-0.7958,-0.8344,-0.8469,-0.8611,-0.873,0.2386,0.2209,0.2065,0.1982,0.2089,0.2058,0.179,0.1779,0.1735,0.1606,0.1617,0.1582,0.1611,0.1615,0.1617,0.1617,0.1617,0.1617,0.1617,0.1617,0.1617,0.1617,0.1617,0.1617,0.1617,0.1617,0.1617,0.1617,0.1617,0.1617,0.1617,0.1364,0.1061,0.0808,0.0556,0.0253,0.0,0.0,0.0,0.0,0.0,0.0,0.0,0.0,0.0,0.0,0.0,0.0,0.0,0.0,0.0,0.0,0.0,0.0,0.0,0.0,0.0,0.0,0.0,0.0,0.0,0.0,0.0,0.0,0.0,0.0,0.0,0.0,0.0,0.0,0.0,0.0,0.0,0.0,0.0,0.0,0.0,0.0,-0.0101,-0.0354,-0.0404,-0.0657,-0.1162,-0.1212,-0.1314,-0.1566,-0.1617,-0.1617,-0.1718,-0.1718,-0.222,-0.3274,-0.4425,-0.5067,-0.5103,-0.5105,-0.5721,-0.6826,-0.666,-0.7226,-0.8269,-0.7021,-0.65,-0.6454,-0.5459,-0.5028,-0.5002,-0.5105,-0.5667,-0.6548,-0.6706,-0.7428,-0.8306,-0.8587,-0.8699,-0.873,0.2712,0.2621,0.2456,0.2276,0.2322,0.2308,0.2142,0.1992,0.1891,0.1843,0.17,0.1604,0.1615,0.1617,0.1617,0.1617,0.1617,0.1617,0.1617,0.1617,0.1617,0.1617,0.1617,0.1617,0.1617,0.1617,0.1617,0.1617,0.1617,0.1617,0.1617,0.1314,0.1061,0.0808,0.0505,0.0253,0.0,0.0,0.0,0.0,0.0,0.0,0.0,0.0,0.0,0.0,0.0,0.0,0.0,0.0,0.0,0.0,0.0,0.0,0.0,0.0,0.0,0.0,0.0,0.0,0.0,0.0,0.0,0.0,0.0,0.0,0.0,0.0,0.0,0.0,0.0,0.0,0.0,0.0,0.0,0.0,0.0,0.0,-0.0051,-0.0152,-0.0303,-0.0556,-0.0909,-0.1111,-0.1314,-0.1566,-0.1617,-0.1617,-0.1617,-0.1617,-0.1768,-0.217,-0.2622,-0.3487,-0.4825,-0.4825,-0.5156,-0.573,-0.5577,-0.5803,-0.63,-0.5075,-0.4525,-0.4474,-0.408,-0.3918,-0.3946,-0.4626,-0.5129,-0.5464,-0.5552,-0.5869,-0.6313,-0.6449,-0.7018,-0.77,0.2954,0.2899,0.2813,0.2591,0.2646,0.2641,0.2428,0.2279,0.2176,0.2017,0.1819,0.1718,0.1617,0.1617,0.1617,0.1617,0.1617,0.1617,0.1617,0.1617,0.1617,0.1617,0.1617,0.1617,0.1617,0.1617,0.1617,0.1617,0.1617,0.1617,0.1617,0.1314,0.1061,0.0808,0.0505,0.0253,0.0,0.0,0.0,0.0,0.0,0.0,0.0,0.0,0.0,0.0,0.0,0.0,0.0,0.0,0.0,0.0,0.0,0.0,0.0,0.0,0.0,0.0,0.0,0.0,0.0,0.0,0.0,0.0,0.0,0.0,0.0,0.0,0.0,0.0,0.0,0.0,0.0,0.0,0.0,0.0,0.0,0.0,0.0,0.0,-0.0152,-0.0404,-0.0657,-0.0909,-0.1162,-0.1465,-0.1566,-0.1617,-0.1617,-0.1617,-0.1617,-0.1617,-0.1626,-0.2341,-0.3808,-0.3827,-0.4117,-0.4642,-0.4508,-0.4687,-0.5068,-0.3882,-0.3326,-0.3328,-0.2969,-0.2805,-0.2898,-0.3645,-0.4111,-0.4411,-0.4434,-0.4745,-0.5128,-0.5154,-0.5753,-0.6591,0.3005,0.3005,0.2987,0.2929,0.3018,0.3002,0.2667,0.2664,0.252,0.2067,0.2022,0.1921,0.1617,0.1617,0.1617,0.1617,0.1617,0.1617,0.1617,0.1617,0.1617,0.1617,0.1617,0.1617,0.1617,0.1617,0.1617,0.1617,0.1617,0.1617,0.1617,0.1314,0.1061,0.0808,0.0505,0.0253,0.0,0.0,0.0,0.0,0.0,0.0,0.0,0.0,0.0,0.0,0.0,0.0,0.0,0.0,0.0,0.0,0.0,0.0,0.0,0.0,0.0,0.0,0.0,0.0,0.0,0.0,0.0,0.0,0.0,0.0,0.0,0.0,0.0,0.0,0.0,0.0,0.0,0.0,0.0,0.0,0.0,0.0,0.0,0.0,0.0,-0.0101,-0.0354,-0.0657,-0.0909,-0.1162,-0.1465,-0.1617,-0.1617,-0.1617,-0.1617,-0.1617,-0.1647,-0.1714,-0.1715,-0.169,-0.2328,-0.3579,-0.3468,-0.3985,-0.5017,-0.3876,-0.3387,-0.3336,-0.2283,-0.1778,-0.1804,-0.1804,-0.238,-0.3305,-0.3415,-0.4144,-0.5081,-0.5273,-0.5361,-0.5361,0.3077,0.3069,0.305,0.2989,0.3033,0.3063,0.2966,0.2669,0.2456,0.232,0.1969,0.1667,0.1617,0.1617,0.1617,0.1617,0.1617,0.1617,0.1617,0.1617,0.1617,0.1617,0.1617,0.1617,0.1617,0.1617,0.1617,0.1617,0.1617,0.1617,0.1566,0.1111,0.0859,0.0758,0.0303,0.0051,0.0,0.0,0.0,0.0,0.0,0.0,0.0,0.0,0.0,0.0,0.0,0.0,0.0,0.0,0.0,0.0,0.0,0.0,0.0,0.0,0.0,0.0,0.0,0.0,0.0,0.0,0.0,0.0,0.0,0.0,0.0,0.0,0.0,0.0,0.0,0.0,0.0,0.0,0.0,0.0,0.0,0.0,0.0,0.0,0.0,-0.0101,-0.0354,-0.0657,-0.0909,-0.1162,-0.1465,-0.1617,-0.1617,-0.1637,-0.1649,-0.1649,-0.1677,-0.1702,-0.1777,-0.1711,-0.1939,-0.2312,-0.2301,-0.2474,-0.278,-0.2448,-0.2282,-0.2283,-0.1958,-0.179,-0.1781,-0.1781,-0.1997,-0.2265,-0.2276,-0.2502,-0.2782,-0.2851,-0.3413,-0.4137,0.3188,0.3104,0.3109,0.3072,0.3127,0.3126,0.3126,0.2804,0.2522,0.2422,0.202,0.1718,0.1617,0.1617,0.1617,0.1617,0.1617,0.1617,0.1617,0.1617,0.1617,0.1617,0.1617,0.1617,0.1617,0.1617,0.1617,0.1617,0.1617,0.1617,0.1566,0.1162,0.0909,0.0758,0.0354,0.0101,0.0,0.0,0.0,0.0,0.0,0.0,0.0,0.0,0.0,0.0,0.0,0.0,0.0,0.0,0.0,0.0,0.0,0.0,0.0,0.0,0.0,0.0,0.0,0.0,0.0,0.0,0.0,0.0,0.0,0.0,0.0,0.0,0.0,0.0,0.0,0.0,0.0,0.0,0.0,0.0,0.0,0.0,0.0,0.0,0.0,-0.0051,-0.0202,-0.0505,-0.0808,-0.1162,-0.1373,-0.1532,-0.1635,-0.1663,-0.1679,-0.1679,-0.1707,-0.1785,-0.1804,-0.1743,-0.1749,-0.1823,-0.1823,-0.1777,-0.1795,-0.1795,-0.1795,-0.1795,-0.1795,-0.1795,-0.1795,-0.1795,-0.1795,-0.1795,-0.1795,-0.1795,-0.1795,-0.1795,-0.2242,-0.2912,0.344,0.3292,0.3331,0.323,0.318,0.318,0.318,0.2927,0.2674,0.2422,0.2121,0.1869,0.1617,0.1617,0.1617,0.1617,0.1617,0.1617,0.1617,0.1617,0.1617,0.1617,0.1617,0.1617,0.1617,0.1617,0.1617,0.1617,0.1617,0.1617,0.1617,0.1313,0.101,0.0808,0.0505,0.0253,0.0,0.0,0.0,0.0,0.0,0.0,0.0,0.0,0.0,0.0,0.0,0.0,0.0,0.0,0.0,0.0,0.0,0.0,0.0,0.0,0.0,0.0,0.0,0.0,0.0,0.0,0.0,0.0,0.0,0.0,0.0,0.0,0.0,0.0,0.0,0.0,0.0,0.0,0.0,0.0,0.0,0.0,0.0,0.0,0.0,0.0,0.0,-0.0254,-0.0609,-0.1117,-0.1238,-0.1406,-0.1667,-0.1693,-0.1708,-0.1708,-0.1792,-0.1809,-0.1809,-0.1781,-0.1795,-0.1795,-0.1795,-0.1795,-0.1795,-0.1795,-0.1795,-0.1795,-0.1795,-0.1795,-0.1795,-0.1795,-0.1795,-0.1795,-0.1795,-0.1795,-0.1795,-0.1795,-0.1795,-0.1795,0.4654,0.4422,0.4183,0.3331,0.318,0.313,0.2927,0.2674,0.2372,0.2122,0.1869,0.1667,0.1617,0.1617,0.1617,0.1617,0.1617,0.1617,0.1617,0.1617,0.1617,0.1617,0.1617,0.1617,0.1617,0.1617,0.1617,0.1617,0.1617,0.1617,0.1566,0.1111,0.0859,0.0758,0.0303,0.0051,0.0,0.0,0.0,0.0,0.0,0.0,0.0,0.0,0.0,0.0,0.0,0.0,0.0,0.0,0.0,0.0,0.0,0.0,0.0,0.0,0.0,0.0,0.0,0.0,0.0,0.0,0.0,0.0,0.0,0.0,0.0,0.0,0.0,0.0,0.0,0.0,0.0,0.0,0.0,0.0,0.0,0.0,0.0,0.0,0.0,0.0,0.0,-0.0262,-0.0527,-0.0844,-0.1164,-0.1326,-0.1379,-0.1617,-0.1794,-0.1794,-0.1769,-0.1785,-0.1785,-0.1792,-0.1795,-0.1795,-0.1795,-0.1795,-0.1795,-0.1795,-0.1795,-0.1795,-0.1795,-0.1795,-0.1795,-0.1795,-0.1795,-0.1795,-0.1795,-0.1795,-0.1795,-0.1795,-0.1795,-0.1795,0.5706,0.5546,0.5231,0.4133,0.3982,0.3681,0.2927,0.2573,0.2321,0.2021,0.1768,0.1617,0.1617,0.1617,0.1617,0.1617,0.1617,0.1617,0.1617,0.1617,0.1617,0.1617,0.1617,0.1617,0.1617,0.1617,0.1617,0.1617,0.1617,0.1516,0.1415,0.101,0.0707,0.0606,0.0202,0.0,0.0,0.0,0.0,0.0,0.0,0.0,0.0,0.0,0.0,0.0,0.0,0.0,0.0,0.0,0.0,0.0,0.0,0.0,0.0,0.0,0.0,0.0,0.0,0.0,0.0,0.0,0.0,0.0,0.0,0.0,0.0,0.0,0.0,0.0,0.0,0.0,0.0,0.0,0.0,0.0,0.0,0.0,0.0,0.0,0.0,0.0,0.0,-0.0106,-0.032,-0.0587,-0.0753,-0.0918,-0.1079,-0.1262,-0.1384,-0.1384,-0.1507,-0.157,-0.157,-0.1739,-0.1795,-0.1795,-0.1795,-0.1795,-0.1795,-0.1795,-0.1795,-0.1795,-0.1795,-0.1795,-0.1795,-0.1795,-0.1795,-0.1795,-0.1795,-0.1795,-0.1795,-0.1795,-0.1795,-0.1795,0.6772,0.6657,0.6326,0.5281,0.4935,0.4383,0.3177,0.2674,0.227,0.197,0.1718,0.1617,0.1617,0.1617,0.1617,0.1617,0.1617,0.1617,0.1617,0.1617,0.1617,0.1617,0.1617,0.1617,0.1617,0.1617,0.1617,0.1617,0.1617,0.1465,0.1212,0.0909,0.0657,0.0404,0.0101,0.0,0.0,0.0,0.0,0.0,0.0,0.0,0.0,0.0,0.0,0.0,0.0,0.0,0.0,0.0,0.0,0.0,0.0,0.0,0.0,0.0,0.0,0.0,0.0,0.0,0.0,0.0,0.0,0.0,0.0,0.0,0.0,0.0,0.0,0.0,0.0,0.0,0.0,0.0,0.0,0.0,0.0,0.0,0.0,0.0,0.0,0.0,0.0,0.0,-0.0108,-0.0323,-0.0382,-0.0495,-0.0824,-0.089,-0.0897,-0.0897,-0.1121,-0.1234,-0.1234,-0.1514,-0.1627,-0.1627,-0.1627,-0.1683,-0.1795,-0.1795,-0.1795,-0.1795,-0.1795,-0.1795,-0.1795,-0.1795,-0.1795,-0.1795,-0.1795,-0.1795,-0.1795,-0.1795,-0.1795,-0.1795,0.7994,0.776,0.7422,0.6373,0.5429,0.4582,0.3925,0.3024,0.222,0.1718,0.1617,0.1617,0.1617,0.1617,0.1617,0.1617,0.1617,0.1617,0.1617,0.1617,0.1617,0.1617,0.1617,0.1617,0.1617,0.1617,0.1617,0.1617,0.1617,0.1465,0.1212,0.0909,0.0657,0.0404,0.0101,0.0,0.0,0.0,0.0,0.0,0.0,0.0,0.0,0.0,0.0,0.0,0.0,0.0,0.0,0.0,0.0,0.0,0.0,0.0,0.0,0.0,0.0,0.0,0.0,0.0,0.0,0.0,0.0,0.0,0.0,0.0,0.0,0.0,0.0,0.0,0.0,0.0,0.0,0.0,0.0,0.0,0.0,0.0,0.0,0.0,0.0,0.0,0.0,0.0,0.0,-0.0056,-0.0279,-0.0447,-0.0447,-0.0728,-0.0897,-0.0897,-0.0953,-0.0953,-0.0953,-0.1009,-0.1009,-0.1009,-0.1009,-0.129,-0.1795,-0.1795,-0.1795,-0.1795,-0.1795,-0.1795,-0.1795,-0.1795,-0.1795,-0.1795,-0.1795,-0.1795,-0.1795,-0.1795,-0.1795,-0.1795,0.8977,0.8874,0.8574,0.7471,0.6924,0.6226,0.5074,0.3974,0.3123,0.2572,0.1969,0.1818,0.2422,0.2471,0.227,0.1667,0.1617,0.1617,0.1617,0.1617,0.1617,0.1617,0.1617,0.1617,0.1617,0.1617,0.1516,0.1364,0.1516,0.1364,0.096,0.0859,0.0556,0.0152,0.0051,0.0,0.0,0.0,0.0,0.0,0.0,0.0,0.0,0.0,0.0,0.0,0.0,0.0,0.0,0.0,0.0,0.0,0.0,0.0,0.0,0.0,0.0,0.0,0.0,0.0,0.0,0.0,0.0,0.0,0.0,0.0,0.0,0.0,0.0,0.0,0.0,0.0,0.0,0.0,0.0,0.0,0.0,0.0,0.0,0.0,0.0,0.0,0.0,0.0,0.0,0.0,-0.0112,-0.0168,-0.0168,-0.0336,-0.0393,-0.0393,-0.0561,-0.0617,-0.0617,-0.0785,-0.0897,-0.0898,-0.0906,-0.1132,-0.1514,-0.1514,-0.1627,-0.1795,-0.1795,-0.1795,-0.1795,-0.1795,-0.1795,-0.1795,-0.1795,-0.1795,-0.1795,-0.1795,-0.1795,-0.1795]}]]